Time,TemperatureF,DewpointF,PressureIn,WindDirection,WindDirectionDegrees,WindSpeedMPH,WindSpeedGustMPH,Humidity,HourlyPrecipIn,Conditions,Clouds,dailyrainin,SoftwareType,DateUTC
2013-01-22 00:00:00,52.9,48.8,30.13,East,92,0.0,0.0,86,0.00,,---,0.00,VWS V14.00,2013-01-22 06:00:00,
2013-01-22 00:01:00,52.9,49.1,30.13,East,92,0.0,0.0,87,0.00,,---,0.00,VWS V14.00,2013-01-22 06:01:00,
2013-01-22 00:02:00,52.9,49.1,30.13,East,92,0.0,0.0,87,0.00,,---,0.00,VWS V14.00,2013-01-22 06:02:00,
2013-01-22 00:03:00,52.9,49.1,30.13,East,92,0.0,0.0,87,0.00,,---,0.00,VWS V14.00,2013-01-22 06:03:00,
2013-01-22 00:04:00,52.9,49.1,30.13,East,92,0.0,0.0,87,0.00,,---,0.00,VWS V14.00,2013-01-22 06:04:00,
2013-01-22 00:05:00,52.9,49.1,30.13,East,92,0.0,0.0,87,0.00,,---,0.00,VWS V14.00,2013-01-22 06:05:00,
2013-01-22 00:06:00,53.0,49.2,30.13,East,92,0.0,0.0,87,0.00,,---,0.00,VWS V14.00,2013-01-22 06:06:00,
2013-01-22 00:07:00,53.0,49.2,30.13,East,92,0.0,0.0,87,0.00,,---,0.00,VWS V14.00,2013-01-22 06:07:00,
2013-01-22 00:08:00,53.0,49.2,30.13,East,92,0.0,0.0,87,0.00,,---,0.00,VWS V14.00,2013-01-22 06:08:00,
2013-01-22 00:09:00,53.0,49.2,30.13,East,92,0.0,0.0,87,0.00,,---,0.00,VWS V14.00,2013-01-22 06:09:00,
2013-01-22 00:10:00,53.0,49.2,30.13,East,92,0.0,0.0,87,0.00,,---,0.00,VWS V14.00,2013-01-22 06:10:00,
2013-01-22 00:11:00,53.2,49.4,30.13,East,92,0.0,0.0,87,0.00,,---,0.00,VWS V14.00,2013-01-22 06:11:00,
2013-01-22 00:12:00,53.1,49.7,30.13,East,92,0.0,0.0,88,0.00,,---,0.00,VWS V14.00,2013-01-22 06:12:00,
2013-01-22 00:13:00,53.1,49.7,30.13,East,92,0.0,0.0,88,0.00,,---,0.00,VWS V14.00,2013-01-22 06:13:00,
2013-01-22 00:14:00,53.1,49.3,30.13,East,92,0.0,0.0,87,0.00,,---,0.00,VWS V14.00,2013-01-22 06:14:00,
2013-01-22 00:15:00,53.2,49.4,30.13,East,92,0.0,0.0,87,0.00,,---,0.00,VWS V14.00,2013-01-22 06:15:00,
2013-01-22 00:16:00,53.2,49.7,30.13,East,92,0.0,0.0,88,0.00,,---,0.00,VWS V14.00,2013-01-22 06:16:00,
2013-01-22 00:17:00,53.1,49.3,30.13,East,92,0.0,0.0,87,0.00,,---,0.00,VWS V14.00,2013-01-22 06:17:00,
2013-01-22 00:18:00,53.1,49.7,30.13,East,92,0.0,0.0,88,0.00,,---,0.00,VWS V14.00,2013-01-22 06:18:00,
2013-01-22 00:19:00,53.2,49.7,30.13,East,92,0.0,0.0,88,0.00,,---,0.00,VWS V14.00,2013-01-22 06:19:00,
2013-01-22 00:20:00,53.2,49.7,30.13,East,92,0.0,0.0,88,0.00,,---,0.00,VWS V14.00,2013-01-22 06:20:00,
2013-01-22 00:21:00,53.3,49.8,30.13,East,92,0.0,0.0,88,0.00,,---,0.00,VWS V14.00,2013-01-22 06:21:00,
2013-01-22 00:22:00,53.3,49.8,30.13,East,92,0.0,0.0,88,0.00,,---,0.00,VWS V14.00,2013-01-22 06:22:00,
2013-01-22 00:23:00,53.3,49.8,30.13,East,92,0.0,0.0,88,0.00,,---,0.00,VWS V14.00,2013-01-22 06:23:00,
2013-01-22 00:24:00,53.3,49.8,30.13,East,92,0.0,0.0,88,0.00,,---,0.00,VWS V14.00,2013-01-22 06:24:00,
2013-01-22 00:25:00,53.3,49.8,30.13,East,92,0.0,0.0,88,0.00,,---,0.00,VWS V14.00,2013-01-22 06:25:00,
2013-01-22 00:26:00,53.1,49.3,30.13,East,92,0.0,0.0,87,0.00,,---,0.00,VWS V14.00,2013-01-22 06:26:00,
2013-01-22 00:27:00,53.2,49.7,30.13,East,92,0.0,0.0,88,0.00,,---,0.00,VWS V14.00,2013-01-22 06:27:00,
2013-01-22 00:28:00,53.2,49.4,30.13,East,92,0.0,0.0,87,0.00,,---,0.00,VWS V14.00,2013-01-22 06:28:00,
2013-01-22 00:29:00,53.1,49.3,30.13,East,92,0.0,0.0,87,0.00,,---,0.00,VWS V14.00,2013-01-22 06:29:00,
2013-01-22 00:30:00,53.0,49.2,30.13,East,92,0.0,0.0,87,0.00,,---,0.00,VWS V14.00,2013-01-22 06:30:00,
2013-01-22 00:31:00,52.9,49.5,30.13,East,92,0.0,0.0,88,0.00,,---,0.00,VWS V14.00,2013-01-22 06:31:00,
2013-01-22 00:32:00,52.9,49.1,30.13,East,92,0.0,0.0,87,0.00,,---,0.00,VWS V14.00,2013-01-22 06:32:00,
2013-01-22 00:33:00,52.9,49.5,30.13,East,92,0.0,0.0,88,0.00,,---,0.00,VWS V14.00,2013-01-22 06:33:00,
2013-01-22 00:34:00,52.9,49.5,30.13,East,92,0.0,0.0,88,0.00,,---,0.00,VWS V14.00,2013-01-22 06:34:00,
2013-01-22 00:35:00,53.0,49.5,30.13,East,92,0.0,0.0,88,0.00,,---,0.00,VWS V14.00,2013-01-22 06:35:00,
2013-01-22 00:36:00,53.0,49.5,30.13,East,92,0.0,0.0,88,0.00,,---,0.00,VWS V14.00,2013-01-22 06:36:00,
2013-01-22 00:37:00,53.0,49.5,30.13,East,92,0.0,0.0,88,0.00,,---,0.00,VWS V14.00,2013-01-22 06:37:00,
2013-01-22 00:38:00,53.0,49.5,30.13,East,92,0.0,0.0,88,0.00,,---,0.00,VWS V14.00,2013-01-22 06:38:00,
2013-01-22 00:39:00,53.0,49.5,30.13,East,92,0.0,0.0,88,0.00,,---,0.00,VWS V14.00,2013-01-22 06:39:00,
2013-01-22 00:40:00,53.0,49.5,30.13,East,92,0.0,0.0,88,0.00,,---,0.00,VWS V14.00,2013-01-22 06:40:00,
2013-01-22 00:41:00,53.0,49.5,30.13,East,92,0.0,0.0,88,0.00,,---,0.00,VWS V14.00,2013-01-22 06:41:00,
2013-01-22 00:42:00,53.0,49.5,30.13,East,92,0.0,0.0,88,0.00,,---,0.00,VWS V14.00,2013-01-22 06:42:00,
2013-01-22 00:43:00,53.0,49.5,30.13,East,92,0.0,0.0,88,0.00,,---,0.00,VWS V14.00,2013-01-22 06:43:00,
2013-01-22 00:44:00,53.0,49.5,30.13,East,92,0.0,0.0,88,0.00,,---,0.00,VWS V14.00,2013-01-22 06:44:00,
2013-01-22 00:45:00,53.0,49.5,30.13,East,92,0.0,0.0,88,0.00,,---,0.00,VWS V14.00,2013-01-22 06:45:00,
2013-01-22 00:46:00,53.0,49.5,30.13,East,92,0.0,0.0,88,0.00,,---,0.00,VWS V14.00,2013-01-22 06:46:00,
2013-01-22 00:47:00,53.0,49.5,30.13,East,92,0.0,0.0,88,0.00,,---,0.00,VWS V14.00,2013-01-22 06:47:00,
2013-01-22 00:48:00,53.0,49.5,30.13,East,92,0.0,0.0,88,0.00,,---,0.00,VWS V14.00,2013-01-22 06:48:00,
2013-01-22 00:49:00,53.0,49.5,30.13,East,92,0.0,0.0,88,0.00,,---,0.00,VWS V14.00,2013-01-22 06:49:00,
2013-01-22 00:50:00,53.0,49.5,30.13,East,92,0.0,0.0,88,0.00,,---,0.00,VWS V14.00,2013-01-22 06:50:00,
2013-01-22 00:51:00,53.0,49.5,30.13,East,92,0.0,0.0,88,0.00,,---,0.00,VWS V14.00,2013-01-22 06:51:00,
2013-01-22 00:52:00,53.0,49.5,30.13,East,92,0.0,0.0,88,0.00,,---,0.00,VWS V14.00,2013-01-22 06:52:00,
2013-01-22 00:53:00,53.0,49.5,30.13,East,92,0.0,0.0,88,0.00,,---,0.00,VWS V14.00,2013-01-22 06:53:00,
2013-01-22 00:54:00,53.0,49.5,30.13,East,92,0.0,0.0,88,0.00,,---,0.00,VWS V14.00,2013-01-22 06:54:00,
2013-01-22 00:55:00,53.0,49.5,30.13,East,92,0.0,0.0,88,0.00,,---,0.00,VWS V14.00,2013-01-22 06:55:00,
2013-01-22 00:56:00,52.9,49.5,30.13,East,92,0.0,0.0,88,0.00,,---,0.00,VWS V14.00,2013-01-22 06:56:00,
2013-01-22 00:57:00,53.0,49.5,30.13,East,92,0.0,0.0,88,0.00,,---,0.00,VWS V14.00,2013-01-22 06:57:00,
2013-01-22 00:58:00,52.9,49.5,30.13,East,92,0.0,0.0,88,0.00,,---,0.00,VWS V14.00,2013-01-22 06:58:00,
2013-01-22 00:59:00,52.9,49.5,30.13,East,92,0.0,0.0,88,0.00,,---,0.00,VWS V14.00,2013-01-22 06:59:00,
2013-01-22 01:00:00,52.8,49.3,30.13,East,92,0.0,0.0,88,0.00,,---,0.00,VWS V14.00,2013-01-22 07:00:00,
2013-01-22 01:01:00,52.8,49.3,30.13,East,92,0.0,0.0,88,0.00,,---,0.00,VWS V14.00,2013-01-22 07:01:00,
2013-01-22 01:02:00,52.8,49.3,30.13,East,92,0.0,0.0,88,0.00,,---,0.00,VWS V14.00,2013-01-22 07:02:00,
2013-01-22 01:03:00,52.8,49.3,30.13,East,92,0.0,0.0,88,0.00,,---,0.00,VWS V14.00,2013-01-22 07:03:00,
2013-01-22 01:04:00,52.8,49.3,30.13,East,92,0.0,0.0,88,0.00,,---,0.00,VWS V14.00,2013-01-22 07:04:00,
2013-01-22 01:05:00,52.8,49.3,30.13,East,92,0.0,0.0,88,0.00,,---,0.00,VWS V14.00,2013-01-22 07:05:00,
2013-01-22 01:06:00,52.9,49.8,30.13,East,92,0.0,0.0,89,0.00,,---,0.00,VWS V14.00,2013-01-22 07:06:00,
2013-01-22 01:07:00,52.9,49.8,30.13,East,92,0.0,0.0,89,0.00,,---,0.00,VWS V14.00,2013-01-22 07:07:00,
2013-01-22 01:08:00,52.9,49.8,30.13,East,92,0.0,0.0,89,0.00,,---,0.00,VWS V14.00,2013-01-22 07:08:00,
2013-01-22 01:09:00,52.9,49.8,30.13,East,92,0.0,0.0,89,0.00,,---,0.00,VWS V14.00,2013-01-22 07:09:00,
2013-01-22 01:10:00,52.9,49.8,30.13,East,92,0.0,0.0,89,0.00,,---,0.00,VWS V14.00,2013-01-22 07:10:00,
2013-01-22 01:11:00,52.8,49.3,30.13,East,92,0.0,0.0,88,0.00,,---,0.00,VWS V14.00,2013-01-22 07:11:00,
2013-01-22 01:12:00,52.9,49.5,30.13,East,92,0.0,0.0,88,0.00,,---,0.00,VWS V14.00,2013-01-22 07:12:00,
2013-01-22 01:13:00,52.8,49.3,30.13,East,92,0.0,0.0,88,0.00,,---,0.00,VWS V14.00,2013-01-22 07:13:00,
2013-01-22 01:14:00,52.8,49.3,30.13,East,92,0.0,0.0,88,0.00,,---,0.00,VWS V14.00,2013-01-22 07:14:00,
2013-01-22 01:15:00,52.8,49.7,30.13,East,92,0.0,0.0,89,0.00,,---,0.00,VWS V14.00,2013-01-22 07:15:00,
2013-01-22 01:16:00,53.1,50.0,30.13,East,92,0.0,0.0,89,0.00,,---,0.00,VWS V14.00,2013-01-22 07:16:00,
2013-01-22 01:17:00,53.0,49.8,30.13,East,92,0.0,0.0,89,0.00,,---,0.00,VWS V14.00,2013-01-22 07:17:00,
2013-01-22 01:18:00,53.0,49.8,30.13,East,92,0.0,0.0,89,0.00,,---,0.00,VWS V14.00,2013-01-22 07:18:00,
2013-01-22 01:19:00,53.2,50.0,30.13,East,92,0.0,0.0,89,0.00,,---,0.00,VWS V14.00,2013-01-22 07:19:00,
2013-01-22 01:20:00,53.3,50.5,30.13,East,92,0.0,0.0,90,0.00,,---,0.00,VWS V14.00,2013-01-22 07:20:00,
2013-01-22 01:21:00,53.4,50.2,30.12,East,92,0.0,0.0,89,0.00,,---,0.00,VWS V14.00,2013-01-22 07:21:00,
2013-01-22 01:22:00,53.4,50.5,30.12,East,92,0.0,0.0,90,0.00,,---,0.00,VWS V14.00,2013-01-22 07:22:00,
2013-01-22 01:23:00,53.4,50.2,30.12,East,92,0.0,0.0,89,0.00,,---,0.00,VWS V14.00,2013-01-22 07:23:00,
2013-01-22 01:24:00,53.4,50.2,30.12,East,92,0.0,0.0,89,0.00,,---,0.00,VWS V14.00,2013-01-22 07:24:00,
2013-01-22 01:25:00,53.4,50.2,30.12,East,92,0.0,0.0,89,0.00,,---,0.00,VWS V14.00,2013-01-22 07:25:00,
2013-01-22 01:26:00,53.0,49.5,30.12,East,92,0.0,0.0,88,0.00,,---,0.00,VWS V14.00,2013-01-22 07:26:00,
2013-01-22 01:27:00,53.2,50.0,30.12,East,92,0.0,0.0,89,0.00,,---,0.00,VWS V14.00,2013-01-22 07:27:00,
2013-01-22 01:28:00,53.1,49.7,30.12,East,92,0.0,0.0,88,0.00,,---,0.00,VWS V14.00,2013-01-22 07:28:00,
2013-01-22 01:29:00,53.0,49.5,30.12,East,92,0.0,0.0,88,0.00,,---,0.00,VWS V14.00,2013-01-22 07:29:00,
2013-01-22 01:30:00,52.8,49.3,30.12,East,92,0.0,0.0,88,0.00,,---,0.00,VWS V14.00,2013-01-22 07:30:00,
2013-01-22 01:31:00,52.3,48.9,30.12,East,92,0.0,0.0,88,0.00,,---,0.00,VWS V14.00,2013-01-22 07:31:00,
2013-01-22 01:32:00,52.6,49.2,30.12,East,92,0.0,0.0,88,0.00,,---,0.00,VWS V14.00,2013-01-22 07:32:00,
2013-01-22 01:33:00,52.4,49.0,30.12,East,92,0.0,0.0,88,0.00,,---,0.00,VWS V14.00,2013-01-22 07:33:00,
2013-01-22 01:34:00,52.3,48.9,30.12,East,92,0.0,0.0,88,0.00,,---,0.00,VWS V14.00,2013-01-22 07:34:00,
2013-01-22 01:35:00,52.2,48.8,30.12,East,92,0.0,0.0,88,0.00,,---,0.00,VWS V14.00,2013-01-22 07:35:00,
2013-01-22 01:36:00,52.0,48.9,30.12,East,92,0.0,0.0,89,0.00,,---,0.00,VWS V14.00,2013-01-22 07:36:00,
2013-01-22 01:37:00,52.1,49.0,30.12,East,92,0.0,0.0,89,0.00,,---,0.00,VWS V14.00,2013-01-22 07:37:00,
2013-01-22 01:38:00,52.0,48.9,30.12,East,92,0.0,0.0,89,0.00,,---,0.00,VWS V14.00,2013-01-22 07:38:00,
2013-01-22 01:39:00,52.1,49.0,30.12,East,92,0.0,0.0,89,0.00,,---,0.00,VWS V14.00,2013-01-22 07:39:00,
2013-01-22 01:40:00,52.1,49.3,30.12,East,92,0.0,0.0,90,0.00,,---,0.00,VWS V14.00,2013-01-22 07:40:00,
2013-01-22 01:41:00,52.4,49.6,30.12,East,92,0.0,0.0,90,0.00,,---,0.00,VWS V14.00,2013-01-22 07:41:00,
2013-01-22 01:42:00,52.3,49.5,30.12,East,92,0.0,0.0,90,0.00,,---,0.00,VWS V14.00,2013-01-22 07:42:00,
2013-01-22 01:43:00,52.4,49.6,30.12,East,92,0.0,0.0,90,0.00,,---,0.00,VWS V14.00,2013-01-22 07:43:00,
2013-01-22 01:44:00,52.5,49.7,30.12,East,92,0.0,0.0,90,0.00,,---,0.00,VWS V14.00,2013-01-22 07:44:00,
2013-01-22 01:45:00,52.6,49.8,30.12,East,92,0.0,0.0,90,0.00,,---,0.00,VWS V14.00,2013-01-22 07:45:00,
2013-01-22 01:46:00,53.0,50.2,30.12,East,92,0.0,0.0,90,0.00,,---,0.00,VWS V14.00,2013-01-22 07:46:00,
2013-01-22 01:47:00,53.0,50.2,30.12,East,92,0.0,0.0,90,0.00,,---,0.00,VWS V14.00,2013-01-22 07:47:00,
2013-01-22 01:48:00,53.2,50.7,30.12,East,92,0.0,0.0,91,0.00,,---,0.00,VWS V14.00,2013-01-22 07:48:00,
2013-01-22 01:49:00,53.0,50.2,30.12,East,92,0.0,0.0,90,0.00,,---,0.00,VWS V14.00,2013-01-22 07:49:00,
2013-01-22 01:50:00,52.7,49.5,30.12,East,92,0.0,0.0,89,0.00,,---,0.00,VWS V14.00,2013-01-22 07:50:00,
2013-01-22 01:51:00,51.8,48.7,30.12,East,92,0.0,0.0,89,0.00,,---,0.00,VWS V14.00,2013-01-22 07:51:00,
2013-01-22 01:52:00,52.2,48.8,30.12,East,92,0.0,0.0,88,0.00,,---,0.00,VWS V14.00,2013-01-22 07:52:00,
2013-01-22 01:53:00,52.0,48.9,30.12,East,92,0.0,0.0,89,0.00,,---,0.00,VWS V14.00,2013-01-22 07:53:00,
2013-01-22 01:54:00,51.8,48.7,30.12,East,92,0.0,0.0,89,0.00,,---,0.00,VWS V14.00,2013-01-22 07:54:00,
2013-01-22 01:55:00,51.6,48.5,30.12,East,92,0.0,0.0,89,0.00,,---,0.00,VWS V14.00,2013-01-22 07:55:00,
2013-01-22 01:56:00,51.0,47.9,30.12,East,92,0.0,0.0,89,0.00,,---,0.00,VWS V14.00,2013-01-22 07:56:00,
2013-01-22 01:57:00,51.2,48.1,30.12,East,92,0.0,0.0,89,0.00,,---,0.00,VWS V14.00,2013-01-22 07:57:00,
2013-01-22 01:58:00,51.2,48.1,30.12,East,92,0.0,0.0,89,0.00,,---,0.00,VWS V14.00,2013-01-22 07:58:00,
2013-01-22 01:59:00,51.0,47.9,30.12,East,92,0.0,0.0,89,0.00,,---,0.00,VWS V14.00,2013-01-22 07:59:00,
2013-01-22 02:00:00,50.8,47.7,30.12,East,92,0.0,0.0,89,0.00,,---,0.00,VWS V14.00,2013-01-22 08:00:00,
2013-01-22 02:01:00,50.2,47.1,30.12,East,92,0.0,0.0,89,0.00,,---,0.00,VWS V14.00,2013-01-22 08:01:00,
2013-01-22 02:02:00,50.5,47.4,30.12,East,92,0.0,0.0,89,0.00,,---,0.00,VWS V14.00,2013-01-22 08:02:00,
2013-01-22 02:03:00,50.3,47.2,30.12,East,92,0.0,0.0,89,0.00,,---,0.00,VWS V14.00,2013-01-22 08:03:00,
2013-01-22 02:04:00,50.2,47.1,30.12,East,92,0.0,0.0,89,0.00,,---,0.00,VWS V14.00,2013-01-22 08:04:00,
2013-01-22 02:05:00,50.1,47.0,30.12,East,92,0.0,0.0,89,0.00,,---,0.00,VWS V14.00,2013-01-22 08:05:00,
2013-01-22 02:06:00,49.5,46.4,30.11,East,92,0.0,0.0,89,0.00,,---,0.00,VWS V14.00,2013-01-22 08:06:00,
2013-01-22 02:07:00,49.8,46.7,30.12,East,92,0.0,0.0,89,0.00,,---,0.00,VWS V14.00,2013-01-22 08:07:00,
2013-01-22 02:08:00,49.6,47.4,30.12,East,92,0.0,0.0,92,0.00,,---,0.00,VWS V14.00,2013-01-22 08:08:00,
2013-01-22 02:09:00,49.5,46.4,30.11,East,92,0.0,0.0,89,0.00,,---,0.00,VWS V14.00,2013-01-22 08:09:00,
2013-01-22 02:10:00,49.4,46.3,30.11,East,92,0.0,0.0,89,0.00,,---,0.00,VWS V14.00,2013-01-22 08:10:00,
2013-01-22 02:11:00,49.0,45.9,30.12,East,92,0.0,0.0,89,0.00,,---,0.00,VWS V14.00,2013-01-22 08:11:00,
2013-01-22 02:12:00,49.1,46.0,30.11,East,92,0.0,0.0,89,0.00,,---,0.00,VWS V14.00,2013-01-22 08:12:00,
2013-01-22 02:13:00,49.0,45.9,30.12,East,92,0.0,0.0,89,0.00,,---,0.00,VWS V14.00,2013-01-22 08:13:00,
2013-01-22 02:14:00,49.1,46.0,30.12,East,92,0.0,0.0,89,0.00,,---,0.00,VWS V14.00,2013-01-22 08:14:00,
2013-01-22 02:15:00,49.1,46.0,30.12,East,92,0.0,0.0,89,0.00,,---,0.00,VWS V14.00,2013-01-22 08:15:00,
2013-01-22 02:16:00,49.6,47.1,30.12,East,92,0.0,0.0,91,0.00,,---,0.00,VWS V14.00,2013-01-22 08:16:00,
2013-01-22 02:17:00,49.2,46.4,30.12,East,92,0.0,0.0,90,0.00,,---,0.00,VWS V14.00,2013-01-22 08:17:00,
2013-01-22 02:18:00,49.4,46.6,30.12,East,92,0.0,0.0,90,0.00,,---,0.00,VWS V14.00,2013-01-22 08:18:00,
2013-01-22 02:19:00,49.6,47.1,30.12,East,92,0.0,0.0,91,0.00,,---,0.00,VWS V14.00,2013-01-22 08:19:00,
2013-01-22 02:20:00,49.7,46.9,30.12,East,92,0.0,0.0,90,0.00,,---,0.00,VWS V14.00,2013-01-22 08:20:00,
2013-01-22 02:21:00,50.2,47.7,30.12,East,92,0.0,0.0,91,0.00,,---,0.00,VWS V14.00,2013-01-22 08:21:00,
2013-01-22 02:22:00,50.0,47.5,30.12,East,92,0.0,0.0,91,0.00,,---,0.00,VWS V14.00,2013-01-22 08:22:00,
2013-01-22 02:23:00,50.1,47.6,30.12,East,92,0.0,0.0,91,0.00,,---,0.00,VWS V14.00,2013-01-22 08:23:00,
2013-01-22 02:24:00,50.2,47.7,30.12,East,92,0.0,0.0,91,0.00,,---,0.00,VWS V14.00,2013-01-22 08:24:00,
2013-01-22 02:25:00,50.3,47.8,30.12,East,92,0.0,0.0,91,0.00,,---,0.00,VWS V14.00,2013-01-22 08:25:00,
2013-01-22 02:26:00,50.4,47.6,30.12,East,92,0.0,0.0,90,0.00,,---,0.00,VWS V14.00,2013-01-22 08:26:00,
2013-01-22 02:27:00,50.4,47.9,30.12,East,92,0.0,0.0,91,0.00,,---,0.00,VWS V14.00,2013-01-22 08:27:00,
2013-01-22 02:28:00,50.4,47.9,30.12,East,92,0.0,0.0,91,0.00,,---,0.00,VWS V14.00,2013-01-22 08:28:00,
2013-01-22 02:29:00,50.3,47.5,30.12,East,92,0.0,0.0,90,0.00,,---,0.00,VWS V14.00,2013-01-22 08:29:00,
2013-01-22 02:30:00,50.3,47.5,30.12,East,92,0.0,0.0,90,0.00,,---,0.00,VWS V14.00,2013-01-22 08:30:00,
2013-01-22 02:31:00,50.0,47.2,30.12,East,92,0.0,0.0,90,0.00,,---,0.00,VWS V14.00,2013-01-22 08:31:00,
2013-01-22 02:32:00,50.1,47.3,30.12,East,92,0.0,0.0,90,0.00,,---,0.00,VWS V14.00,2013-01-22 08:32:00,
2013-01-22 02:33:00,50.1,47.3,30.12,East,92,0.0,0.0,90,0.00,,---,0.00,VWS V14.00,2013-01-22 08:33:00,
2013-01-22 02:34:00,50.0,47.2,30.12,East,92,0.0,0.0,90,0.00,,---,0.00,VWS V14.00,2013-01-22 08:34:00,
2013-01-22 02:35:00,49.9,47.1,30.12,East,92,0.0,0.0,90,0.00,,---,0.00,VWS V14.00,2013-01-22 08:35:00,
2013-01-22 02:36:00,49.7,46.9,30.12,East,92,0.0,0.0,90,0.00,,---,0.00,VWS V14.00,2013-01-22 08:36:00,
2013-01-22 02:37:00,49.8,47.0,30.12,East,92,0.0,0.0,90,0.00,,---,0.00,VWS V14.00,2013-01-22 08:37:00,
2013-01-22 02:38:00,49.7,46.9,30.12,East,92,0.0,0.0,90,0.00,,---,0.00,VWS V14.00,2013-01-22 08:38:00,
2013-01-22 02:39:00,49.7,46.9,30.12,East,92,0.0,0.0,90,0.00,,---,0.00,VWS V14.00,2013-01-22 08:39:00,
2013-01-22 02:40:00,49.7,46.9,30.12,East,92,0.0,0.0,90,0.00,,---,0.00,VWS V14.00,2013-01-22 08:40:00,
2013-01-22 02:41:00,49.7,47.2,30.12,East,92,0.0,0.0,91,0.00,,---,0.00,VWS V14.00,2013-01-22 08:41:00,
2013-01-22 02:42:00,49.6,46.8,30.12,East,92,0.0,0.0,90,0.00,,---,0.00,VWS V14.00,2013-01-22 08:42:00,
2013-01-22 02:43:00,49.6,46.8,30.12,East,92,0.0,0.0,90,0.00,,---,0.00,VWS V14.00,2013-01-22 08:43:00,
2013-01-22 02:44:00,49.6,47.1,30.12,East,92,0.0,0.0,91,0.00,,---,0.00,VWS V14.00,2013-01-22 08:44:00,
2013-01-22 02:45:00,49.7,47.2,30.12,East,92,0.0,0.0,91,0.00,,---,0.00,VWS V14.00,2013-01-22 08:45:00,
2013-01-22 02:46:00,49.6,46.8,30.13,East,92,0.0,0.0,90,0.00,,---,0.00,VWS V14.00,2013-01-22 08:46:00,
2013-01-22 02:47:00,49.7,47.2,30.12,East,92,0.0,0.0,91,0.00,,---,0.00,VWS V14.00,2013-01-22 08:47:00,
2013-01-22 02:48:00,49.6,46.8,30.13,East,92,0.0,0.0,90,0.00,,---,0.00,VWS V14.00,2013-01-22 08:48:00,
2013-01-22 02:49:00,49.6,46.8,30.13,East,92,0.0,0.0,90,0.00,,---,0.00,VWS V14.00,2013-01-22 08:49:00,
2013-01-22 02:50:00,49.6,46.8,30.13,East,92,0.0,0.0,90,0.00,,---,0.00,VWS V14.00,2013-01-22 08:50:00,
2013-01-22 02:51:00,49.5,47.0,30.13,East,92,0.0,0.0,91,0.00,,---,0.00,VWS V14.00,2013-01-22 08:51:00,
2013-01-22 02:52:00,49.6,47.1,30.13,East,92,0.0,0.0,91,0.00,,---,0.00,VWS V14.00,2013-01-22 08:52:00,
2013-01-22 02:53:00,49.6,47.1,30.13,East,92,0.0,0.0,91,0.00,,---,0.00,VWS V14.00,2013-01-22 08:53:00,
2013-01-22 02:54:00,49.5,47.0,30.13,East,92,0.0,0.0,91,0.00,,---,0.00,VWS V14.00,2013-01-22 08:54:00,
2013-01-22 02:55:00,49.5,46.7,30.13,East,92,0.0,0.0,90,0.00,,---,0.00,VWS V14.00,2013-01-22 08:55:00,
2013-01-22 02:56:00,49.4,46.9,30.13,East,92,0.0,0.0,91,0.00,,---,0.00,VWS V14.00,2013-01-22 08:56:00,
2013-01-22 02:57:00,49.4,46.9,30.13,East,92,0.0,0.0,91,0.00,,---,0.00,VWS V14.00,2013-01-22 08:57:00,
2013-01-22 02:58:00,49.4,46.9,30.13,East,92,0.0,0.0,91,0.00,,---,0.00,VWS V14.00,2013-01-22 08:58:00,
2013-01-22 02:59:00,49.4,46.9,30.13,East,92,0.0,0.0,91,0.00,,---,0.00,VWS V14.00,2013-01-22 08:59:00,
2013-01-22 03:00:00,49.4,46.9,30.13,East,92,0.0,0.0,91,0.00,,---,0.00,VWS V14.00,2013-01-22 09:00:00,
2013-01-22 03:01:00,49.1,46.3,30.13,East,92,0.0,0.0,90,0.00,,---,0.00,VWS V14.00,2013-01-22 09:01:00,
2013-01-22 03:02:00,49.3,46.5,30.13,East,92,0.0,0.0,90,0.00,,---,0.00,VWS V14.00,2013-01-22 09:02:00,
2013-01-22 03:03:00,49.2,46.4,30.13,East,92,0.0,0.0,90,0.00,,---,0.00,VWS V14.00,2013-01-22 09:03:00,
2013-01-22 03:04:00,49.0,46.2,30.13,East,92,0.0,0.0,90,0.00,,---,0.00,VWS V14.00,2013-01-22 09:04:00,
2013-01-22 03:05:00,49.0,46.2,30.13,East,92,0.0,0.0,90,0.00,,---,0.00,VWS V14.00,2013-01-22 09:05:00,
2013-01-22 03:06:00,48.7,46.2,30.13,East,92,0.0,0.0,91,0.00,,---,0.00,VWS V14.00,2013-01-22 09:06:00,
2013-01-22 03:07:00,48.8,46.0,30.13,East,92,0.0,0.0,90,0.00,,---,0.00,VWS V14.00,2013-01-22 09:07:00,
2013-01-22 03:08:00,48.7,45.9,30.13,East,92,0.0,0.0,90,0.00,,---,0.00,VWS V14.00,2013-01-22 09:08:00,
2013-01-22 03:09:00,48.7,46.2,30.13,East,92,0.0,0.0,91,0.00,,---,0.00,VWS V14.00,2013-01-22 09:09:00,
2013-01-22 03:10:00,48.7,46.2,30.13,East,92,0.0,0.0,91,0.00,,---,0.00,VWS V14.00,2013-01-22 09:10:00,
2013-01-22 03:11:00,48.8,46.3,30.13,East,92,0.0,0.0,91,0.00,,---,0.00,VWS V14.00,2013-01-22 09:11:00,
2013-01-22 03:12:00,48.7,46.2,30.12,East,92,0.0,0.0,91,0.00,,---,0.00,VWS V14.00,2013-01-22 09:12:00,
2013-01-22 03:13:00,48.8,46.3,30.13,East,92,0.0,0.0,91,0.00,,---,0.00,VWS V14.00,2013-01-22 09:13:00,
2013-01-22 03:14:00,48.8,46.3,30.13,East,92,0.0,0.0,91,0.00,,---,0.00,VWS V14.00,2013-01-22 09:14:00,
2013-01-22 03:15:00,48.8,46.3,30.12,East,92,0.0,0.0,91,0.00,,---,0.00,VWS V14.00,2013-01-22 09:15:00,
2013-01-22 03:16:00,49.1,46.9,30.12,East,92,0.0,0.0,92,0.00,,---,0.00,VWS V14.00,2013-01-22 09:16:00,
2013-01-22 03:17:00,48.9,46.7,30.12,East,92,0.0,0.0,92,0.00,,---,0.00,VWS V14.00,2013-01-22 09:17:00,
2013-01-22 03:18:00,49.1,46.9,30.12,East,92,0.0,0.0,92,0.00,,---,0.00,VWS V14.00,2013-01-22 09:18:00,
2013-01-22 03:20:00,49.4,47.2,30.12,East,92,0.0,0.0,92,0.00,,---,0.00,VWS V14.00,2013-01-22 09:20:00,
2013-01-22 03:21:00,49.9,47.7,30.12,East,92,0.0,0.0,92,0.00,,---,0.00,VWS V14.00,2013-01-22 09:21:00,
2013-01-22 03:22:00,49.7,47.5,30.12,East,92,0.0,0.0,92,0.00,,---,0.00,VWS V14.00,2013-01-22 09:22:00,
2013-01-22 03:23:00,49.8,47.6,30.12,East,92,0.0,0.0,92,0.00,,---,0.00,VWS V14.00,2013-01-22 09:23:00,
2013-01-22 03:24:00,49.9,47.7,30.12,East,92,0.0,0.0,92,0.00,,---,0.00,VWS V14.00,2013-01-22 09:24:00,
2013-01-22 03:25:00,50.0,47.8,30.12,East,92,0.0,0.0,92,0.00,,---,0.00,VWS V14.00,2013-01-22 09:25:00,
2013-01-22 03:26:00,50.3,48.1,30.13,East,92,0.0,0.0,92,0.00,,---,0.00,VWS V14.00,2013-01-22 09:26:00,
2013-01-22 03:27:00,50.2,48.0,30.13,East,92,0.0,0.0,92,0.00,,---,0.00,VWS V14.00,2013-01-22 09:27:00,
2013-01-22 03:28:00,50.3,48.1,30.13,East,92,0.0,0.0,92,0.00,,---,0.00,VWS V14.00,2013-01-22 09:28:00,
2013-01-22 03:29:00,50.4,48.2,30.13,East,92,0.0,0.0,92,0.00,,---,0.00,VWS V14.00,2013-01-22 09:29:00,
2013-01-22 03:30:00,50.4,48.2,30.13,East,92,0.0,0.0,92,0.00,,---,0.00,VWS V14.00,2013-01-22 09:30:00,
2013-01-22 03:31:00,50.5,48.3,30.13,East,92,0.0,0.0,92,0.00,,---,0.00,VWS V14.00,2013-01-22 09:31:00,
2013-01-22 03:32:00,50.5,48.3,30.13,East,92,0.0,0.0,92,0.00,,---,0.00,VWS V14.00,2013-01-22 09:32:00,
2013-01-22 03:33:00,50.5,48.3,30.13,East,92,0.0,0.0,92,0.00,,---,0.00,VWS V14.00,2013-01-22 09:33:00,
2013-01-22 03:34:00,50.5,48.3,30.13,East,92,0.0,0.0,92,0.00,,---,0.00,VWS V14.00,2013-01-22 09:34:00,
2013-01-22 03:35:00,50.5,48.3,30.13,East,92,0.0,0.0,92,0.00,,---,0.00,VWS V14.00,2013-01-22 09:35:00,
2013-01-22 03:36:00,50.3,48.1,30.13,East,92,0.0,0.0,92,0.00,,---,0.00,VWS V14.00,2013-01-22 09:36:00,
2013-01-22 03:37:00,50.4,48.2,30.13,East,92,0.0,0.0,92,0.00,,---,0.00,VWS V14.00,2013-01-22 09:37:00,
2013-01-22 03:38:00,50.4,48.2,30.13,East,92,0.0,0.0,92,0.00,,---,0.00,VWS V14.00,2013-01-22 09:38:00,
2013-01-22 03:39:00,50.3,48.1,30.13,East,92,0.0,0.0,92,0.00,,---,0.00,VWS V14.00,2013-01-22 09:39:00,
2013-01-22 03:40:00,50.2,48.0,30.13,East,92,0.0,0.0,92,0.00,,---,0.00,VWS V14.00,2013-01-22 09:40:00,
2013-01-22 03:41:00,49.9,47.4,30.13,East,92,0.0,0.0,91,0.00,,---,0.00,VWS V14.00,2013-01-22 09:41:00,
2013-01-22 03:42:00,50.0,47.8,30.13,East,92,0.0,0.0,92,0.00,,---,0.00,VWS V14.00,2013-01-22 09:42:00,
2013-01-22 03:43:00,49.9,47.7,30.13,East,92,0.0,0.0,92,0.00,,---,0.00,VWS V14.00,2013-01-22 09:43:00,
2013-01-22 03:44:00,49.8,47.3,30.13,East,92,0.0,0.0,91,0.00,,---,0.00,VWS V14.00,2013-01-22 09:44:00,
2013-01-22 03:45:00,49.7,47.5,30.13,East,92,0.0,0.0,92,0.00,,---,0.00,VWS V14.00,2013-01-22 09:45:00,
2013-01-22 03:46:00,49.3,46.8,30.13,East,92,0.0,0.0,91,0.00,,---,0.00,VWS V14.00,2013-01-22 09:46:00,
2013-01-22 03:47:00,49.5,47.3,30.13,East,92,0.0,0.0,92,0.00,,---,0.00,VWS V14.00,2013-01-22 09:47:00,
2013-01-22 03:48:00,49.3,46.8,30.14,East,92,0.0,0.0,91,0.00,,---,0.00,VWS V14.00,2013-01-22 09:48:00,
2013-01-22 03:49:00,49.3,46.8,30.13,East,92,0.0,0.0,91,0.00,,---,0.00,VWS V14.00,2013-01-22 09:49:00,
2013-01-22 03:50:00,49.2,47.0,30.13,East,92,0.0,0.0,92,0.00,,---,0.00,VWS V14.00,2013-01-22 09:50:00,
2013-01-22 03:51:00,48.9,46.7,30.14,East,92,0.0,0.0,92,0.00,,---,0.00,VWS V14.00,2013-01-22 09:51:00,
2013-01-22 03:52:00,49.1,46.9,30.14,East,92,0.0,0.0,92,0.00,,---,0.00,VWS V14.00,2013-01-22 09:52:00,
2013-01-22 03:53:00,49.0,46.8,30.14,East,92,0.0,0.0,92,0.00,,---,0.00,VWS V14.00,2013-01-22 09:53:00,
2013-01-22 03:54:00,48.9,46.7,30.14,East,92,0.0,0.0,92,0.00,,---,0.00,VWS V14.00,2013-01-22 09:54:00,
2013-01-22 03:55:00,48.8,46.6,30.14,East,92,0.0,0.0,92,0.00,,---,0.00,VWS V14.00,2013-01-22 09:55:00,
2013-01-22 03:56:00,48.7,46.5,30.14,East,92,0.0,0.0,92,0.00,,---,0.00,VWS V14.00,2013-01-22 09:56:00,
2013-01-22 03:57:00,48.7,46.5,30.14,East,92,0.0,0.0,92,0.00,,---,0.00,VWS V14.00,2013-01-22 09:57:00,
2013-01-22 03:58:00,48.7,46.5,30.14,East,92,0.0,0.0,92,0.00,,---,0.00,VWS V14.00,2013-01-22 09:58:00,
2013-01-22 03:59:00,48.6,46.4,30.14,East,92,0.0,0.0,92,0.00,,---,0.00,VWS V14.00,2013-01-22 09:59:00,
2013-01-22 04:00:00,48.6,46.4,30.14,East,92,0.0,0.0,92,0.00,,---,0.00,VWS V14.00,2013-01-22 10:00:00,
2013-01-22 04:01:00,48.3,46.1,30.14,East,92,0.0,0.0,92,0.00,,---,0.00,VWS V14.00,2013-01-22 10:01:00,
2013-01-22 04:02:00,48.4,46.2,30.14,East,92,0.0,0.0,92,0.00,,---,0.00,VWS V14.00,2013-01-22 10:02:00,
2013-01-22 04:03:00,48.3,46.1,30.14,East,92,0.0,0.0,92,0.00,,---,0.00,VWS V14.00,2013-01-22 10:03:00,
2013-01-22 04:04:00,48.3,46.1,30.14,East,92,0.0,0.0,92,0.00,,---,0.00,VWS V14.00,2013-01-22 10:04:00,
2013-01-22 04:05:00,48.2,46.0,30.14,East,92,0.0,0.0,92,0.00,,---,0.00,VWS V14.00,2013-01-22 10:05:00,
2013-01-22 04:06:00,48.1,45.9,30.14,East,92,0.0,0.0,92,0.00,,---,0.00,VWS V14.00,2013-01-22 10:06:00,
2013-01-22 04:08:00,48.1,45.9,30.14,East,92,0.0,0.0,92,0.00,,---,0.00,VWS V14.00,2013-01-22 10:08:00,
2013-01-22 04:09:00,48.1,45.9,30.14,East,92,0.0,0.0,92,0.00,,---,0.00,VWS V14.00,2013-01-22 10:09:00,
2013-01-22 04:10:00,48.2,46.0,30.14,East,92,0.0,0.0,92,0.00,,---,0.00,VWS V14.00,2013-01-22 10:10:00,
2013-01-22 04:11:00,48.4,46.5,30.14,East,92,0.0,0.0,93,0.00,,---,0.00,VWS V14.00,2013-01-22 10:11:00,
2013-01-22 04:12:00,48.4,46.5,30.14,East,92,0.0,0.0,93,0.00,,---,0.00,VWS V14.00,2013-01-22 10:12:00,
2013-01-22 04:13:00,48.4,46.5,30.14,East,92,0.0,0.0,93,0.00,,---,0.00,VWS V14.00,2013-01-22 10:13:00,
2013-01-22 04:14:00,48.4,46.5,30.14,East,92,0.0,0.0,93,0.00,,---,0.00,VWS V14.00,2013-01-22 10:14:00,
2013-01-22 04:15:00,48.5,46.6,30.14,East,92,0.0,0.0,93,0.00,,---,0.00,VWS V14.00,2013-01-22 10:15:00,
2013-01-22 04:16:00,48.5,46.6,30.14,East,92,0.0,0.0,93,0.00,,---,0.00,VWS V14.00,2013-01-22 10:16:00,
2013-01-22 04:17:00,48.5,46.6,30.14,East,92,0.0,0.0,93,0.00,,---,0.00,VWS V14.00,2013-01-22 10:17:00,
2013-01-22 04:18:00,48.5,46.6,30.14,East,92,0.0,0.0,93,0.00,,---,0.00,VWS V14.00,2013-01-22 10:18:00,
2013-01-22 04:19:00,48.5,46.6,30.14,East,92,0.0,0.0,93,0.00,,---,0.00,VWS V14.00,2013-01-22 10:19:00,
2013-01-22 04:20:00,48.5,46.6,30.14,East,92,0.0,0.0,93,0.00,,---,0.00,VWS V14.00,2013-01-22 10:20:00,
2013-01-22 04:21:00,48.5,46.6,30.14,East,92,0.0,0.0,93,0.00,,---,0.00,VWS V14.00,2013-01-22 10:21:00,
2013-01-22 04:22:00,48.5,46.6,30.14,East,92,0.0,0.0,93,0.00,,---,0.00,VWS V14.00,2013-01-22 10:22:00,
2013-01-22 04:23:00,48.5,46.6,30.14,East,92,0.0,0.0,93,0.00,,---,0.00,VWS V14.00,2013-01-22 10:23:00,
2013-01-22 04:24:00,48.5,46.6,30.14,East,92,0.0,0.0,93,0.00,,---,0.00,VWS V14.00,2013-01-22 10:24:00,
2013-01-22 04:25:00,48.6,46.7,30.14,East,92,0.0,0.0,93,0.00,,---,0.00,VWS V14.00,2013-01-22 10:25:00,
2013-01-22 04:26:00,48.8,46.9,30.14,East,92,0.0,0.0,93,0.00,,---,0.00,VWS V14.00,2013-01-22 10:26:00,
2013-01-22 04:27:00,48.7,46.8,30.14,East,92,0.0,0.0,93,0.00,,---,0.00,VWS V14.00,2013-01-22 10:27:00,
2013-01-22 04:28:00,48.8,46.9,30.14,East,92,0.0,0.0,93,0.00,,---,0.00,VWS V14.00,2013-01-22 10:28:00,
2013-01-22 04:29:00,48.8,46.9,30.14,East,92,0.0,0.0,93,0.00,,---,0.00,VWS V14.00,2013-01-22 10:29:00,
2013-01-22 04:30:00,48.9,47.0,30.14,East,92,0.0,0.0,93,0.00,,---,0.00,VWS V14.00,2013-01-22 10:30:00,
2013-01-22 04:31:00,49.0,47.1,30.14,East,92,0.0,0.0,93,0.00,,---,0.00,VWS V14.00,2013-01-22 10:31:00,
2013-01-22 04:32:00,48.9,47.0,30.14,East,92,0.0,0.0,93,0.00,,---,0.00,VWS V14.00,2013-01-22 10:32:00,
2013-01-22 04:33:00,48.9,47.0,30.14,East,92,0.0,0.0,93,0.00,,---,0.00,VWS V14.00,2013-01-22 10:33:00,
2013-01-22 04:34:00,49.0,47.1,30.14,East,92,0.0,0.0,93,0.00,,---,0.00,VWS V14.00,2013-01-22 10:34:00,
2013-01-22 04:35:00,49.1,47.2,30.14,East,92,0.0,0.0,93,0.00,,---,0.00,VWS V14.00,2013-01-22 10:35:00,
2013-01-22 04:36:00,49.3,47.4,30.15,East,92,0.0,0.0,93,0.00,,---,0.00,VWS V14.00,2013-01-22 10:36:00,
2013-01-22 04:37:00,49.2,47.3,30.15,East,92,0.0,0.0,93,0.00,,---,0.00,VWS V14.00,2013-01-22 10:37:00,
2013-01-22 04:38:00,49.2,47.3,30.15,East,92,0.0,0.0,93,0.00,,---,0.00,VWS V14.00,2013-01-22 10:38:00,
2013-01-22 04:39:00,49.2,47.3,30.15,East,92,0.0,0.0,93,0.00,,---,0.00,VWS V14.00,2013-01-22 10:39:00,
2013-01-22 04:41:00,49.1,47.2,30.15,East,92,0.0,0.0,93,0.00,,---,0.00,VWS V14.00,2013-01-22 10:41:00,
2013-01-22 04:42:00,49.2,47.3,30.15,East,92,0.0,0.0,93,0.00,,---,0.00,VWS V14.00,2013-01-22 10:42:00,
2013-01-22 04:43:00,49.1,47.2,30.15,East,92,0.0,0.0,93,0.00,,---,0.00,VWS V14.00,2013-01-22 10:43:00,
2013-01-22 04:44:00,49.1,47.2,30.15,East,92,0.0,0.0,93,0.00,,---,0.00,VWS V14.00,2013-01-22 10:44:00,
2013-01-22 04:45:00,49.1,47.2,30.15,East,92,0.0,0.0,93,0.00,,---,0.00,VWS V14.00,2013-01-22 10:45:00,
2013-01-22 04:46:00,49.0,47.1,30.15,East,92,0.0,0.0,93,0.00,,---,0.00,VWS V14.00,2013-01-22 10:46:00,
2013-01-22 04:47:00,49.1,47.2,30.15,East,92,0.0,0.0,93,0.00,,---,0.00,VWS V14.00,2013-01-22 10:47:00,
2013-01-22 04:48:00,49.0,47.1,30.15,East,92,0.0,0.0,93,0.00,,---,0.00,VWS V14.00,2013-01-22 10:48:00,
2013-01-22 04:49:00,48.9,47.0,30.15,East,92,0.0,0.0,93,0.00,,---,0.00,VWS V14.00,2013-01-22 10:49:00,
2013-01-22 04:50:00,48.8,46.9,30.15,East,92,0.0,0.0,93,0.00,,---,0.00,VWS V14.00,2013-01-22 10:50:00,
2013-01-22 04:51:00,48.6,46.7,30.15,East,92,0.0,0.0,93,0.00,,---,0.00,VWS V14.00,2013-01-22 10:51:00,
2013-01-22 04:52:00,48.7,46.8,30.15,East,92,0.0,0.0,93,0.00,,---,0.00,VWS V14.00,2013-01-22 10:52:00,
2013-01-22 04:53:00,48.7,46.8,30.15,East,92,0.0,0.0,93,0.00,,---,0.00,VWS V14.00,2013-01-22 10:53:00,
2013-01-22 04:54:00,48.6,46.7,30.15,East,92,0.0,0.0,93,0.00,,---,0.00,VWS V14.00,2013-01-22 10:54:00,
2013-01-22 04:55:00,48.6,46.7,30.15,East,92,0.0,0.0,93,0.00,,---,0.00,VWS V14.00,2013-01-22 10:55:00,
2013-01-22 04:56:00,48.4,46.5,30.15,East,92,0.0,0.0,93,0.00,,---,0.00,VWS V14.00,2013-01-22 10:56:00,
2013-01-22 04:57:00,48.5,46.6,30.15,East,92,0.0,0.0,93,0.00,,---,0.00,VWS V14.00,2013-01-22 10:57:00,
2013-01-22 04:58:00,48.4,46.5,30.15,East,92,0.0,0.0,93,0.00,,---,0.00,VWS V14.00,2013-01-22 10:58:00,
2013-01-22 04:59:00,48.3,46.4,30.15,East,92,0.0,0.0,93,0.00,,---,0.00,VWS V14.00,2013-01-22 10:59:00,
2013-01-22 05:00:00,48.3,46.4,30.15,East,92,0.0,0.0,93,0.00,,---,0.00,VWS V14.00,2013-01-22 11:00:00,
2013-01-22 05:01:00,48.2,46.3,30.15,East,92,0.0,0.0,93,0.00,,---,0.00,VWS V14.00,2013-01-22 11:01:00,
2013-01-22 05:02:00,48.2,46.3,30.15,East,92,0.0,0.0,93,0.00,,---,0.00,VWS V14.00,2013-01-22 11:02:00,
2013-01-22 05:03:00,48.2,46.3,30.15,East,92,0.0,0.0,93,0.00,,---,0.00,VWS V14.00,2013-01-22 11:03:00,
2013-01-22 05:04:00,48.2,46.3,30.15,East,92,0.0,0.0,93,0.00,,---,0.00,VWS V14.00,2013-01-22 11:04:00,
2013-01-22 05:05:00,48.2,46.3,30.15,East,92,0.0,0.0,93,0.00,,---,0.00,VWS V14.00,2013-01-22 11:05:00,
2013-01-22 05:06:00,47.8,45.6,30.15,East,92,0.0,0.0,92,0.00,,---,0.00,VWS V14.00,2013-01-22 11:06:00,
2013-01-22 05:07:00,48.0,46.1,30.15,East,92,0.0,0.0,93,0.00,,---,0.00,VWS V14.00,2013-01-22 11:07:00,
2013-01-22 05:08:00,47.9,45.7,30.15,East,92,0.0,0.0,92,0.00,,---,0.00,VWS V14.00,2013-01-22 11:08:00,
2013-01-22 05:09:00,47.8,45.6,30.15,East,92,0.0,0.0,92,0.00,,---,0.00,VWS V14.00,2013-01-22 11:09:00,
2013-01-22 05:10:00,47.6,45.4,30.15,East,92,0.0,0.0,92,0.00,,---,0.00,VWS V14.00,2013-01-22 11:10:00,
2013-01-22 05:11:00,47.4,45.5,30.15,East,92,0.0,0.0,93,0.00,,---,0.00,VWS V14.00,2013-01-22 11:11:00,
2013-01-22 05:12:00,47.4,45.5,30.15,East,92,0.0,0.0,93,0.00,,---,0.00,VWS V14.00,2013-01-22 11:12:00,
2013-01-22 05:13:00,47.4,45.5,30.15,East,92,0.0,0.0,93,0.00,,---,0.00,VWS V14.00,2013-01-22 11:13:00,
2013-01-22 05:14:00,47.4,45.5,30.15,East,92,0.0,0.0,93,0.00,,---,0.00,VWS V14.00,2013-01-22 11:14:00,
2013-01-22 05:15:00,47.3,45.4,30.15,East,92,0.0,0.0,93,0.00,,---,0.00,VWS V14.00,2013-01-22 11:15:00,
2013-01-22 05:16:00,47.1,45.2,30.15,East,92,0.0,0.0,93,0.00,,---,0.00,VWS V14.00,2013-01-22 11:16:00,
2013-01-22 05:17:00,47.2,45.3,30.15,East,92,0.0,0.0,93,0.00,,---,0.00,VWS V14.00,2013-01-22 11:17:00,
2013-01-22 05:18:00,47.1,45.2,30.15,East,92,0.0,0.0,93,0.00,,---,0.00,VWS V14.00,2013-01-22 11:18:00,
2013-01-22 05:19:00,47.1,45.2,30.15,East,92,0.0,0.0,93,0.00,,---,0.00,VWS V14.00,2013-01-22 11:19:00,
2013-01-22 05:20:00,47.1,45.2,30.15,East,92,0.0,0.0,93,0.00,,---,0.00,VWS V14.00,2013-01-22 11:20:00,
2013-01-22 05:21:00,47.0,45.1,30.15,East,92,0.0,0.0,93,0.00,,---,0.00,VWS V14.00,2013-01-22 11:21:00,
2013-01-22 05:22:00,47.1,45.2,30.15,East,92,0.0,0.0,93,0.00,,---,0.00,VWS V14.00,2013-01-22 11:22:00,
2013-01-22 05:23:00,47.1,45.2,30.15,East,92,0.0,0.0,93,0.00,,---,0.00,VWS V14.00,2013-01-22 11:23:00,
2013-01-22 05:24:00,47.0,45.1,30.15,East,92,0.0,0.0,93,0.00,,---,0.00,VWS V14.00,2013-01-22 11:24:00,
2013-01-22 05:25:00,47.0,45.1,30.15,East,92,0.0,0.0,93,0.00,,---,0.00,VWS V14.00,2013-01-22 11:25:00,
2013-01-22 05:26:00,47.1,45.5,30.15,East,92,0.0,0.0,94,0.00,,---,0.00,VWS V14.00,2013-01-22 11:26:00,
2013-01-22 05:27:00,47.0,45.1,30.15,East,92,0.0,0.0,93,0.00,,---,0.00,VWS V14.00,2013-01-22 11:27:00,
2013-01-22 05:28:00,47.0,45.4,30.16,East,92,0.0,0.0,94,0.00,,---,0.00,VWS V14.00,2013-01-22 11:28:00,
2013-01-22 05:29:00,47.1,45.5,30.15,East,92,0.0,0.0,94,0.00,,---,0.00,VWS V14.00,2013-01-22 11:29:00,
2013-01-22 05:30:00,47.2,45.6,30.16,East,92,0.0,0.0,94,0.00,,---,0.00,VWS V14.00,2013-01-22 11:30:00,
2013-01-22 05:31:00,47.1,45.2,30.16,East,92,0.0,0.0,93,0.00,,---,0.00,VWS V14.00,2013-01-22 11:31:00,
2013-01-22 05:32:00,47.2,45.6,30.16,East,92,0.0,0.0,94,0.00,,---,0.00,VWS V14.00,2013-01-22 11:32:00,
2013-01-22 05:33:00,47.2,45.3,30.16,East,92,0.0,0.0,93,0.00,,---,0.00,VWS V14.00,2013-01-22 11:33:00,
2013-01-22 05:34:00,47.1,45.2,30.16,East,92,0.0,0.0,93,0.00,,---,0.00,VWS V14.00,2013-01-22 11:34:00,
2013-01-22 05:35:00,47.0,45.1,30.16,East,92,0.0,0.0,93,0.00,,---,0.00,VWS V14.00,2013-01-22 11:35:00,
2013-01-22 05:36:00,46.9,45.0,30.16,East,92,0.0,0.0,93,0.00,,---,0.00,VWS V14.00,2013-01-22 11:36:00,
2013-01-22 05:37:00,47.0,45.1,30.16,East,92,0.0,0.0,93,0.00,,---,0.00,VWS V14.00,2013-01-22 11:37:00,
2013-01-22 05:38:00,46.9,45.0,30.16,East,92,0.0,0.0,93,0.00,,---,0.00,VWS V14.00,2013-01-22 11:38:00,
2013-01-22 05:39:00,46.9,45.0,30.16,East,92,0.0,0.0,93,0.00,,---,0.00,VWS V14.00,2013-01-22 11:39:00,
2013-01-22 05:40:00,46.9,45.0,30.16,East,92,0.0,0.0,93,0.00,,---,0.00,VWS V14.00,2013-01-22 11:40:00,
2013-01-22 05:41:00,46.9,45.0,30.16,East,92,0.0,0.0,93,0.00,,---,0.00,VWS V14.00,2013-01-22 11:41:00,
2013-01-22 05:42:00,46.8,44.9,30.16,East,92,0.0,0.0,93,0.00,,---,0.00,VWS V14.00,2013-01-22 11:42:00,
2013-01-22 05:43:00,46.8,44.9,30.16,East,92,0.0,0.0,93,0.00,,---,0.00,VWS V14.00,2013-01-22 11:43:00,
2013-01-22 05:44:00,46.8,44.9,30.16,East,92,0.0,0.0,93,0.00,,---,0.00,VWS V14.00,2013-01-22 11:44:00,
2013-01-22 05:45:00,46.8,44.9,30.16,East,92,0.0,0.0,93,0.00,,---,0.00,VWS V14.00,2013-01-22 11:45:00,
2013-01-22 05:46:00,46.8,44.9,30.16,East,92,0.0,0.0,93,0.00,,---,0.00,VWS V14.00,2013-01-22 11:46:00,
2013-01-22 05:47:00,46.7,44.8,30.16,East,92,0.0,0.0,93,0.00,,---,0.00,VWS V14.00,2013-01-22 11:47:00,
2013-01-22 05:48:00,46.7,44.8,30.16,East,92,0.0,0.0,93,0.00,,---,0.00,VWS V14.00,2013-01-22 11:48:00,
2013-01-22 05:49:00,46.7,44.8,30.16,East,92,0.0,0.0,93,0.00,,---,0.00,VWS V14.00,2013-01-22 11:49:00,
2013-01-22 05:50:00,46.7,44.8,30.16,East,92,0.0,0.0,93,0.00,,---,0.00,VWS V14.00,2013-01-22 11:50:00,
2013-01-22 05:51:00,46.6,44.7,30.16,East,92,0.0,0.0,93,0.00,,---,0.00,VWS V14.00,2013-01-22 11:51:00,
2013-01-22 05:52:00,46.4,44.5,30.16,East,92,0.0,0.0,93,0.00,,---,0.00,VWS V14.00,2013-01-22 11:52:00,
2013-01-22 05:53:00,46.5,44.6,30.16,East,92,0.0,0.0,93,0.00,,---,0.00,VWS V14.00,2013-01-22 11:53:00,
2013-01-22 05:54:00,46.4,44.5,30.16,East,92,0.0,0.0,93,0.00,,---,0.00,VWS V14.00,2013-01-22 11:54:00,
2013-01-22 05:55:00,46.3,44.4,30.16,East,92,0.0,0.0,93,0.00,,---,0.00,VWS V14.00,2013-01-22 11:55:00,
2013-01-22 05:56:00,46.2,44.3,30.16,East,92,0.0,0.0,93,0.00,,---,0.00,VWS V14.00,2013-01-22 11:56:00,
2013-01-22 05:57:00,46.0,44.1,30.16,East,92,0.0,0.0,93,0.00,,---,0.00,VWS V14.00,2013-01-22 11:57:00,
2013-01-22 05:58:00,46.1,44.2,30.16,East,92,0.0,0.0,93,0.00,,---,0.00,VWS V14.00,2013-01-22 11:58:00,
2013-01-22 05:59:00,46.0,44.1,30.16,East,92,0.0,0.0,93,0.00,,---,0.00,VWS V14.00,2013-01-22 11:59:00,
2013-01-22 06:00:00,46.0,44.1,30.16,East,92,0.0,0.0,93,0.00,,---,0.00,VWS V14.00,2013-01-22 12:00:00,
2013-01-22 06:01:00,45.9,44.0,30.16,East,92,0.0,0.0,93,0.00,,---,0.00,VWS V14.00,2013-01-22 12:01:00,
2013-01-22 06:02:00,45.9,44.0,30.16,East,92,0.0,0.0,93,0.00,,---,0.00,VWS V14.00,2013-01-22 12:02:00,
2013-01-22 06:03:00,45.9,44.0,30.16,East,92,0.0,0.0,93,0.00,,---,0.00,VWS V14.00,2013-01-22 12:03:00,
2013-01-22 06:04:00,45.9,44.0,30.16,East,92,0.0,0.0,93,0.00,,---,0.00,VWS V14.00,2013-01-22 12:04:00,
2013-01-22 06:05:00,45.8,43.9,30.16,East,92,0.0,0.0,93,0.00,,---,0.00,VWS V14.00,2013-01-22 12:05:00,
2013-01-22 06:06:00,45.8,43.9,30.16,East,92,0.0,0.0,93,0.00,,---,0.00,VWS V14.00,2013-01-22 12:06:00,
2013-01-22 06:07:00,45.7,43.8,30.16,East,92,0.0,0.0,93,0.00,,---,0.00,VWS V14.00,2013-01-22 12:07:00,
2013-01-22 06:08:00,45.8,43.9,30.16,East,92,0.0,0.0,93,0.00,,---,0.00,VWS V14.00,2013-01-22 12:08:00,
2013-01-22 06:09:00,45.7,43.8,30.16,East,92,0.0,0.0,93,0.00,,---,0.00,VWS V14.00,2013-01-22 12:09:00,
2013-01-22 06:10:00,45.7,43.8,30.16,East,92,0.0,0.0,93,0.00,,---,0.00,VWS V14.00,2013-01-22 12:10:00,
2013-01-22 06:11:00,45.6,43.7,30.17,East,92,0.0,0.0,93,0.00,,---,0.00,VWS V14.00,2013-01-22 12:11:00,
2013-01-22 06:12:00,45.5,43.6,30.17,East,92,0.0,0.0,93,0.00,,---,0.00,VWS V14.00,2013-01-22 12:12:00,
2013-01-22 06:13:00,45.6,43.7,30.17,East,92,0.0,0.0,93,0.00,,---,0.00,VWS V14.00,2013-01-22 12:13:00,
2013-01-22 06:14:00,45.6,43.7,30.17,East,92,0.0,0.0,93,0.00,,---,0.00,VWS V14.00,2013-01-22 12:14:00,
2013-01-22 06:15:00,45.5,43.6,30.17,East,92,0.0,0.0,93,0.00,,---,0.00,VWS V14.00,2013-01-22 12:15:00,
2013-01-22 06:16:00,45.5,43.6,30.17,East,92,0.0,0.0,93,0.00,,---,0.00,VWS V14.00,2013-01-22 12:16:00,
2013-01-22 06:17:00,45.3,43.4,30.17,East,92,0.0,0.0,93,0.00,,---,0.00,VWS V14.00,2013-01-22 12:17:00,
2013-01-22 06:18:00,45.4,43.5,30.17,East,92,0.0,0.0,93,0.00,,---,0.00,VWS V14.00,2013-01-22 12:18:00,
2013-01-22 06:19:00,45.3,43.4,30.17,East,92,0.0,0.0,93,0.00,,---,0.00,VWS V14.00,2013-01-22 12:19:00,
2013-01-22 06:20:00,45.2,43.3,30.17,East,92,0.0,0.0,93,0.00,,---,0.00,VWS V14.00,2013-01-22 12:20:00,
2013-01-22 06:21:00,45.1,43.2,30.17,East,92,0.0,0.0,93,0.00,,---,0.00,VWS V14.00,2013-01-22 12:21:00,
2013-01-22 06:22:00,44.6,42.7,30.17,East,92,0.0,0.0,93,0.00,,---,0.00,VWS V14.00,2013-01-22 12:22:00,
2013-01-22 06:23:00,44.7,42.8,30.17,East,92,0.0,0.0,93,0.00,,---,0.00,VWS V14.00,2013-01-22 12:23:00,
2013-01-22 06:24:00,44.7,42.8,30.17,East,92,0.0,0.0,93,0.00,,---,0.00,VWS V14.00,2013-01-22 12:24:00,
2013-01-22 06:25:00,44.6,42.7,30.17,East,92,0.0,0.0,93,0.00,,---,0.00,VWS V14.00,2013-01-22 12:25:00,
2013-01-22 06:26:00,44.6,42.7,30.17,East,92,0.0,0.0,93,0.00,,---,0.00,VWS V14.00,2013-01-22 12:26:00,
2013-01-22 06:27:00,44.7,43.1,30.17,East,92,0.0,0.0,94,0.00,,---,0.00,VWS V14.00,2013-01-22 12:27:00,
2013-01-22 06:28:00,44.6,43.0,30.17,East,92,0.0,0.0,94,0.00,,---,0.00,VWS V14.00,2013-01-22 12:28:00,
2013-01-22 06:29:00,44.6,43.0,30.17,East,92,0.0,0.0,94,0.00,,---,0.00,VWS V14.00,2013-01-22 12:29:00,
2013-01-22 06:30:00,44.7,43.1,30.17,East,92,0.0,0.0,94,0.00,,---,0.00,VWS V14.00,2013-01-22 12:30:00,
2013-01-22 06:31:00,44.7,43.1,30.17,East,92,0.0,0.0,94,0.00,,---,0.00,VWS V14.00,2013-01-22 12:31:00,
2013-01-22 06:32:00,45.0,43.4,30.17,East,92,0.0,0.0,94,0.00,,---,0.00,VWS V14.00,2013-01-22 12:32:00,
2013-01-22 06:33:00,44.8,43.2,30.17,East,92,0.0,0.0,94,0.00,,---,0.00,VWS V14.00,2013-01-22 12:33:00,
2013-01-22 06:34:00,44.9,43.3,30.17,East,92,0.0,0.0,94,0.00,,---,0.00,VWS V14.00,2013-01-22 12:34:00,
2013-01-22 06:35:00,45.0,43.4,30.17,East,92,0.0,0.0,94,0.00,,---,0.00,VWS V14.00,2013-01-22 12:35:00,
2013-01-22 06:36:00,45.1,43.5,30.17,East,92,0.0,0.0,94,0.00,,---,0.00,VWS V14.00,2013-01-22 12:36:00,
2013-01-22 06:37:00,45.5,44.2,30.18,East,92,0.0,0.0,95,0.00,,---,0.00,VWS V14.00,2013-01-22 12:37:00,
2013-01-22 06:38:00,45.3,44.0,30.18,East,92,0.0,0.0,95,0.00,,---,0.00,VWS V14.00,2013-01-22 12:38:00,
2013-01-22 06:39:00,45.5,44.2,30.18,East,92,0.0,0.0,95,0.00,,---,0.00,VWS V14.00,2013-01-22 12:39:00,
2013-01-22 06:40:00,45.5,44.2,30.18,East,92,0.0,0.0,95,0.00,,---,0.00,VWS V14.00,2013-01-22 12:40:00,
2013-01-22 06:41:00,45.6,44.2,30.17,East,92,0.0,0.0,95,0.00,,---,0.00,VWS V14.00,2013-01-22 12:41:00,
2013-01-22 06:42:00,45.9,44.3,30.18,East,92,0.0,0.0,94,0.00,,---,0.00,VWS V14.00,2013-01-22 12:42:00,
2013-01-22 06:43:00,45.8,44.2,30.18,East,92,0.0,0.0,94,0.00,,---,0.00,VWS V14.00,2013-01-22 12:43:00,
2013-01-22 06:44:00,45.9,44.3,30.18,East,92,0.0,0.0,94,0.00,,---,0.00,VWS V14.00,2013-01-22 12:44:00,
2013-01-22 06:45:00,46.0,44.4,30.18,East,92,0.0,0.0,94,0.00,,---,0.00,VWS V14.00,2013-01-22 12:45:00,
2013-01-22 06:46:00,46.1,44.5,30.18,East,92,0.0,0.0,94,0.00,,---,0.00,VWS V14.00,2013-01-22 12:46:00,
2013-01-22 06:47:00,46.3,45.0,30.18,East,92,0.0,0.0,95,0.00,,---,0.00,VWS V14.00,2013-01-22 12:47:00,
2013-01-22 06:48:00,46.2,44.8,30.18,East,92,0.0,0.0,95,0.00,,---,0.00,VWS V14.00,2013-01-22 12:48:00,
2013-01-22 06:49:00,46.3,45.0,30.18,East,92,0.0,0.0,95,0.00,,---,0.00,VWS V14.00,2013-01-22 12:49:00,
2013-01-22 06:50:00,46.3,45.0,30.18,East,92,0.0,0.0,95,0.00,,---,0.00,VWS V14.00,2013-01-22 12:50:00,
2013-01-22 06:51:00,46.4,44.8,30.18,East,92,0.0,0.0,94,0.00,,---,0.00,VWS V14.00,2013-01-22 12:51:00,
2013-01-22 06:52:00,46.5,44.9,30.18,East,92,0.0,0.0,94,0.00,,---,0.00,VWS V14.00,2013-01-22 12:52:00,
2013-01-22 06:53:00,46.4,44.8,30.18,East,92,0.0,0.0,94,0.00,,---,0.00,VWS V14.00,2013-01-22 12:53:00,
2013-01-22 06:54:00,46.4,44.8,30.18,East,92,0.0,0.0,94,0.00,,---,0.00,VWS V14.00,2013-01-22 12:54:00,
2013-01-22 06:55:00,46.5,44.9,30.18,East,92,0.0,0.0,94,0.00,,---,0.00,VWS V14.00,2013-01-22 12:55:00,
2013-01-22 06:56:00,46.5,44.9,30.18,East,92,0.0,0.0,94,0.00,,---,0.00,VWS V14.00,2013-01-22 12:56:00,
2013-01-22 06:57:00,46.6,45.0,30.18,East,92,0.0,0.0,94,0.00,,---,0.00,VWS V14.00,2013-01-22 12:57:00,
2013-01-22 06:58:00,46.6,45.0,30.18,East,92,0.0,0.0,94,0.00,,---,0.00,VWS V14.00,2013-01-22 12:58:00,
2013-01-22 06:59:00,46.6,45.0,30.18,East,92,0.0,0.0,94,0.00,,---,0.00,VWS V14.00,2013-01-22 12:59:00,
2013-01-22 07:00:00,46.6,45.0,30.18,East,92,0.0,0.0,94,0.00,,---,0.00,VWS V14.00,2013-01-22 13:00:00,
2013-01-22 07:01:00,46.6,45.0,30.18,East,92,0.0,0.0,94,0.00,,---,0.00,VWS V14.00,2013-01-22 13:01:00,
2013-01-22 07:02:00,46.7,45.1,30.18,East,92,0.0,0.0,94,0.00,,---,0.00,VWS V14.00,2013-01-22 13:02:00,
2013-01-22 07:03:00,46.6,45.0,30.18,East,92,0.0,0.0,94,0.00,,---,0.00,VWS V14.00,2013-01-22 13:03:00,
2013-01-22 07:04:00,46.7,45.1,30.18,East,92,0.0,0.0,94,0.00,,---,0.00,VWS V14.00,2013-01-22 13:04:00,
2013-01-22 07:05:00,46.7,45.1,30.18,East,92,0.0,0.0,94,0.00,,---,0.00,VWS V14.00,2013-01-22 13:05:00,
2013-01-22 07:06:00,46.7,45.1,30.18,East,92,0.0,0.0,94,0.00,,---,0.00,VWS V14.00,2013-01-22 13:06:00,
2013-01-22 07:07:00,46.7,45.1,30.18,East,92,0.0,0.0,94,0.00,,---,0.00,VWS V14.00,2013-01-22 13:07:00,
2013-01-22 07:08:00,46.7,45.1,30.18,East,92,0.0,0.0,94,0.00,,---,0.00,VWS V14.00,2013-01-22 13:08:00,
2013-01-22 07:09:00,46.8,45.2,30.18,East,92,0.0,0.0,94,0.00,,---,0.00,VWS V14.00,2013-01-22 13:09:00,
2013-01-22 07:10:00,46.7,45.1,30.18,East,92,0.0,0.0,94,0.00,,---,0.00,VWS V14.00,2013-01-22 13:10:00,
2013-01-22 07:11:00,46.7,45.1,30.18,East,92,0.0,0.0,94,0.00,,---,0.00,VWS V14.00,2013-01-22 13:11:00,
2013-01-22 07:12:00,46.6,45.0,30.18,East,92,0.0,0.0,94,0.00,,---,0.00,VWS V14.00,2013-01-22 13:12:00,
2013-01-22 07:13:00,46.6,45.0,30.18,East,92,0.0,0.0,94,0.00,,---,0.00,VWS V14.00,2013-01-22 13:13:00,
2013-01-22 07:14:00,46.7,45.1,30.18,East,92,0.0,0.0,94,0.00,,---,0.00,VWS V14.00,2013-01-22 13:14:00,
2013-01-22 07:15:00,46.6,45.0,30.18,East,92,0.0,0.0,94,0.00,,---,0.00,VWS V14.00,2013-01-22 13:15:00,
2013-01-22 07:16:00,46.6,45.0,30.19,East,92,0.0,0.0,94,0.00,,---,0.00,VWS V14.00,2013-01-22 13:16:00,
2013-01-22 07:17:00,46.7,45.1,30.19,East,92,0.0,0.0,94,0.00,,---,0.00,VWS V14.00,2013-01-22 13:17:00,
2013-01-22 07:18:00,46.6,45.0,30.19,East,92,0.0,0.0,94,0.00,,---,0.00,VWS V14.00,2013-01-22 13:18:00,
2013-01-22 07:19:00,46.6,45.0,30.19,East,92,0.0,0.0,94,0.00,,---,0.00,VWS V14.00,2013-01-22 13:19:00,
2013-01-22 07:20:00,46.6,45.0,30.19,East,92,0.0,0.0,94,0.00,,---,0.00,VWS V14.00,2013-01-22 13:20:00,
2013-01-22 07:21:00,46.6,45.0,30.19,East,92,0.0,0.0,94,0.00,,---,0.00,VWS V14.00,2013-01-22 13:21:00,
2013-01-22 07:22:00,46.5,44.9,30.19,East,92,0.0,0.0,94,0.00,,---,0.00,VWS V14.00,2013-01-22 13:22:00,
2013-01-22 07:23:00,46.5,44.9,30.19,East,92,0.0,0.0,94,0.00,,---,0.00,VWS V14.00,2013-01-22 13:23:00,
2013-01-22 07:24:00,46.5,44.9,30.19,East,92,0.0,0.0,94,0.00,,---,0.00,VWS V14.00,2013-01-22 13:24:00,
2013-01-22 07:25:00,46.5,44.9,30.19,East,92,0.0,0.0,94,0.00,,---,0.00,VWS V14.00,2013-01-22 13:25:00,
2013-01-22 07:26:00,46.5,44.9,30.19,East,92,0.0,0.0,94,0.00,,---,0.00,VWS V14.00,2013-01-22 13:26:00,
2013-01-22 07:27:00,46.4,44.8,30.19,East,92,0.0,0.0,94,0.00,,---,0.00,VWS V14.00,2013-01-22 13:27:00,
2013-01-22 07:28:00,46.5,44.9,30.19,East,92,0.0,0.0,94,0.00,,---,0.00,VWS V14.00,2013-01-22 13:28:00,
2013-01-22 07:29:00,46.4,44.8,30.19,East,92,0.0,0.0,94,0.00,,---,0.00,VWS V14.00,2013-01-22 13:29:00,
2013-01-22 07:30:00,46.4,44.8,30.19,East,92,0.0,0.0,94,0.00,,---,0.00,VWS V14.00,2013-01-22 13:30:00,
2013-01-22 07:31:00,46.5,44.9,30.19,East,92,0.0,0.0,94,0.00,,---,0.00,VWS V14.00,2013-01-22 13:31:00,
2013-01-22 07:32:00,46.7,45.3,30.19,East,92,0.0,0.0,95,0.00,,---,0.00,VWS V14.00,2013-01-22 13:32:00,
2013-01-22 07:33:00,46.6,45.0,30.19,East,92,0.0,0.0,94,0.00,,---,0.00,VWS V14.00,2013-01-22 13:33:00,
2013-01-22 07:34:00,46.7,45.1,30.19,East,92,0.0,0.0,94,0.00,,---,0.00,VWS V14.00,2013-01-22 13:34:00,
2013-01-22 07:35:00,46.8,45.2,30.19,East,92,0.0,0.0,94,0.00,,---,0.00,VWS V14.00,2013-01-22 13:35:00,
2013-01-22 07:36:00,46.8,45.5,30.19,East,92,0.0,0.0,95,0.00,,---,0.00,VWS V14.00,2013-01-22 13:36:00,
2013-01-22 07:37:00,46.9,45.5,30.19,East,92,0.0,0.0,95,0.00,,---,0.00,VWS V14.00,2013-01-22 13:37:00,
2013-01-22 07:38:00,46.9,45.5,30.19,East,92,0.0,0.0,95,0.00,,---,0.00,VWS V14.00,2013-01-22 13:38:00,
2013-01-22 07:39:00,46.9,45.5,30.19,East,92,0.0,0.0,95,0.00,,---,0.00,VWS V14.00,2013-01-22 13:39:00,
2013-01-22 07:40:00,46.9,45.5,30.19,East,92,0.0,0.0,95,0.00,,---,0.00,VWS V14.00,2013-01-22 13:40:00,
2013-01-22 07:41:00,46.9,45.5,30.19,East,92,0.0,0.0,95,0.00,,---,0.00,VWS V14.00,2013-01-22 13:41:00,
2013-01-22 07:42:00,47.2,45.8,30.19,East,92,0.0,0.0,95,0.00,,---,0.00,VWS V14.00,2013-01-22 13:42:00,
2013-01-22 07:43:00,47.0,45.7,30.19,East,92,0.0,0.0,95,0.00,,---,0.00,VWS V14.00,2013-01-22 13:43:00,
2013-01-22 07:44:00,47.1,45.7,30.19,East,92,0.0,0.0,95,0.00,,---,0.00,VWS V14.00,2013-01-22 13:44:00,
2013-01-22 07:45:00,47.2,45.8,30.19,East,92,0.0,0.0,95,0.00,,---,0.00,VWS V14.00,2013-01-22 13:45:00,
2013-01-22 07:46:00,47.3,45.9,30.19,East,92,0.0,0.0,95,0.00,,---,0.00,VWS V14.00,2013-01-22 13:46:00,
2013-01-22 07:47:00,47.3,45.7,30.20,East,92,0.0,0.0,94,0.00,,---,0.00,VWS V14.00,2013-01-22 13:47:00,
2013-01-22 07:48:00,47.3,45.7,30.19,East,92,0.0,0.0,94,0.00,,---,0.00,VWS V14.00,2013-01-22 13:48:00,
2013-01-22 07:49:00,47.3,45.9,30.19,East,92,0.0,0.0,95,0.00,,---,0.00,VWS V14.00,2013-01-22 13:49:00,
2013-01-22 07:50:00,47.3,45.7,30.19,East,92,0.0,0.0,94,0.00,,---,0.00,VWS V14.00,2013-01-22 13:50:00,
2013-01-22 07:51:00,47.3,45.7,30.20,East,92,0.0,0.0,94,0.00,,---,0.00,VWS V14.00,2013-01-22 13:51:00,
2013-01-22 07:52:00,47.2,45.6,30.20,East,92,0.0,0.0,94,0.00,,---,0.00,VWS V14.00,2013-01-22 13:52:00,
2013-01-22 07:53:00,47.2,45.6,30.20,East,92,0.0,0.0,94,0.00,,---,0.00,VWS V14.00,2013-01-22 13:53:00,
2013-01-22 07:54:00,47.2,45.6,30.20,East,92,0.0,0.0,94,0.00,,---,0.00,VWS V14.00,2013-01-22 13:54:00,
2013-01-22 07:55:00,47.2,45.6,30.20,East,92,0.0,0.0,94,0.00,,---,0.00,VWS V14.00,2013-01-22 13:55:00,
2013-01-22 07:56:00,47.1,45.5,30.20,East,92,0.0,0.0,94,0.00,,---,0.00,VWS V14.00,2013-01-22 13:56:00,
2013-01-22 07:57:00,47.0,45.4,30.20,East,92,0.0,0.0,94,0.00,,---,0.00,VWS V14.00,2013-01-22 13:57:00,
2013-01-22 07:58:00,47.0,45.4,30.20,East,92,0.0,0.0,94,0.00,,---,0.00,VWS V14.00,2013-01-22 13:58:00,
2013-01-22 07:59:00,47.0,45.4,30.20,East,92,0.0,0.0,94,0.00,,---,0.00,VWS V14.00,2013-01-22 13:59:00,
2013-01-22 08:00:00,47.0,45.4,30.20,East,92,0.0,0.0,94,0.00,,---,0.00,VWS V14.00,2013-01-22 14:00:00,
2013-01-22 08:01:00,47.1,45.7,30.20,East,92,0.0,0.0,95,0.00,,---,0.00,VWS V14.00,2013-01-22 14:01:00,
2013-01-22 08:02:00,47.6,46.2,30.20,East,92,0.0,0.0,95,0.00,,---,0.00,VWS V14.00,2013-01-22 14:02:00,
2013-01-22 08:03:00,47.4,46.0,30.20,East,92,0.0,0.0,95,0.00,,---,0.00,VWS V14.00,2013-01-22 14:03:00,
2013-01-22 08:04:00,47.5,46.1,30.20,East,92,0.0,0.0,95,0.00,,---,0.00,VWS V14.00,2013-01-22 14:04:00,
2013-01-22 08:05:00,47.6,46.2,30.20,East,92,0.0,0.0,95,0.00,,---,0.00,VWS V14.00,2013-01-22 14:05:00,
2013-01-22 08:06:00,47.6,46.2,30.20,East,92,0.0,0.0,95,0.00,,---,0.00,VWS V14.00,2013-01-22 14:06:00,
2013-01-22 08:07:00,48.1,46.7,30.20,East,92,0.0,0.0,95,0.00,,---,0.00,VWS V14.00,2013-01-22 14:07:00,
2013-01-22 08:08:00,47.8,46.4,30.20,East,92,0.0,0.0,95,0.00,,---,0.00,VWS V14.00,2013-01-22 14:08:00,
2013-01-22 08:09:00,48.0,46.6,30.20,East,92,0.0,0.0,95,0.00,,---,0.00,VWS V14.00,2013-01-22 14:09:00,
2013-01-22 08:10:00,48.1,46.7,30.20,East,92,0.0,0.0,95,0.00,,---,0.00,VWS V14.00,2013-01-22 14:10:00,
2013-01-22 08:11:00,48.3,46.9,30.20,East,92,0.0,0.0,95,0.00,,---,0.00,VWS V14.00,2013-01-22 14:11:00,
2013-01-22 08:12:00,48.8,47.4,30.21,East,92,5.0,6.0,95,0.00,,---,0.00,VWS V14.00,2013-01-22 14:12:00,
2013-01-22 08:13:00,48.6,47.2,30.20,East,92,5.0,5.0,95,0.00,,---,0.00,VWS V14.00,2013-01-22 14:13:00,
2013-01-22 08:14:00,48.7,47.3,30.20,East,92,5.0,7.0,95,0.00,,---,0.00,VWS V14.00,2013-01-22 14:14:00,
2013-01-22 08:15:00,48.8,47.4,30.21,East,92,5.0,6.0,95,0.00,,---,0.00,VWS V14.00,2013-01-22 14:15:00,
2013-01-22 08:16:00,49.0,47.6,30.20,East,92,7.0,7.0,95,0.00,,---,0.00,VWS V14.00,2013-01-22 14:16:00,
2013-01-22 08:17:00,49.6,48.2,30.21,East,92,5.0,7.0,95,0.00,,---,0.00,VWS V14.00,2013-01-22 14:17:00,
2013-01-22 08:18:00,49.3,47.9,30.21,East,92,5.0,6.0,95,0.00,,---,0.00,VWS V14.00,2013-01-22 14:18:00,
2013-01-22 08:19:00,49.5,48.1,30.21,East,92,7.0,7.0,95,0.00,,---,0.00,VWS V14.00,2013-01-22 14:19:00,
2013-01-22 08:20:00,49.6,48.2,30.21,East,92,5.0,7.0,95,0.00,,---,0.00,VWS V14.00,2013-01-22 14:20:00,
2013-01-22 08:21:00,49.8,48.4,30.21,East,92,5.0,7.0,95,0.00,,---,0.00,VWS V14.00,2013-01-22 14:21:00,
2013-01-22 08:22:00,50.5,49.1,30.21,East,92,6.0,7.0,95,0.00,,---,0.00,VWS V14.00,2013-01-22 14:22:00,
2013-01-22 08:23:00,50.2,48.8,30.21,East,92,6.0,8.0,95,0.00,,---,0.00,VWS V14.00,2013-01-22 14:23:00,
2013-01-22 08:24:00,50.4,49.0,30.21,East,92,7.0,8.0,95,0.00,,---,0.00,VWS V14.00,2013-01-22 14:24:00,
2013-01-22 08:25:00,50.5,49.1,30.21,East,92,6.0,7.0,95,0.00,,---,0.00,VWS V14.00,2013-01-22 14:25:00,
2013-01-22 08:26:00,50.7,49.3,30.21,East,92,6.0,7.0,95,0.00,,---,0.00,VWS V14.00,2013-01-22 14:26:00,
2013-01-22 08:27:00,51.2,49.8,30.21,East,92,7.0,8.0,95,0.00,,---,0.00,VWS V14.00,2013-01-22 14:27:00,
2013-01-22 08:28:00,51.0,49.6,30.21,East,92,8.0,8.0,95,0.00,,---,0.00,VWS V14.00,2013-01-22 14:28:00,
2013-01-22 08:29:00,51.1,49.7,30.21,East,92,6.0,8.0,95,0.00,,---,0.00,VWS V14.00,2013-01-22 14:29:00,
2013-01-22 08:30:00,51.2,49.8,30.21,East,92,7.0,8.0,95,0.00,,---,0.00,VWS V14.00,2013-01-22 14:30:00,
2013-01-22 08:31:00,51.3,49.9,30.21,East,92,7.0,7.0,95,0.00,,---,0.00,VWS V14.00,2013-01-22 14:31:00,
2013-01-22 08:32:00,51.8,50.4,30.21,East,92,5.0,6.0,95,0.00,,---,0.00,VWS V14.00,2013-01-22 14:32:00,
2013-01-22 08:33:00,51.5,50.1,30.21,East,92,5.0,7.0,95,0.00,,---,0.00,VWS V14.00,2013-01-22 14:33:00,
2013-01-22 08:34:00,51.7,50.3,30.21,East,92,6.0,7.0,95,0.00,,---,0.00,VWS V14.00,2013-01-22 14:34:00,
2013-01-22 08:35:00,51.8,50.4,30.21,East,92,5.0,6.0,95,0.00,,---,0.00,VWS V14.00,2013-01-22 14:35:00,
2013-01-22 08:36:00,52.0,50.6,30.21,East,92,5.0,7.0,95,0.00,,---,0.00,VWS V14.00,2013-01-22 14:36:00,
2013-01-22 08:37:00,52.8,51.4,30.21,East,92,6.0,8.0,95,0.00,,---,0.00,VWS V14.00,2013-01-22 14:37:00,
2013-01-22 08:38:00,52.4,51.0,30.21,East,92,5.0,7.0,95,0.00,,---,0.00,VWS V14.00,2013-01-22 14:38:00,
2013-01-22 08:39:00,52.7,51.3,30.21,East,92,6.0,8.0,95,0.00,,---,0.00,VWS V14.00,2013-01-22 14:39:00,
2013-01-22 08:40:00,52.8,51.4,30.21,East,92,6.0,8.0,95,0.00,,---,0.00,VWS V14.00,2013-01-22 14:40:00,
2013-01-22 08:41:00,53.0,51.6,30.21,East,92,8.0,9.0,95,0.00,,---,0.00,VWS V14.00,2013-01-22 14:41:00,
2013-01-22 08:42:00,53.7,52.3,30.22,East,92,9.0,9.0,95,0.00,,---,0.00,VWS V14.00,2013-01-22 14:42:00,
2013-01-22 08:43:00,53.4,52.0,30.22,East,92,9.0,11.0,95,0.00,,---,0.00,VWS V14.00,2013-01-22 14:43:00,
2013-01-22 08:44:00,53.6,52.2,30.22,East,92,9.0,11.0,95,0.00,,---,0.00,VWS V14.00,2013-01-22 14:44:00,
2013-01-22 08:45:00,53.7,52.3,30.22,East,92,9.0,9.0,95,0.00,,---,0.00,VWS V14.00,2013-01-22 14:45:00,
2013-01-22 08:46:00,53.9,52.5,30.21,East,92,8.0,9.0,95,0.00,,---,0.00,VWS V14.00,2013-01-22 14:46:00,
2013-01-22 08:47:00,54.5,53.1,30.22,East,92,7.0,9.0,95,0.00,,---,0.00,VWS V14.00,2013-01-22 14:47:00,
2013-01-22 08:48:00,54.1,52.4,30.22,East,92,7.0,8.0,94,0.00,,---,0.00,VWS V14.00,2013-01-22 14:48:00,
2013-01-22 08:49:00,54.3,52.6,30.21,East,92,7.0,8.0,94,0.00,,---,0.00,VWS V14.00,2013-01-22 14:49:00,
2013-01-22 08:50:00,54.5,53.1,30.22,East,92,8.0,9.0,95,0.00,,---,0.00,VWS V14.00,2013-01-22 14:50:00,
2013-01-22 08:51:00,54.8,53.1,30.22,East,92,6.0,8.0,94,0.00,,---,0.00,VWS V14.00,2013-01-22 14:51:00,
2013-01-22 08:52:00,55.4,53.7,30.22,East,92,9.0,9.0,94,0.00,,---,0.00,VWS V14.00,2013-01-22 14:52:00,
2013-01-22 08:53:00,55.2,53.5,30.22,East,92,8.0,9.0,94,0.00,,---,0.00,VWS V14.00,2013-01-22 14:53:00,
2013-01-22 08:54:00,55.3,53.6,30.22,East,92,8.0,9.0,94,0.00,,---,0.00,VWS V14.00,2013-01-22 14:54:00,
2013-01-22 08:55:00,55.4,53.7,30.22,East,92,9.0,9.0,94,0.00,,---,0.00,VWS V14.00,2013-01-22 14:55:00,
2013-01-22 08:56:00,55.4,53.7,30.22,East,92,7.0,9.0,94,0.00,,---,0.00,VWS V14.00,2013-01-22 14:56:00,
2013-01-22 08:57:00,55.8,53.8,30.22,East,92,8.0,11.0,93,0.00,,---,0.00,VWS V14.00,2013-01-22 14:57:00,
2013-01-22 08:58:00,55.6,53.6,30.22,East,92,9.0,9.0,93,0.00,,---,0.00,VWS V14.00,2013-01-22 14:58:00,
2013-01-22 08:59:00,55.7,53.7,30.22,East,92,7.0,11.0,93,0.00,,---,0.00,VWS V14.00,2013-01-22 14:59:00,
2013-01-22 09:00:00,55.8,53.8,30.22,East,92,8.0,11.0,93,0.00,,---,0.00,VWS V14.00,2013-01-22 15:00:00,
2013-01-22 09:01:00,56.0,54.0,30.22,East,92,9.0,11.0,93,0.00,,---,0.00,VWS V14.00,2013-01-22 15:01:00,
2013-01-22 09:02:00,56.7,54.7,30.22,East,92,7.0,8.0,93,0.00,,---,0.00,VWS V14.00,2013-01-22 15:02:00,
2013-01-22 09:03:00,56.3,54.3,30.22,East,92,7.0,9.0,93,0.00,,---,0.00,VWS V14.00,2013-01-22 15:03:00,
2013-01-22 09:04:00,56.5,54.5,30.22,East,92,8.0,8.0,93,0.00,,---,0.00,VWS V14.00,2013-01-22 15:04:00,
2013-01-22 09:05:00,56.7,54.7,30.22,East,92,7.0,8.0,93,0.00,,---,0.00,VWS V14.00,2013-01-22 15:05:00,
2013-01-22 09:06:00,56.9,54.9,30.22,East,92,7.0,9.0,93,0.00,,---,0.00,VWS V14.00,2013-01-22 15:06:00,
2013-01-22 09:07:00,57.5,55.2,30.22,East,92,7.0,7.0,92,0.00,,---,0.00,VWS V14.00,2013-01-22 15:07:00,
2013-01-22 09:08:00,57.2,54.9,30.22,East,92,8.0,9.0,92,0.00,,---,0.00,VWS V14.00,2013-01-22 15:08:00,
2013-01-22 09:09:00,57.4,55.1,30.22,East,92,6.0,9.0,92,0.00,,---,0.00,VWS V14.00,2013-01-22 15:09:00,
2013-01-22 09:10:00,57.5,55.2,30.22,East,92,7.0,7.0,92,0.00,,---,0.00,VWS V14.00,2013-01-22 15:10:00,
2013-01-22 09:11:00,57.7,55.4,30.22,East,92,6.0,8.0,92,0.00,,---,0.00,VWS V14.00,2013-01-22 15:11:00,
2013-01-22 09:12:00,58.4,55.8,30.22,East,92,8.0,9.0,91,0.00,,---,0.00,VWS V14.00,2013-01-22 15:12:00,
2013-01-22 09:13:00,58.2,55.9,30.23,East,92,7.0,8.0,92,0.00,,---,0.00,VWS V14.00,2013-01-22 15:13:00,
2013-01-22 09:14:00,58.3,56.0,30.23,East,92,7.0,8.0,92,0.00,,---,0.00,VWS V14.00,2013-01-22 15:14:00,
2013-01-22 09:15:00,58.4,55.8,30.22,East,92,8.0,9.0,91,0.00,,---,0.00,VWS V14.00,2013-01-22 15:15:00,
2013-01-22 09:16:00,58.4,55.5,30.23,East,92,8.0,8.0,90,0.00,,---,0.00,VWS V14.00,2013-01-22 15:16:00,
2013-01-22 09:17:00,58.8,55.9,30.23,East,92,7.0,9.0,90,0.00,,---,0.00,VWS V14.00,2013-01-22 15:17:00,
2013-01-22 09:18:00,58.6,55.7,30.23,East,92,9.0,9.0,90,0.00,,---,0.00,VWS V14.00,2013-01-22 15:18:00,
2013-01-22 09:19:00,58.7,55.8,30.23,East,92,8.0,11.0,90,0.00,,---,0.00,VWS V14.00,2013-01-22 15:19:00,
2013-01-22 09:20:00,58.8,55.9,30.23,East,92,7.0,9.0,90,0.00,,---,0.00,VWS V14.00,2013-01-22 15:20:00,
2013-01-22 09:21:00,59.0,56.1,30.23,ENE,73,7.0,9.0,90,0.00,,---,0.00,VWS V14.00,2013-01-22 15:21:00,
2013-01-22 09:22:00,59.6,56.4,30.23,ENE,73,7.0,10.0,89,0.00,,---,0.00,VWS V14.00,2013-01-22 15:22:00,
2013-01-22 09:23:00,59.2,56.0,30.23,ENE,73,6.0,8.0,89,0.00,,---,0.00,VWS V14.00,2013-01-22 15:23:00,
2013-01-22 09:24:00,59.4,56.2,30.23,ENE,73,8.0,8.0,89,0.00,,---,0.00,VWS V14.00,2013-01-22 15:24:00,
2013-01-22 09:25:00,59.6,56.4,30.23,ENE,73,5.0,10.0,89,0.00,,---,0.00,VWS V14.00,2013-01-22 15:25:00,
2013-01-22 09:26:00,59.8,56.6,30.23,ENE,73,7.0,8.0,89,0.00,,---,0.00,VWS V14.00,2013-01-22 15:26:00,
2013-01-22 09:27:00,60.3,56.7,30.23,ENE,73,5.0,8.0,88,0.00,,---,0.00,VWS V14.00,2013-01-22 15:27:00,
2013-01-22 09:28:00,60.0,56.4,30.23,ENE,73,6.0,8.0,88,0.00,,---,0.00,VWS V14.00,2013-01-22 15:28:00,
2013-01-22 09:29:00,60.2,57.0,30.23,ENE,73,8.0,8.0,89,0.00,,---,0.00,VWS V14.00,2013-01-22 15:29:00,
2013-01-22 09:30:00,60.3,56.7,30.23,ENE,73,5.0,8.0,88,0.00,,---,0.00,VWS V14.00,2013-01-22 15:30:00,
2013-01-22 09:31:00,60.4,56.8,30.23,ENE,73,5.0,8.0,88,0.00,,---,0.00,VWS V14.00,2013-01-22 15:31:00,
2013-01-22 09:32:00,61.1,57.2,30.23,ENE,73,5.0,7.0,87,0.00,,---,0.00,VWS V14.00,2013-01-22 15:32:00,
2013-01-22 09:33:00,60.8,57.2,30.23,ENE,73,7.0,8.0,88,0.00,,---,0.00,VWS V14.00,2013-01-22 15:33:00,
2013-01-22 09:34:00,60.9,57.3,30.23,ENE,73,7.0,8.0,88,0.00,,---,0.00,VWS V14.00,2013-01-22 15:34:00,
2013-01-22 09:35:00,61.1,57.2,30.23,ENE,73,6.0,7.0,87,0.00,,---,0.00,VWS V14.00,2013-01-22 15:35:00,
2013-01-22 09:36:00,61.3,57.4,30.23,ENE,73,4.0,6.0,87,0.00,,---,0.00,VWS V14.00,2013-01-22 15:36:00,
2013-01-22 09:37:00,62.0,57.8,30.23,ENE,73,6.0,7.0,86,0.00,,---,0.00,VWS V14.00,2013-01-22 15:37:00,
2013-01-22 09:38:00,61.6,57.7,30.23,ENE,73,5.0,7.0,87,0.00,,---,0.00,VWS V14.00,2013-01-22 15:38:00,
2013-01-22 09:39:00,61.9,57.7,30.23,ENE,73,5.0,7.0,86,0.00,,---,0.00,VWS V14.00,2013-01-22 15:39:00,
2013-01-22 09:40:00,62.0,57.8,30.23,ENE,73,6.0,7.0,86,0.00,,---,0.00,VWS V14.00,2013-01-22 15:40:00,
2013-01-22 09:41:00,62.1,57.9,30.23,ENE,73,5.0,7.0,86,0.00,,---,0.00,VWS V14.00,2013-01-22 15:41:00,
2013-01-22 09:42:00,62.7,58.1,30.23,ENE,73,5.0,6.0,85,0.00,,---,0.00,VWS V14.00,2013-01-22 15:42:00,
2013-01-22 09:43:00,62.3,57.7,30.23,ENE,73,6.0,8.0,85,0.00,,---,0.00,VWS V14.00,2013-01-22 15:43:00,
2013-01-22 09:44:00,62.5,57.9,30.23,ENE,73,6.0,7.0,85,0.00,,---,0.00,VWS V14.00,2013-01-22 15:44:00,
2013-01-22 09:45:00,62.7,58.1,30.23,ENE,73,5.0,6.0,85,0.00,,---,0.00,VWS V14.00,2013-01-22 15:45:00,
2013-01-22 09:46:00,62.9,58.3,30.23,ENE,73,6.0,6.0,85,0.00,,---,0.00,VWS V14.00,2013-01-22 15:46:00,
2013-01-22 09:47:00,63.5,58.6,30.24,ENE,73,6.0,6.0,84,0.00,,---,0.00,VWS V14.00,2013-01-22 15:47:00,
2013-01-22 09:48:00,63.2,58.3,30.24,ENE,73,4.0,5.0,84,0.00,,---,0.00,VWS V14.00,2013-01-22 15:48:00,
2013-01-22 09:49:00,63.4,58.5,30.23,ENE,73,4.0,6.0,84,0.00,,---,0.00,VWS V14.00,2013-01-22 15:49:00,
2013-01-22 09:50:00,63.5,58.6,30.24,ENE,73,6.0,6.0,84,0.00,,---,0.00,VWS V14.00,2013-01-22 15:50:00,
2013-01-22 09:51:00,63.6,58.3,30.24,ENE,73,4.0,6.0,83,0.00,,---,0.00,VWS V14.00,2013-01-22 15:51:00,
2013-01-22 09:52:00,64.0,58.4,30.24,ENE,73,4.0,7.0,82,0.00,,---,0.00,VWS V14.00,2013-01-22 15:52:00,
2013-01-22 09:53:00,63.8,58.5,30.24,ENE,73,4.0,7.0,83,0.00,,---,0.00,VWS V14.00,2013-01-22 15:53:00,
2013-01-22 09:54:00,63.9,58.3,30.24,ENE,73,4.0,7.0,82,0.00,,---,0.00,VWS V14.00,2013-01-22 15:54:00,
2013-01-22 09:55:00,64.1,58.5,30.24,ENE,73,4.0,7.0,82,0.00,,---,0.00,VWS V14.00,2013-01-22 15:55:00,
2013-01-22 09:56:00,64.1,58.2,30.24,ENE,73,4.0,5.0,81,0.00,,---,0.00,VWS V14.00,2013-01-22 15:56:00,
2013-01-22 09:57:00,64.8,58.8,30.24,ENE,73,4.0,7.0,81,0.00,,---,0.00,VWS V14.00,2013-01-22 15:57:00,
2013-01-22 09:58:00,64.5,58.9,30.24,ENE,73,6.0,6.0,82,0.00,,---,0.00,VWS V14.00,2013-01-22 15:58:00,
2013-01-22 09:59:00,64.7,58.7,30.24,ENE,73,6.0,6.0,81,0.00,,---,0.00,VWS V14.00,2013-01-22 15:59:00,
2013-01-22 10:00:00,64.8,58.8,30.24,ENE,73,5.0,7.0,81,0.00,,---,0.00,VWS V14.00,2013-01-22 16:00:00,
2013-01-22 10:01:00,64.9,58.6,30.24,ENE,73,4.0,6.0,80,0.00,,---,0.00,VWS V14.00,2013-01-22 16:01:00,
2013-01-22 10:02:00,65.3,58.6,30.24,ENE,73,7.0,8.0,79,0.00,,---,0.00,VWS V14.00,2013-01-22 16:02:00,
2013-01-22 10:03:00,65.1,58.4,30.24,ENE,73,0.0,7.0,79,0.00,,---,0.00,VWS V14.00,2013-01-22 16:03:00,
2013-01-22 10:04:00,65.2,58.5,30.24,ENE,73,6.0,6.0,79,0.00,,---,0.00,VWS V14.00,2013-01-22 16:04:00,
2013-01-22 10:05:00,65.3,58.6,30.24,ENE,73,7.0,8.0,79,0.00,,---,0.00,VWS V14.00,2013-01-22 16:05:00,
2013-01-22 10:06:00,65.5,58.8,30.24,ENE,73,5.0,7.0,79,0.00,,---,0.00,VWS V14.00,2013-01-22 16:06:00,
2013-01-22 10:07:00,65.9,58.9,30.24,ENE,73,6.0,6.0,78,0.00,,---,0.00,VWS V14.00,2013-01-22 16:07:00,
2013-01-22 10:08:00,65.8,58.8,30.24,ENE,73,5.0,6.0,78,0.00,,---,0.00,VWS V14.00,2013-01-22 16:08:00,
2013-01-22 10:09:00,65.8,58.4,30.24,ENE,73,5.0,6.0,77,0.00,,---,0.00,VWS V14.00,2013-01-22 16:09:00,
2013-01-22 10:10:00,65.9,58.9,30.24,ENE,73,5.0,6.0,78,0.00,,---,0.00,VWS V14.00,2013-01-22 16:10:00,
2013-01-22 10:11:00,66.0,58.6,30.24,ENE,73,4.0,7.0,77,0.00,,---,0.00,VWS V14.00,2013-01-22 16:11:00,
2013-01-22 10:12:00,66.3,58.5,30.24,ENE,73,5.0,7.0,76,0.00,,---,0.00,VWS V14.00,2013-01-22 16:12:00,
2013-01-22 10:13:00,66.2,58.8,30.24,ENE,73,6.0,7.0,77,0.00,,---,0.00,VWS V14.00,2013-01-22 16:13:00,
2013-01-22 10:14:00,66.2,58.4,30.24,ENE,73,6.0,7.0,76,0.00,,---,0.00,VWS V14.00,2013-01-22 16:14:00,
2013-01-22 10:15:00,66.3,58.5,30.24,ENE,73,5.0,7.0,76,0.00,,---,0.00,VWS V14.00,2013-01-22 16:15:00,
2013-01-22 10:16:00,66.5,58.7,30.24,ENE,73,5.0,7.0,76,0.00,,---,0.00,VWS V14.00,2013-01-22 16:16:00,
2013-01-22 10:17:00,66.8,58.6,30.24,ENE,73,6.0,8.0,75,0.00,,---,0.00,VWS V14.00,2013-01-22 16:17:00,
2013-01-22 10:18:00,66.7,58.9,30.24,ENE,73,0.0,6.0,76,0.00,,---,0.00,VWS V14.00,2013-01-22 16:18:00,
2013-01-22 10:19:00,66.8,58.6,30.24,ENE,73,4.0,6.0,75,0.00,,---,0.00,VWS V14.00,2013-01-22 16:19:00,
2013-01-22 10:20:00,66.8,58.6,30.24,ENE,73,6.0,8.0,75,0.00,,---,0.00,VWS V14.00,2013-01-22 16:20:00,
2013-01-22 10:21:00,66.9,58.7,30.24,ENE,73,5.0,7.0,75,0.00,,---,0.00,VWS V14.00,2013-01-22 16:21:00,
2013-01-22 10:22:00,67.1,58.5,30.24,ENE,73,2.0,6.0,74,0.00,,---,0.00,VWS V14.00,2013-01-22 16:22:00,
2013-01-22 10:23:00,67.0,58.5,30.24,ENE,73,6.0,6.0,74,0.00,,---,0.00,VWS V14.00,2013-01-22 16:23:00,
2013-01-22 10:24:00,67.1,58.5,30.24,ENE,73,5.0,6.0,74,0.00,,---,0.00,VWS V14.00,2013-01-22 16:24:00,
2013-01-22 10:25:00,67.1,58.5,30.24,ENE,73,5.0,6.0,74,0.00,,---,0.00,VWS V14.00,2013-01-22 16:25:00,
2013-01-22 10:26:00,67.2,58.6,30.24,ENE,73,4.0,6.0,74,0.00,,---,0.00,VWS V14.00,2013-01-22 16:26:00,
2013-01-22 10:27:00,67.8,59.2,30.24,ENE,73,10.0,10.0,74,0.00,,---,0.00,VWS V14.00,2013-01-22 16:27:00,
2013-01-22 10:28:00,67.5,58.9,30.24,ENE,73,5.0,8.0,74,0.00,,---,0.00,VWS V14.00,2013-01-22 16:28:00,
2013-01-22 10:29:00,67.6,59.0,30.24,ENE,73,6.0,8.0,74,0.00,,---,0.00,VWS V14.00,2013-01-22 16:29:00,
2013-01-22 10:30:00,67.8,59.2,30.24,ENE,73,10.0,10.0,74,0.00,,---,0.00,VWS V14.00,2013-01-22 16:30:00,
2013-01-22 10:31:00,68.0,58.7,30.24,ENE,73,6.0,11.0,72,0.00,,---,0.00,VWS V14.00,2013-01-22 16:31:00,
2013-01-22 10:32:00,68.8,59.0,30.24,East,84,7.0,10.0,71,0.00,,---,0.00,VWS V14.00,2013-01-22 16:32:00,
2013-01-22 10:33:00,68.3,58.9,30.24,East,84,6.0,13.0,72,0.00,,---,0.00,VWS V14.00,2013-01-22 16:33:00,
2013-01-22 10:34:00,68.6,59.2,30.24,East,84,6.0,10.0,72,0.00,,---,0.00,VWS V14.00,2013-01-22 16:34:00,
2013-01-22 10:35:00,68.8,59.0,30.24,East,84,7.0,10.0,71,0.00,,---,0.00,VWS V14.00,2013-01-22 16:35:00,
2013-01-22 10:36:00,68.9,59.1,30.24,East,84,6.0,7.0,71,0.00,,---,0.00,VWS V14.00,2013-01-22 16:36:00,
2013-01-22 10:37:00,68.8,57.8,30.23,East,84,2.0,10.0,68,0.00,,---,0.00,VWS V14.00,2013-01-22 16:37:00,
2013-01-22 10:38:00,69.0,58.8,30.23,East,84,11.0,11.0,70,0.00,,---,0.00,VWS V14.00,2013-01-22 16:38:00,
2013-01-22 10:39:00,68.9,57.9,30.23,East,84,7.0,12.0,68,0.00,,---,0.00,VWS V14.00,2013-01-22 16:39:00,
2013-01-22 10:40:00,68.8,57.8,30.23,East,84,2.0,10.0,68,0.00,,---,0.00,VWS V14.00,2013-01-22 16:40:00,
2013-01-22 10:41:00,68.9,58.3,30.23,East,84,8.0,11.0,69,0.00,,---,0.00,VWS V14.00,2013-01-22 16:41:00,
2013-01-22 10:42:00,69.2,58.6,30.23,East,84,7.0,7.0,69,0.00,,---,0.00,VWS V14.00,2013-01-22 16:42:00,
2013-01-22 10:43:00,69.2,58.6,30.23,East,84,7.0,10.0,69,0.00,,---,0.00,VWS V14.00,2013-01-22 16:43:00,
2013-01-22 10:44:00,69.2,58.2,30.23,East,84,8.0,10.0,68,0.00,,---,0.00,VWS V14.00,2013-01-22 16:44:00,
2013-01-22 10:45:00,69.2,58.6,30.23,East,84,7.0,10.0,69,0.00,,---,0.00,VWS V14.00,2013-01-22 16:45:00,
2013-01-22 10:46:00,69.3,58.7,30.23,East,84,4.0,10.0,69,0.00,,---,0.00,VWS V14.00,2013-01-22 16:46:00,
2013-01-22 10:47:00,69.7,58.7,30.23,East,84,5.0,5.0,68,0.00,,---,0.00,VWS V14.00,2013-01-22 16:47:00,
2013-01-22 10:48:00,69.3,58.7,30.23,East,84,7.0,7.0,69,0.00,,---,0.00,VWS V14.00,2013-01-22 16:48:00,
2013-01-22 10:49:00,69.5,58.9,30.23,East,84,10.0,11.0,69,0.00,,---,0.00,VWS V14.00,2013-01-22 16:49:00,
2013-01-22 10:50:00,69.7,58.7,30.23,East,84,5.0,10.0,68,0.00,,---,0.00,VWS V14.00,2013-01-22 16:50:00,
2013-01-22 10:51:00,69.8,58.8,30.23,East,84,10.0,11.0,68,0.00,,---,0.00,VWS V14.00,2013-01-22 16:51:00,
2013-01-22 10:52:00,70.1,58.7,30.23,East,88,8.0,11.0,67,0.00,,---,0.00,VWS V14.00,2013-01-22 16:52:00,
2013-01-22 10:53:00,69.9,58.5,30.23,East,87,7.0,15.0,67,0.00,,---,0.00,VWS V14.00,2013-01-22 16:53:00,
2013-01-22 10:54:00,69.9,58.0,30.23,East,88,7.0,14.0,66,0.00,,---,0.00,VWS V14.00,2013-01-22 16:54:00,
2013-01-22 10:55:00,70.1,58.7,30.23,East,88,8.0,11.0,67,0.00,,---,0.00,VWS V14.00,2013-01-22 16:55:00,
2013-01-22 10:56:00,70.1,58.7,30.23,East,90,8.0,13.0,67,0.00,,---,0.00,VWS V14.00,2013-01-22 16:56:00,
2013-01-22 10:57:00,70.3,58.0,30.23,ESE,120,8.0,14.0,65,0.00,,---,0.00,VWS V14.00,2013-01-22 16:57:00,
2013-01-22 10:58:00,70.2,57.9,30.23,ESE,117,8.0,9.0,65,0.00,,---,0.00,VWS V14.00,2013-01-22 16:58:00,
2013-01-22 10:59:00,70.3,58.0,30.23,ESE,120,14.0,15.0,65,0.00,,---,0.00,VWS V14.00,2013-01-22 16:59:00,
2013-01-22 11:00:00,70.3,58.0,30.23,ESE,120,8.0,14.0,65,0.00,,---,0.00,VWS V14.00,2013-01-22 17:00:00,
2013-01-22 11:01:00,70.4,58.1,30.23,ESE,120,8.0,11.0,65,0.00,,---,0.00,VWS V14.00,2013-01-22 17:01:00,
2013-01-22 11:02:00,70.5,57.3,30.23,SE,125,8.0,11.0,63,0.00,,---,0.00,VWS V14.00,2013-01-22 17:02:00,
2013-01-22 11:03:00,70.5,57.3,30.23,SE,124,9.0,17.0,63,0.00,,---,0.00,VWS V14.00,2013-01-22 17:03:00,
2013-01-22 11:04:00,70.5,57.3,30.23,SE,125,9.0,13.0,63,0.00,,---,0.00,VWS V14.00,2013-01-22 17:04:00,
2013-01-22 11:05:00,70.5,57.3,30.23,SE,125,8.0,11.0,63,0.00,,---,0.00,VWS V14.00,2013-01-22 17:05:00,
2013-01-22 11:06:00,70.5,57.3,30.23,SE,124,12.0,14.0,63,0.00,,---,0.00,VWS V14.00,2013-01-22 17:06:00,
2013-01-22 11:07:00,70.4,57.2,30.23,ESE,123,9.0,13.0,63,0.00,,---,0.00,VWS V14.00,2013-01-22 17:07:00,
2013-01-22 11:08:00,70.6,57.4,30.23,ESE,121,9.0,13.0,63,0.00,,---,0.00,VWS V14.00,2013-01-22 17:08:00,
2013-01-22 11:09:00,70.5,57.3,30.23,ESE,123,13.0,14.0,63,0.00,,---,0.00,VWS V14.00,2013-01-22 17:09:00,
2013-01-22 11:10:00,70.4,57.2,30.23,ESE,123,9.0,13.0,63,0.00,,---,0.00,VWS V14.00,2013-01-22 17:10:00,
2013-01-22 11:11:00,70.3,57.6,30.23,ESE,123,7.0,11.0,64,0.00,,---,0.00,VWS V14.00,2013-01-22 17:11:00,
2013-01-22 11:12:00,70.5,57.8,30.23,ESE,122,6.0,9.0,64,0.00,,---,0.00,VWS V14.00,2013-01-22 17:12:00,
2013-01-22 11:13:00,70.4,57.7,30.22,ESE,122,7.0,12.0,64,0.00,,---,0.00,VWS V14.00,2013-01-22 17:13:00,
2013-01-22 11:14:00,70.5,57.8,30.22,ESE,122,8.0,12.0,64,0.00,,---,0.00,VWS V14.00,2013-01-22 17:14:00,
2013-01-22 11:15:00,70.5,57.8,30.23,ESE,122,6.0,9.0,64,0.00,,---,0.00,VWS V14.00,2013-01-22 17:15:00,
2013-01-22 11:16:00,70.6,57.8,30.22,ESE,111,14.0,14.0,64,0.00,,---,0.00,VWS V14.00,2013-01-22 17:16:00,
2013-01-22 11:17:00,70.8,54.8,30.23,ESE,119,12.0,15.0,57,0.00,,---,0.00,VWS V14.00,2013-01-22 17:17:00,
2013-01-22 11:18:00,70.7,56.2,30.23,ESE,117,11.0,15.0,60,0.00,,---,0.00,VWS V14.00,2013-01-22 17:18:00,
2013-01-22 11:19:00,70.8,56.7,30.23,ESE,118,14.0,15.0,61,0.00,,---,0.00,VWS V14.00,2013-01-22 17:19:00,
2013-01-22 11:20:00,70.8,54.8,30.23,ESE,119,12.0,15.0,57,0.00,,---,0.00,VWS V14.00,2013-01-22 17:20:00,
2013-01-22 11:21:00,70.9,55.4,30.23,ESE,119,4.0,12.0,58,0.00,,---,0.00,VWS V14.00,2013-01-22 17:21:00,
2013-01-22 11:22:00,71.3,55.3,30.22,SE,138,13.0,17.0,57,0.00,,---,0.00,VWS V14.00,2013-01-22 17:22:00,
2013-01-22 11:23:00,71.1,55.6,30.22,ESE,123,15.0,18.0,58,0.00,,---,0.00,VWS V14.00,2013-01-22 17:23:00,
2013-01-22 11:24:00,71.2,55.7,30.22,SE,132,15.0,16.0,58,0.00,,---,0.00,VWS V14.00,2013-01-22 17:24:00,
2013-01-22 11:25:00,71.2,55.2,30.22,SE,138,12.0,17.0,57,0.00,,---,0.00,VWS V14.00,2013-01-22 17:25:00,
2013-01-22 11:26:00,71.2,55.2,30.22,SE,137,9.0,14.0,57,0.00,,---,0.00,VWS V14.00,2013-01-22 17:26:00,
2013-01-22 11:27:00,71.4,55.4,30.22,SE,134,13.0,16.0,57,0.00,,---,0.00,VWS V14.00,2013-01-22 17:27:00,
2013-01-22 11:28:00,71.1,55.6,30.22,SE,132,11.0,13.0,58,0.00,,---,0.00,VWS V14.00,2013-01-22 17:28:00,
2013-01-22 11:30:00,71.4,55.4,30.22,SE,134,13.0,16.0,57,0.00,,---,0.00,VWS V14.00,2013-01-22 17:30:00,
2013-01-22 11:32:00,71.8,53.8,30.22,SE,140,13.0,13.0,53,0.00,,---,0.00,VWS V14.00,2013-01-22 17:32:00,
2013-01-22 11:34:00,71.8,54.8,30.22,SE,140,10.0,14.0,55,0.00,,---,0.00,VWS V14.00,2013-01-22 17:34:00,
2013-01-22 11:35:00,71.8,53.8,30.22,SE,140,13.0,13.0,53,0.00,,---,0.00,VWS V14.00,2013-01-22 17:35:00,
2013-01-22 11:36:00,71.9,54.4,30.22,SE,140,11.0,15.0,54,0.00,,---,0.00,VWS V14.00,2013-01-22 17:36:00,
2013-01-22 11:37:00,72.2,55.2,30.22,SE,133,9.0,16.0,55,0.00,,---,0.00,VWS V14.00,2013-01-22 17:37:00,
2013-01-22 11:38:00,72.2,55.2,30.22,SE,132,15.0,15.0,55,0.00,,---,0.00,VWS V14.00,2013-01-22 17:38:00,
2013-01-22 11:39:00,72.1,54.6,30.22,SE,132,16.0,16.0,54,0.00,,---,0.00,VWS V14.00,2013-01-22 17:39:00,
2013-01-22 11:40:00,72.2,55.2,30.22,SE,133,9.0,16.0,55,0.00,,---,0.00,VWS V14.00,2013-01-22 17:40:00,
2013-01-22 11:41:00,72.1,54.0,30.22,SE,133,13.0,13.0,53,0.00,,---,0.00,VWS V14.00,2013-01-22 17:41:00,
2013-01-22 11:42:00,71.6,54.1,30.22,SSE,147,9.0,14.0,54,0.00,,---,0.00,VWS V14.00,2013-01-22 17:42:00,
2013-01-22 11:43:00,71.8,54.3,30.22,SE,140,15.0,15.0,54,0.00,,---,0.00,VWS V14.00,2013-01-22 17:43:00,
2013-01-22 11:44:00,71.6,53.1,30.22,SE,143,9.0,15.0,52,0.00,,---,0.00,VWS V14.00,2013-01-22 17:44:00,
2013-01-22 11:45:00,71.6,54.1,30.22,SSE,147,11.0,14.0,54,0.00,,---,0.00,VWS V14.00,2013-01-22 17:45:00,
2013-01-22 11:46:00,71.4,53.9,30.22,SSE,147,10.0,14.0,54,0.00,,---,0.00,VWS V14.00,2013-01-22 17:46:00,
2013-01-22 11:47:00,71.0,54.0,30.22,SE,136,8.0,11.0,55,0.00,,---,0.00,VWS V14.00,2013-01-22 17:47:00,
2013-01-22 11:48:00,71.3,54.3,30.22,SE,136,10.0,13.0,55,0.00,,---,0.00,VWS V14.00,2013-01-22 17:48:00,
2013-01-22 11:49:00,71.1,53.6,30.22,SE,136,7.0,13.0,54,0.00,,---,0.00,VWS V14.00,2013-01-22 17:49:00,
2013-01-22 11:50:00,71.0,54.0,30.22,SE,136,8.0,11.0,55,0.00,,---,0.00,VWS V14.00,2013-01-22 17:50:00,
2013-01-22 11:51:00,71.1,54.1,30.22,SE,136,10.0,13.0,55,0.00,,---,0.00,VWS V14.00,2013-01-22 17:51:00,
2013-01-22 11:52:00,71.4,53.9,30.22,SE,131,11.0,12.0,54,0.00,,---,0.00,VWS V14.00,2013-01-22 17:52:00,
2013-01-22 11:53:00,71.4,53.9,30.22,SE,132,14.0,15.0,54,0.00,,---,0.00,VWS V14.00,2013-01-22 17:53:00,
2013-01-22 11:54:00,71.4,53.9,30.22,SE,132,11.0,14.0,54,0.00,,---,0.00,VWS V14.00,2013-01-22 17:54:00,
2013-01-22 11:55:00,71.4,53.9,30.22,SE,131,11.0,12.0,54,0.00,,---,0.00,VWS V14.00,2013-01-22 17:55:00,
2013-01-22 11:56:00,71.5,54.5,30.22,SE,131,11.0,13.0,55,0.00,,---,0.00,VWS V14.00,2013-01-22 17:56:00,
2013-01-22 11:57:00,71.8,54.8,30.22,SE,127,14.0,15.0,55,0.00,,---,0.00,VWS V14.00,2013-01-22 17:57:00,
2013-01-22 11:58:00,71.7,55.2,30.22,SE,129,13.0,16.0,56,0.00,,---,0.00,VWS V14.00,2013-01-22 17:58:00,
2013-01-22 11:59:00,71.8,55.3,30.22,SE,125,13.0,16.0,56,0.00,,---,0.00,VWS V14.00,2013-01-22 17:59:00,
2013-01-22 12:00:00,71.8,54.8,30.22,SE,127,14.0,15.0,55,0.00,,---,0.00,VWS V14.00,2013-01-22 18:00:00,
2013-01-22 12:01:00,71.8,54.3,30.22,SE,125,12.0,17.0,54,0.00,,---,0.00,VWS V14.00,2013-01-22 18:01:00,
2013-01-22 12:02:00,72.1,55.6,30.22,ESE,114,16.0,16.0,56,0.00,,---,0.00,VWS V14.00,2013-01-22 18:02:00,
2013-01-22 12:03:00,71.9,54.4,30.21,ESE,117,14.0,16.0,54,0.00,,---,0.00,VWS V14.00,2013-01-22 18:03:00,
2013-01-22 12:04:00,71.9,54.9,30.22,ESE,117,13.0,14.0,55,0.00,,---,0.00,VWS V14.00,2013-01-22 18:04:00,
2013-01-22 12:05:00,72.1,55.6,30.22,ESE,114,16.0,16.0,56,0.00,,---,0.00,VWS V14.00,2013-01-22 18:05:00,
2013-01-22 12:06:00,72.3,55.2,30.21,ESE,111,9.0,16.0,55,0.00,,---,0.00,VWS V14.00,2013-01-22 18:06:00,
2013-01-22 12:07:00,72.5,55.4,30.21,ESE,113,11.0,16.0,55,0.00,,---,0.00,VWS V14.00,2013-01-22 18:07:00,
2013-01-22 12:08:00,72.4,54.8,30.21,ESE,119,12.0,14.0,54,0.00,,---,0.00,VWS V14.00,2013-01-22 18:08:00,
2013-01-22 12:09:00,72.4,54.8,30.21,SE,132,13.0,17.0,54,0.00,,---,0.00,VWS V14.00,2013-01-22 18:09:00,
2013-01-22 12:10:00,72.5,55.4,30.21,ESE,113,11.0,16.0,55,0.00,,---,0.00,VWS V14.00,2013-01-22 18:10:00,
2013-01-22 12:11:00,72.6,55.5,30.21,ESE,113,13.0,14.0,55,0.00,,---,0.00,VWS V14.00,2013-01-22 18:11:00,
2013-01-22 12:12:00,73.1,55.0,30.21,ESE,117,14.0,15.0,53,0.00,,---,0.00,VWS V14.00,2013-01-22 18:12:00,
2013-01-22 12:13:00,72.9,55.3,30.21,SE,131,13.0,15.0,54,0.00,,---,0.00,VWS V14.00,2013-01-22 18:13:00,
2013-01-22 12:14:00,73.0,55.4,30.21,SE,134,12.0,16.0,54,0.00,,---,0.00,VWS V14.00,2013-01-22 18:14:00,
2013-01-22 12:15:00,73.1,55.0,30.21,ESE,117,15.0,17.0,53,0.00,,---,0.00,VWS V14.00,2013-01-22 18:15:00,
2013-01-22 12:16:00,73.1,55.0,30.21,ESE,117,11.0,15.0,53,0.00,,---,0.00,VWS V14.00,2013-01-22 18:16:00,
2013-01-22 12:17:00,73.0,54.4,30.20,ESE,120,8.0,9.0,52,0.00,,---,0.00,VWS V14.00,2013-01-22 18:17:00,
2013-01-22 12:18:00,73.0,54.9,30.21,SE,132,12.0,17.0,53,0.00,,---,0.00,VWS V14.00,2013-01-22 18:18:00,
2013-01-22 12:19:00,73.0,55.4,30.21,ESE,122,14.0,15.0,54,0.00,,---,0.00,VWS V14.00,2013-01-22 18:19:00,
2013-01-22 12:20:00,73.0,54.4,30.20,ESE,121,9.0,14.0,52,0.00,,---,0.00,VWS V14.00,2013-01-22 18:20:00,
2013-01-22 12:21:00,72.9,54.8,30.20,ESE,120,12.0,15.0,53,0.00,,---,0.00,VWS V14.00,2013-01-22 18:21:00,
2013-01-22 12:22:00,71.8,53.8,30.20,SE,144,14.0,14.0,53,0.00,,---,0.00,VWS V14.00,2013-01-22 18:22:00,
2013-01-22 12:23:00,72.4,54.3,30.20,SE,127,11.0,14.0,53,0.00,,---,0.00,VWS V14.00,2013-01-22 18:23:00,
2013-01-22 12:24:00,72.1,54.0,30.20,SE,137,12.0,15.0,53,0.00,,---,0.00,VWS V14.00,2013-01-22 18:24:00,
2013-01-22 12:25:00,71.8,53.8,30.20,SE,144,14.0,18.0,53,0.00,,---,0.00,VWS V14.00,2013-01-22 18:25:00,
2013-01-22 12:26:00,71.7,54.2,30.20,SE,144,10.0,15.0,54,0.00,,---,0.00,VWS V14.00,2013-01-22 18:26:00,
2013-01-22 12:27:00,71.6,54.1,30.20,SE,128,11.0,15.0,54,0.00,,---,0.00,VWS V14.00,2013-01-22 18:27:00,
2013-01-22 12:28:00,71.6,54.1,30.20,SE,145,17.0,17.0,54,0.00,,---,0.00,VWS V14.00,2013-01-22 18:28:00,
2013-01-22 12:29:00,71.7,54.2,30.20,SE,128,13.0,17.0,54,0.00,,---,0.00,VWS V14.00,2013-01-22 18:29:00,
2013-01-22 12:30:00,71.6,54.1,30.20,SE,128,9.0,15.0,54,0.00,,---,0.00,VWS V14.00,2013-01-22 18:30:00,
2013-01-22 12:31:00,71.5,54.5,30.20,SE,128,16.0,16.0,55,0.00,,---,0.00,VWS V14.00,2013-01-22 18:31:00,
2013-01-22 12:32:00,71.9,53.9,30.19,ESE,123,14.0,15.0,53,0.00,,---,0.00,VWS V14.00,2013-01-22 18:32:00,
2013-01-22 12:33:00,71.6,53.1,30.19,SE,135,12.0,14.0,52,0.00,,---,0.00,VWS V14.00,2013-01-22 18:33:00,
2013-01-22 12:34:00,71.8,53.2,30.19,SE,128,17.0,17.0,52,0.00,,---,0.00,VWS V14.00,2013-01-22 18:34:00,
2013-01-22 12:35:00,71.9,53.9,30.19,ESE,123,15.0,17.0,53,0.00,,---,0.00,VWS V14.00,2013-01-22 18:35:00,
2013-01-22 12:36:00,72.0,54.5,30.19,ESE,122,12.0,15.0,54,0.00,,---,0.00,VWS V14.00,2013-01-22 18:36:00,
2013-01-22 12:37:00,72.4,53.8,30.19,SE,124,12.0,16.0,52,0.00,,---,0.00,VWS V14.00,2013-01-22 18:37:00,
2013-01-22 12:38:00,72.3,54.2,30.19,ESE,116,14.0,19.0,53,0.00,,---,0.00,VWS V14.00,2013-01-22 18:38:00,
2013-01-22 12:39:00,72.3,54.2,30.19,ESE,123,13.0,18.0,53,0.00,,---,0.00,VWS V14.00,2013-01-22 18:39:00,
2013-01-22 12:40:00,72.4,53.8,30.19,SE,124,12.0,16.0,52,0.00,,---,0.00,VWS V14.00,2013-01-22 18:40:00,
2013-01-22 12:41:00,72.5,53.9,30.19,SE,131,13.0,16.0,52,0.00,,---,0.00,VWS V14.00,2013-01-22 18:41:00,
2013-01-22 12:42:00,73.3,54.6,30.19,ESE,112,13.0,18.0,52,0.00,,---,0.00,VWS V14.00,2013-01-22 18:42:00,
2013-01-22 12:43:00,72.9,54.3,30.19,ESE,113,19.0,19.0,52,0.00,,---,0.00,VWS V14.00,2013-01-22 18:43:00,
2013-01-22 12:44:00,73.1,54.5,30.19,ESE,113,12.0,19.0,52,0.00,,---,0.00,VWS V14.00,2013-01-22 18:44:00,
2013-01-22 12:45:00,73.3,54.6,30.19,ESE,112,13.0,18.0,52,0.00,,---,0.00,VWS V14.00,2013-01-22 18:45:00,
2013-01-22 12:46:00,73.2,53.5,30.19,ESE,117,13.0,18.0,50,0.00,,---,0.00,VWS V14.00,2013-01-22 18:46:00,
2013-01-22 12:47:00,73.4,54.7,30.19,ESE,110,14.0,16.0,52,0.00,,---,0.00,VWS V14.00,2013-01-22 18:47:00,
2013-01-22 12:48:00,72.9,54.3,30.19,SE,131,12.0,15.0,52,0.00,,---,0.00,VWS V14.00,2013-01-22 18:48:00,
2013-01-22 12:49:00,73.1,55.0,30.19,SE,132,13.0,19.0,53,0.00,,---,0.00,VWS V14.00,2013-01-22 18:49:00,
2013-01-22 12:50:00,73.4,54.7,30.19,ESE,110,14.0,16.0,52,0.00,,---,0.00,VWS V14.00,2013-01-22 18:50:00,
2013-01-22 12:51:00,73.4,54.2,30.19,ESE,109,12.0,18.0,51,0.00,,---,0.00,VWS V14.00,2013-01-22 18:51:00,
2013-01-22 12:52:00,73.4,54.2,30.18,ESE,103,14.0,15.0,51,0.00,,---,0.00,VWS V14.00,2013-01-22 18:52:00,
2013-01-22 12:53:00,73.1,53.9,30.19,ESE,107,13.0,22.0,51,0.00,,---,0.00,VWS V14.00,2013-01-22 18:53:00,
2013-01-22 12:54:00,73.2,54.0,30.18,ESE,103,9.0,15.0,51,0.00,,---,0.00,VWS V14.00,2013-01-22 18:54:00,
2013-01-22 12:55:00,73.4,54.2,30.18,ESE,103,12.0,15.0,51,0.00,,---,0.00,VWS V14.00,2013-01-22 18:55:00,
2013-01-22 12:56:00,73.3,54.1,30.18,SE,144,12.0,17.0,51,0.00,,---,0.00,VWS V14.00,2013-01-22 18:56:00,
2013-01-22 12:57:00,73.0,53.8,30.18,SE,126,14.0,18.0,51,0.00,,---,0.00,VWS V14.00,2013-01-22 18:57:00,
2013-01-22 12:58:00,73.2,53.5,30.18,SE,136,11.0,14.0,50,0.00,,---,0.00,VWS V14.00,2013-01-22 18:58:00,
2013-01-22 12:59:00,73.1,53.9,30.18,SE,129,11.0,16.0,51,0.00,,---,0.00,VWS V14.00,2013-01-22 18:59:00,
2013-01-22 13:00:00,73.0,53.8,30.18,SE,126,14.0,18.0,51,0.00,,---,0.00,VWS V14.00,2013-01-22 19:00:00,
2013-01-22 13:01:00,73.0,54.4,30.18,ESE,117,13.0,19.0,52,0.00,,---,0.00,VWS V14.00,2013-01-22 19:01:00,
2013-01-22 13:02:00,73.0,54.4,30.18,East,101,13.0,16.0,52,0.00,,---,0.00,VWS V14.00,2013-01-22 19:02:00,
2013-01-22 13:03:00,72.8,53.6,30.18,ESE,119,11.0,13.0,51,0.00,,---,0.00,VWS V14.00,2013-01-22 19:03:00,
2013-01-22 13:04:00,72.8,54.2,30.18,ESE,103,16.0,16.0,52,0.00,,---,0.00,VWS V14.00,2013-01-22 19:04:00,
2013-01-22 13:05:00,73.0,54.4,30.18,East,101,13.0,16.0,52,0.00,,---,0.00,VWS V14.00,2013-01-22 19:05:00,
2013-01-22 13:06:00,73.2,54.5,30.18,SE,128,13.0,17.0,52,0.00,,---,0.00,VWS V14.00,2013-01-22 19:06:00,
2013-01-22 13:07:00,73.0,54.4,30.17,ESE,113,15.0,15.0,52,0.00,,---,0.00,VWS V14.00,2013-01-22 19:07:00,
2013-01-22 13:08:00,73.3,54.6,30.18,SE,138,11.0,17.0,52,0.00,,---,0.00,VWS V14.00,2013-01-22 19:08:00,
2013-01-22 13:09:00,73.0,53.8,30.17,SE,141,10.0,17.0,51,0.00,,---,0.00,VWS V14.00,2013-01-22 19:09:00,
2013-01-22 13:10:00,73.0,54.4,30.17,ESE,113,15.0,15.0,52,0.00,,---,0.00,VWS V14.00,2013-01-22 19:10:00,
2013-01-22 13:11:00,72.9,53.7,30.17,ESE,115,15.0,15.0,51,0.00,,---,0.00,VWS V14.00,2013-01-22 19:11:00,
2013-01-22 13:12:00,72.2,52.5,30.17,SE,133,13.0,17.0,50,0.00,,---,0.00,VWS V14.00,2013-01-22 19:12:00,
2013-01-22 13:13:00,72.7,54.1,30.17,SE,132,16.0,18.0,52,0.00,,---,0.00,VWS V14.00,2013-01-22 19:13:00,
2013-01-22 13:14:00,72.5,52.8,30.17,SE,124,9.0,18.0,50,0.00,,---,0.00,VWS V14.00,2013-01-22 19:14:00,
2013-01-22 13:15:00,72.2,52.5,30.17,SE,133,13.0,17.0,50,0.00,,---,0.00,VWS V14.00,2013-01-22 19:15:00,
2013-01-22 13:16:00,72.0,52.9,30.17,SE,132,15.0,15.0,51,0.00,,---,0.00,VWS V14.00,2013-01-22 19:16:00,
2013-01-22 13:17:00,72.0,52.9,30.17,ESE,121,13.0,18.0,51,0.00,,---,0.00,VWS V14.00,2013-01-22 19:17:00,
2013-01-22 13:18:00,72.1,53.0,30.17,ESE,115,13.0,19.0,51,0.00,,---,0.00,VWS V14.00,2013-01-22 19:18:00,
2013-01-22 13:19:00,72.0,52.4,30.17,ESE,117,16.0,18.0,50,0.00,,---,0.00,VWS V14.00,2013-01-22 19:19:00,
2013-01-22 13:20:00,72.0,52.9,30.17,ESE,121,13.0,18.0,51,0.00,,---,0.00,VWS V14.00,2013-01-22 19:20:00,
2013-01-22 13:21:00,72.0,52.4,30.17,SE,140,14.0,17.0,50,0.00,,---,0.00,VWS V14.00,2013-01-22 19:21:00,
2013-01-22 13:22:00,71.9,51.7,30.17,SE,136,17.0,17.0,49,0.00,,---,0.00,VWS V14.00,2013-01-22 19:22:00,
2013-01-22 13:23:00,71.9,52.3,30.17,SE,130,15.0,19.0,50,0.00,,---,0.00,VWS V14.00,2013-01-22 19:23:00,
2013-01-22 13:24:00,71.9,52.8,30.17,SE,128,13.0,18.0,51,0.00,,---,0.00,VWS V14.00,2013-01-22 19:24:00,
2013-01-22 13:25:00,71.9,51.7,30.17,SE,136,17.0,17.0,49,0.00,,---,0.00,VWS V14.00,2013-01-22 19:25:00,
2013-01-22 13:26:00,71.9,52.8,30.17,SE,134,13.0,18.0,51,0.00,,---,0.00,VWS V14.00,2013-01-22 19:26:00,
2013-01-22 13:27:00,71.9,52.3,30.17,ESE,113,13.0,18.0,50,0.00,,---,0.00,VWS V14.00,2013-01-22 19:27:00,
2013-01-22 13:28:00,71.9,51.7,30.17,SE,124,17.0,20.0,49,0.00,,---,0.00,VWS V14.00,2013-01-22 19:28:00,
2013-01-22 13:29:00,71.9,52.3,30.17,ESE,123,16.0,18.0,50,0.00,,---,0.00,VWS V14.00,2013-01-22 19:29:00,
2013-01-22 13:30:00,71.9,52.3,30.17,ESE,113,15.0,18.0,50,0.00,,---,0.00,VWS V14.00,2013-01-22 19:30:00,
2013-01-22 13:31:00,71.8,52.7,30.17,SE,130,14.0,19.0,51,0.00,,---,0.00,VWS V14.00,2013-01-22 19:31:00,
2013-01-22 13:32:00,71.9,52.3,30.16,SE,137,11.0,17.0,50,0.00,,---,0.00,VWS V14.00,2013-01-22 19:32:00,
2013-01-22 13:33:00,71.7,52.6,30.16,SE,136,11.0,13.0,51,0.00,,---,0.00,VWS V14.00,2013-01-22 19:33:00,
2013-01-22 13:34:00,71.8,52.2,30.16,SE,131,13.0,16.0,50,0.00,,---,0.00,VWS V14.00,2013-01-22 19:34:00,
2013-01-22 13:35:00,71.9,52.3,30.16,SE,137,11.0,17.0,50,0.00,,---,0.00,VWS V14.00,2013-01-22 19:35:00,
2013-01-22 13:36:00,71.9,52.3,30.17,SE,130,13.0,13.0,50,0.00,,---,0.00,VWS V14.00,2013-01-22 19:36:00,
2013-01-22 13:37:00,71.7,52.1,30.16,ESE,122,11.0,16.0,50,0.00,,---,0.00,VWS V14.00,2013-01-22 19:37:00,
2013-01-22 13:38:00,71.8,52.7,30.16,SE,140,17.0,17.0,51,0.00,,---,0.00,VWS V14.00,2013-01-22 19:38:00,
2013-01-22 13:39:00,71.7,52.1,30.16,SE,135,10.0,17.0,50,0.00,,---,0.00,VWS V14.00,2013-01-22 19:39:00,
2013-01-22 13:40:00,71.7,52.1,30.16,ESE,122,11.0,16.0,50,0.00,,---,0.00,VWS V14.00,2013-01-22 19:40:00,
2013-01-22 13:41:00,71.7,52.1,30.16,ESE,121,13.0,20.0,50,0.00,,---,0.00,VWS V14.00,2013-01-22 19:41:00,
2013-01-22 13:42:00,71.9,52.3,30.16,SE,126,11.0,16.0,50,0.00,,---,0.00,VWS V14.00,2013-01-22 19:42:00,
2013-01-22 13:43:00,71.8,52.2,30.16,ESE,113,12.0,15.0,50,0.00,,---,0.00,VWS V14.00,2013-01-22 19:43:00,
2013-01-22 13:44:00,71.9,52.3,30.16,SE,126,11.0,20.0,50,0.00,,---,0.00,VWS V14.00,2013-01-22 19:44:00,
2013-01-22 13:45:00,71.9,52.3,30.16,SE,126,11.0,16.0,50,0.00,,---,0.00,VWS V14.00,2013-01-22 19:45:00,
2013-01-22 13:46:00,71.8,51.6,30.16,SE,124,12.0,16.0,49,0.00,,---,0.00,VWS V14.00,2013-01-22 19:46:00,
2013-01-22 13:47:00,71.8,52.2,30.16,ESE,118,12.0,19.0,50,0.00,,---,0.00,VWS V14.00,2013-01-22 19:47:00,
2013-01-22 13:48:00,71.8,52.7,30.17,ESE,121,9.0,18.0,51,0.00,,---,0.00,VWS V14.00,2013-01-22 19:48:00,
2013-01-22 13:49:00,71.7,52.1,30.16,SE,125,12.0,13.0,50,0.00,,---,0.00,VWS V14.00,2013-01-22 19:49:00,
2013-01-22 13:50:00,71.8,52.2,30.16,ESE,118,12.0,19.0,50,0.00,,---,0.00,VWS V14.00,2013-01-22 19:50:00,
2013-01-22 13:51:00,72.0,51.3,30.16,SE,126,17.0,17.0,48,0.00,,---,0.00,VWS V14.00,2013-01-22 19:51:00,
2013-01-22 13:52:00,72.2,52.0,30.16,ESE,122,16.0,16.0,49,0.00,,---,0.00,VWS V14.00,2013-01-22 19:52:00,
2013-01-22 13:53:00,72.1,51.3,30.16,ESE,122,12.0,14.0,48,0.00,,---,0.00,VWS V14.00,2013-01-22 19:53:00,
2013-01-22 13:54:00,72.2,52.0,30.16,SE,128,9.0,13.0,49,0.00,,---,0.00,VWS V14.00,2013-01-22 19:54:00,
2013-01-22 13:55:00,72.2,52.0,30.16,ESE,122,16.0,16.0,49,0.00,,---,0.00,VWS V14.00,2013-01-22 19:55:00,
2013-01-22 13:56:00,72.2,52.0,30.16,ESE,118,15.0,18.0,49,0.00,,---,0.00,VWS V14.00,2013-01-22 19:56:00,
2013-01-22 13:57:00,72.1,53.0,30.16,SE,134,9.0,17.0,51,0.00,,---,0.00,VWS V14.00,2013-01-22 19:57:00,
2013-01-22 13:58:00,72.1,52.5,30.16,SE,125,14.0,16.0,50,0.00,,---,0.00,VWS V14.00,2013-01-22 19:58:00,
2013-01-22 13:59:00,72.0,52.4,30.16,SE,142,11.0,14.0,50,0.00,,---,0.00,VWS V14.00,2013-01-22 19:59:00,
2013-01-22 14:00:00,72.1,53.0,30.16,SE,134,9.0,17.0,51,0.00,,---,0.00,VWS V14.00,2013-01-22 20:00:00,
2013-01-22 14:01:00,72.2,53.6,30.16,SE,132,14.0,16.0,52,0.00,,---,0.00,VWS V14.00,2013-01-22 20:01:00,
2013-01-22 14:02:00,72.3,53.2,30.16,SE,135,14.0,15.0,51,0.00,,---,0.00,VWS V14.00,2013-01-22 20:02:00,
2013-01-22 14:03:00,72.4,52.7,30.16,SE,137,12.0,14.0,50,0.00,,---,0.00,VWS V14.00,2013-01-22 20:03:00,
2013-01-22 14:04:00,72.3,52.6,30.16,SE,138,9.0,12.0,50,0.00,,---,0.00,VWS V14.00,2013-01-22 20:04:00,
2013-01-22 14:05:00,72.3,53.2,30.16,SE,135,14.0,15.0,51,0.00,,---,0.00,VWS V14.00,2013-01-22 20:05:00,
2013-01-22 14:06:00,72.4,52.7,30.16,SE,140,14.0,17.0,50,0.00,,---,0.00,VWS V14.00,2013-01-22 20:06:00,
2013-01-22 14:07:00,73.0,52.2,30.16,ESE,123,16.0,16.0,48,0.00,,---,0.00,VWS V14.00,2013-01-22 20:07:00,
2013-01-22 14:08:00,72.7,51.9,30.16,ESE,122,14.0,17.0,48,0.00,,---,0.00,VWS V14.00,2013-01-22 20:08:00,
2013-01-22 14:09:00,72.8,52.5,30.16,SE,138,14.0,17.0,49,0.00,,---,0.00,VWS V14.00,2013-01-22 20:09:00,
2013-01-22 14:10:00,73.0,52.2,30.16,ESE,123,16.0,16.0,48,0.00,,---,0.00,VWS V14.00,2013-01-22 20:10:00,
2013-01-22 14:11:00,73.0,52.7,30.16,ESE,123,14.0,17.0,49,0.00,,---,0.00,VWS V14.00,2013-01-22 20:11:00,
2013-01-22 14:12:00,72.8,52.5,30.16,ESE,115,11.0,15.0,49,0.00,,---,0.00,VWS V14.00,2013-01-22 20:12:00,
2013-01-22 14:13:00,72.8,52.5,30.16,SE,134,9.0,13.0,49,0.00,,---,0.00,VWS V14.00,2013-01-22 20:13:00,
2013-01-22 14:14:00,72.9,52.6,30.16,ESE,117,13.0,18.0,49,0.00,,---,0.00,VWS V14.00,2013-01-22 20:14:00,
2013-01-22 14:15:00,72.8,52.5,30.16,ESE,115,13.0,15.0,49,0.00,,---,0.00,VWS V14.00,2013-01-22 20:15:00,
2013-01-22 14:16:00,72.6,52.9,30.16,ESE,112,15.0,15.0,50,0.00,,---,0.00,VWS V14.00,2013-01-22 20:16:00,
2013-01-22 14:17:00,72.6,52.9,30.16,SE,138,12.0,13.0,50,0.00,,---,0.00,VWS V14.00,2013-01-22 20:17:00,
2013-01-22 14:18:00,72.6,51.8,30.16,SE,125,13.0,16.0,48,0.00,,---,0.00,VWS V14.00,2013-01-22 20:18:00,
2013-01-22 14:19:00,72.5,52.3,30.16,SE,138,12.0,17.0,49,0.00,,---,0.00,VWS V14.00,2013-01-22 20:19:00,
2013-01-22 14:20:00,72.6,52.9,30.16,SE,138,12.0,13.0,50,0.00,,---,0.00,VWS V14.00,2013-01-22 20:20:00,
2013-01-22 14:21:00,72.5,52.8,30.16,SE,133,15.0,15.0,50,0.00,,---,0.00,VWS V14.00,2013-01-22 20:21:00,
2013-01-22 14:22:00,72.8,52.5,30.16,ESE,114,13.0,15.0,49,0.00,,---,0.00,VWS V14.00,2013-01-22 20:22:00,
2013-01-22 14:23:00,72.6,53.5,30.16,ESE,105,9.0,16.0,51,0.00,,---,0.00,VWS V14.00,2013-01-22 20:23:00,
2013-01-22 14:24:00,72.8,53.1,30.16,ESE,108,11.0,18.0,50,0.00,,---,0.00,VWS V14.00,2013-01-22 20:24:00,
2013-01-22 14:25:00,72.8,52.5,30.16,ESE,114,11.0,15.0,49,0.00,,---,0.00,VWS V14.00,2013-01-22 20:25:00,
2013-01-22 14:26:00,72.9,53.2,30.16,SE,140,14.0,19.0,50,0.00,,---,0.00,VWS V14.00,2013-01-22 20:26:00,
2013-01-22 14:27:00,73.4,52.5,30.15,ESE,104,11.0,15.0,48,0.00,,---,0.00,VWS V14.00,2013-01-22 20:27:00,
2013-01-22 14:28:00,73.0,53.3,30.15,SE,128,11.0,15.0,50,0.00,,---,0.00,VWS V14.00,2013-01-22 20:28:00,
2013-01-22 14:29:00,73.3,53.6,30.16,ESE,112,15.0,18.0,50,0.00,,---,0.00,VWS V14.00,2013-01-22 20:29:00,
2013-01-22 14:30:00,73.4,52.5,30.15,ESE,104,13.0,15.0,48,0.00,,---,0.00,VWS V14.00,2013-01-22 20:30:00,
2013-01-22 14:31:00,73.4,52.5,30.15,ESE,105,15.0,15.0,48,0.00,,---,0.00,VWS V14.00,2013-01-22 20:31:00,
2013-01-22 14:32:00,73.3,53.6,30.15,ESE,118,13.0,14.0,50,0.00,,---,0.00,VWS V14.00,2013-01-22 20:32:00,
2013-01-22 14:33:00,73.4,52.5,30.16,ESE,109,11.0,15.0,48,0.00,,---,0.00,VWS V14.00,2013-01-22 20:33:00,
2013-01-22 14:34:00,73.3,53.0,30.16,ESE,110,9.0,11.0,49,0.00,,---,0.00,VWS V14.00,2013-01-22 20:34:00,
2013-01-22 14:35:00,73.3,53.6,30.15,ESE,118,13.0,14.0,50,0.00,,---,0.00,VWS V14.00,2013-01-22 20:35:00,
2013-01-22 14:36:00,73.5,53.7,30.15,SE,133,13.0,17.0,50,0.00,,---,0.00,VWS V14.00,2013-01-22 20:36:00,
2013-01-22 14:37:00,73.1,53.9,30.15,SE,135,10.0,11.0,51,0.00,,---,0.00,VWS V14.00,2013-01-22 20:37:00,
2013-01-22 14:38:00,73.3,53.0,30.15,SE,135,12.0,14.0,49,0.00,,---,0.00,VWS V14.00,2013-01-22 20:38:00,
2013-01-22 14:39:00,73.2,54.0,30.15,SE,135,9.0,12.0,51,0.00,,---,0.00,VWS V14.00,2013-01-22 20:39:00,
2013-01-22 14:40:00,73.1,53.9,30.15,SE,135,10.0,11.0,51,0.00,,---,0.00,VWS V14.00,2013-01-22 20:40:00,
2013-01-22 14:41:00,73.1,53.9,30.15,SE,140,13.0,18.0,51,0.00,,---,0.00,VWS V14.00,2013-01-22 20:41:00,
2013-01-22 14:42:00,72.5,53.4,30.15,SE,142,15.0,15.0,51,0.00,,---,0.00,VWS V14.00,2013-01-22 20:42:00,
2013-01-22 14:43:00,72.9,53.7,30.15,SE,130,14.0,16.0,51,0.00,,---,0.00,VWS V14.00,2013-01-22 20:43:00,
2013-01-22 14:44:00,72.8,53.6,30.15,SE,143,13.0,14.0,51,0.00,,---,0.00,VWS V14.00,2013-01-22 20:44:00,
2013-01-22 14:45:00,72.5,53.4,30.15,SE,142,15.0,15.0,51,0.00,,---,0.00,VWS V14.00,2013-01-22 20:45:00,
2013-01-22 14:46:00,72.4,53.3,30.15,SE,144,12.0,17.0,51,0.00,,---,0.00,VWS V14.00,2013-01-22 20:46:00,
2013-01-22 14:47:00,72.0,53.4,30.15,SE,144,11.0,13.0,52,0.00,,---,0.00,VWS V14.00,2013-01-22 20:47:00,
2013-01-22 14:48:00,72.1,53.5,30.15,SE,142,15.0,15.0,52,0.00,,---,0.00,VWS V14.00,2013-01-22 20:48:00,
2013-01-22 14:49:00,72.1,53.5,30.15,SE,144,11.0,17.0,52,0.00,,---,0.00,VWS V14.00,2013-01-22 20:49:00,
2013-01-22 14:50:00,72.0,53.4,30.15,SE,144,11.0,13.0,52,0.00,,---,0.00,VWS V14.00,2013-01-22 20:50:00,
2013-01-22 14:51:00,71.9,52.8,30.15,SSE,147,12.0,13.0,51,0.00,,---,0.00,VWS V14.00,2013-01-22 20:51:00,
2013-01-22 14:52:00,71.7,53.2,30.15,ESE,123,12.0,17.0,52,0.00,,---,0.00,VWS V14.00,2013-01-22 20:52:00,
2013-01-22 14:53:00,71.8,52.7,30.15,SE,144,13.0,15.0,51,0.00,,---,0.00,VWS V14.00,2013-01-22 20:53:00,
2013-01-22 14:54:00,71.8,53.2,30.15,SE,134,14.0,19.0,52,0.00,,---,0.00,VWS V14.00,2013-01-22 20:54:00,
2013-01-22 14:55:00,71.7,53.2,30.15,ESE,123,12.0,17.0,52,0.00,,---,0.00,VWS V14.00,2013-01-22 20:55:00,
2013-01-22 14:56:00,71.5,52.4,30.15,SE,132,11.0,16.0,51,0.00,,---,0.00,VWS V14.00,2013-01-22 20:56:00,
2013-01-22 14:57:00,71.9,53.3,30.15,SE,132,12.0,17.0,52,0.00,,---,0.00,VWS V14.00,2013-01-22 20:57:00,
2013-01-22 14:58:00,71.7,53.2,30.15,SE,138,12.0,18.0,52,0.00,,---,0.00,VWS V14.00,2013-01-22 20:58:00,
2013-01-22 14:59:00,71.8,53.2,30.15,SE,127,12.0,17.0,52,0.00,,---,0.00,VWS V14.00,2013-01-22 20:59:00,
2013-01-22 15:00:00,71.9,53.3,30.15,SE,132,12.0,17.0,52,0.00,,---,0.00,VWS V14.00,2013-01-22 21:00:00,
2013-01-22 15:01:00,71.8,52.7,30.15,SE,132,9.0,14.0,51,0.00,,---,0.00,VWS V14.00,2013-01-22 21:01:00,
2013-01-22 15:02:00,71.8,52.7,30.15,SE,142,14.0,14.0,51,0.00,,---,0.00,VWS V14.00,2013-01-22 21:02:00,
2013-01-22 15:03:00,71.9,53.3,30.15,SE,132,13.0,15.0,52,0.00,,---,0.00,VWS V14.00,2013-01-22 21:03:00,
2013-01-22 15:04:00,71.8,52.7,30.15,SE,134,12.0,15.0,51,0.00,,---,0.00,VWS V14.00,2013-01-22 21:04:00,
2013-01-22 15:05:00,71.8,52.7,30.15,SE,143,11.0,15.0,51,0.00,,---,0.00,VWS V14.00,2013-01-22 21:05:00,
2013-01-22 15:06:00,71.8,52.7,30.15,SE,138,14.0,15.0,51,0.00,,---,0.00,VWS V14.00,2013-01-22 21:06:00,
2013-01-22 15:07:00,71.8,52.7,30.15,SE,130,13.0,13.0,51,0.00,,---,0.00,VWS V14.00,2013-01-22 21:07:00,
2013-01-22 15:08:00,71.8,52.7,30.15,SE,133,12.0,15.0,51,0.00,,---,0.00,VWS V14.00,2013-01-22 21:08:00,
2013-01-22 15:09:00,71.8,52.7,30.15,SE,130,11.0,16.0,51,0.00,,---,0.00,VWS V14.00,2013-01-22 21:09:00,
2013-01-22 15:10:00,71.8,52.7,30.15,SE,132,12.0,15.0,51,0.00,,---,0.00,VWS V14.00,2013-01-22 21:10:00,
2013-01-22 15:11:00,71.9,52.8,30.15,SE,131,14.0,16.0,51,0.00,,---,0.00,VWS V14.00,2013-01-22 21:11:00,
2013-01-22 15:12:00,71.8,52.7,30.15,SE,129,9.0,15.0,51,0.00,,---,0.00,VWS V14.00,2013-01-22 21:12:00,
2013-01-22 15:13:00,71.6,53.6,30.15,SE,144,12.0,12.0,53,0.00,,---,0.00,VWS V14.00,2013-01-22 21:13:00,
2013-01-22 15:14:00,71.7,53.7,30.15,SE,138,11.0,16.0,53,0.00,,---,0.00,VWS V14.00,2013-01-22 21:14:00,
2013-01-22 15:15:00,71.6,53.6,30.15,SE,142,10.0,13.0,53,0.00,,---,0.00,VWS V14.00,2013-01-22 21:15:00,
2013-01-22 15:16:00,71.7,53.7,30.15,SE,139,13.0,17.0,53,0.00,,---,0.00,VWS V14.00,2013-01-22 21:16:00,
2013-01-22 15:18:00,71.5,53.0,30.15,SE,138,14.0,14.0,52,0.00,,---,0.00,VWS V14.00,2013-01-22 21:18:00,
2013-01-22 15:19:00,71.6,52.5,30.15,SE,138,15.0,19.0,51,0.00,,---,0.00,VWS V14.00,2013-01-22 21:19:00,
2013-01-22 15:20:00,71.5,53.0,30.15,SE,138,11.0,15.0,52,0.00,,---,0.00,VWS V14.00,2013-01-22 21:20:00,
2013-01-22 15:21:00,71.4,52.9,30.15,SE,137,15.0,15.0,52,0.00,,---,0.00,VWS V14.00,2013-01-22 21:21:00,
2013-01-22 15:22:00,71.4,52.9,30.15,SE,130,12.0,15.0,52,0.00,,---,0.00,VWS V14.00,2013-01-22 21:22:00,
2013-01-22 15:23:00,71.2,53.2,30.15,SE,140,9.0,9.0,53,0.00,,---,0.00,VWS V14.00,2013-01-22 21:23:00,
2013-01-22 15:24:00,71.3,53.3,30.15,SE,135,12.0,17.0,53,0.00,,---,0.00,VWS V14.00,2013-01-22 21:24:00,
2013-01-22 15:25:00,71.2,53.2,30.15,SE,140,9.0,13.0,53,0.00,,---,0.00,VWS V14.00,2013-01-22 21:25:00,
2013-01-22 15:26:00,71.2,53.7,30.15,SSE,150,14.0,14.0,54,0.00,,---,0.00,VWS V14.00,2013-01-22 21:26:00,
2013-01-22 15:27:00,71.3,53.8,30.15,SE,146,12.0,15.0,54,0.00,,---,0.00,VWS V14.00,2013-01-22 21:27:00,
2013-01-22 15:28:00,71.4,53.4,30.15,SE,138,12.0,15.0,53,0.00,,---,0.00,VWS V14.00,2013-01-22 21:28:00,
2013-01-22 15:29:00,71.4,53.4,30.15,SE,136,13.0,15.0,53,0.00,,---,0.00,VWS V14.00,2013-01-22 21:29:00,
2013-01-22 15:30:00,71.4,53.4,30.15,SE,138,14.0,18.0,53,0.00,,---,0.00,VWS V14.00,2013-01-22 21:30:00,
2013-01-22 15:31:00,71.4,53.9,30.15,SE,143,12.0,14.0,54,0.00,,---,0.00,VWS V14.00,2013-01-22 21:31:00,
2013-01-22 15:32:00,71.3,53.8,30.15,SE,141,14.0,17.0,54,0.00,,---,0.00,VWS V14.00,2013-01-22 21:32:00,
2013-01-22 15:33:00,71.3,53.3,30.15,SE,143,12.0,15.0,53,0.00,,---,0.00,VWS V14.00,2013-01-22 21:33:00,
2013-01-22 15:34:00,71.3,53.8,30.15,SE,137,12.0,14.0,54,0.00,,---,0.00,VWS V14.00,2013-01-22 21:34:00,
2013-01-22 15:35:00,71.4,53.9,30.15,SE,142,10.0,17.0,54,0.00,,---,0.00,VWS V14.00,2013-01-22 21:35:00,
2013-01-22 15:36:00,71.5,54.0,30.15,SE,136,9.0,14.0,54,0.00,,---,0.00,VWS V14.00,2013-01-22 21:36:00,
2013-01-22 15:37:00,71.4,53.9,30.15,SE,143,12.0,18.0,54,0.00,,---,0.00,VWS V14.00,2013-01-22 21:37:00,
2013-01-22 15:38:00,71.5,54.0,30.15,SE,140,14.0,17.0,54,0.00,,---,0.00,VWS V14.00,2013-01-22 21:38:00,
2013-01-22 15:39:00,71.5,54.0,30.15,SE,135,12.0,15.0,54,0.00,,---,0.00,VWS V14.00,2013-01-22 21:39:00,
2013-01-22 15:40:00,71.6,54.1,30.15,SE,138,12.0,14.0,54,0.00,,---,0.00,VWS V14.00,2013-01-22 21:40:00,
2013-01-22 15:41:00,71.6,54.6,30.15,SE,144,10.0,13.0,55,0.00,,---,0.00,VWS V14.00,2013-01-22 21:41:00,
2013-01-22 15:42:00,71.7,54.2,30.15,ESE,121,11.0,15.0,54,0.00,,---,0.00,VWS V14.00,2013-01-22 21:42:00,
2013-01-22 15:43:00,71.6,54.6,30.15,SE,138,9.0,17.0,55,0.00,,---,0.00,VWS V14.00,2013-01-22 21:43:00,
2013-01-22 15:44:00,71.6,54.6,30.15,SE,144,12.0,13.0,55,0.00,,---,0.00,VWS V14.00,2013-01-22 21:44:00,
2013-01-22 15:45:00,71.7,54.2,30.15,SE,146,14.0,15.0,54,0.00,,---,0.00,VWS V14.00,2013-01-22 21:45:00,
2013-01-22 15:46:00,71.3,53.8,30.15,SE,142,11.0,13.0,54,0.00,,---,0.00,VWS V14.00,2013-01-22 21:46:00,
2013-01-22 15:47:00,71.5,53.5,30.15,SE,142,14.0,18.0,53,0.00,,---,0.00,VWS V14.00,2013-01-22 21:47:00,
2013-01-22 15:48:00,71.4,53.9,30.15,SE,143,11.0,17.0,54,0.00,,---,0.00,VWS V14.00,2013-01-22 21:48:00,
2013-01-22 15:49:00,71.3,53.8,30.15,SE,142,11.0,13.0,54,0.00,,---,0.00,VWS V14.00,2013-01-22 21:49:00,
2013-01-22 15:50:00,71.2,54.2,30.15,SE,141,10.0,11.0,55,0.00,,---,0.00,VWS V14.00,2013-01-22 21:50:00,
2013-01-22 15:51:00,71.0,54.0,30.15,SE,138,11.0,15.0,55,0.00,,---,0.00,VWS V14.00,2013-01-22 21:51:00,
2013-01-22 15:52:00,71.2,54.2,30.15,ESE,123,16.0,18.0,55,0.00,,---,0.00,VWS V14.00,2013-01-22 21:52:00,
2013-01-22 15:53:00,71.1,54.1,30.15,SE,138,13.0,16.0,55,0.00,,---,0.00,VWS V14.00,2013-01-22 21:53:00,
2013-01-22 15:54:00,70.9,54.0,30.15,SE,138,12.0,15.0,55,0.00,,---,0.00,VWS V14.00,2013-01-22 21:54:00,
2013-01-22 15:55:00,70.8,53.8,30.15,SE,138,11.0,13.0,55,0.00,,---,0.00,VWS V14.00,2013-01-22 21:55:00,
2013-01-22 15:56:00,70.7,54.2,30.15,SE,143,9.0,15.0,56,0.00,,---,0.00,VWS V14.00,2013-01-22 21:56:00,
2013-01-22 15:57:00,70.8,53.8,30.15,SE,134,16.0,18.0,55,0.00,,---,0.00,VWS V14.00,2013-01-22 21:57:00,
2013-01-22 15:58:00,70.7,53.8,30.15,SE,140,11.0,17.0,55,0.00,,---,0.00,VWS V14.00,2013-01-22 21:58:00,
2013-01-22 15:59:00,70.7,54.2,30.15,SE,143,9.0,15.0,56,0.00,,---,0.00,VWS V14.00,2013-01-22 21:59:00,
2013-01-22 16:00:00,70.6,54.2,30.15,SE,138,10.0,15.0,56,0.00,,---,0.00,VWS V14.00,2013-01-22 22:00:00,
2013-01-22 16:01:00,70.3,53.9,30.15,SE,134,14.0,18.0,56,0.00,,---,0.00,VWS V14.00,2013-01-22 22:01:00,
2013-01-22 16:02:00,70.5,53.6,30.15,SE,135,14.0,15.0,55,0.00,,---,0.00,VWS V14.00,2013-01-22 22:02:00,
2013-01-22 16:03:00,70.4,54.0,30.15,SE,134,14.0,16.0,56,0.00,,---,0.00,VWS V14.00,2013-01-22 22:03:00,
2013-01-22 16:04:00,70.3,53.9,30.15,SE,134,14.0,18.0,56,0.00,,---,0.00,VWS V14.00,2013-01-22 22:04:00,
2013-01-22 16:05:00,70.2,54.3,30.15,SE,135,10.0,14.0,57,0.00,,---,0.00,VWS V14.00,2013-01-22 22:05:00,
2013-01-22 16:06:00,70.3,54.4,30.15,ESE,122,9.0,14.0,57,0.00,,---,0.00,VWS V14.00,2013-01-22 22:06:00,
2013-01-22 16:07:00,70.3,54.4,30.15,SE,132,14.0,14.0,57,0.00,,---,0.00,VWS V14.00,2013-01-22 22:07:00,
2013-01-22 16:08:00,70.3,53.9,30.15,SE,130,11.0,15.0,56,0.00,,---,0.00,VWS V14.00,2013-01-22 22:08:00,
2013-01-22 16:09:00,70.3,54.4,30.15,ESE,122,9.0,14.0,57,0.00,,---,0.00,VWS V14.00,2013-01-22 22:09:00,
2013-01-22 16:10:00,70.3,54.4,30.15,SE,124,12.0,15.0,57,0.00,,---,0.00,VWS V14.00,2013-01-22 22:10:00,
2013-01-22 16:11:00,70.2,54.3,30.15,ESE,121,11.0,14.0,57,0.00,,---,0.00,VWS V14.00,2013-01-22 22:11:00,
2013-01-22 16:12:00,70.3,54.4,30.15,SE,127,11.0,14.0,57,0.00,,---,0.00,VWS V14.00,2013-01-22 22:12:00,
2013-01-22 16:13:00,70.2,54.3,30.15,SE,126,11.0,13.0,57,0.00,,---,0.00,VWS V14.00,2013-01-22 22:13:00,
2013-01-22 16:14:00,70.2,54.3,30.15,ESE,121,11.0,14.0,57,0.00,,---,0.00,VWS V14.00,2013-01-22 22:14:00,
2013-01-22 16:15:00,70.3,54.8,30.15,SE,127,15.0,16.0,58,0.00,,---,0.00,VWS V14.00,2013-01-22 22:15:00,
2013-01-22 16:16:00,70.2,54.8,30.15,SE,127,12.0,15.0,58,0.00,,---,0.00,VWS V14.00,2013-01-22 22:16:00,
2013-01-22 16:17:00,70.1,54.7,30.15,ESE,109,11.0,12.0,58,0.00,,---,0.00,VWS V14.00,2013-01-22 22:17:00,
2013-01-22 16:18:00,70.1,54.7,30.15,ESE,109,11.0,16.0,58,0.00,,---,0.00,VWS V14.00,2013-01-22 22:18:00,
2013-01-22 16:19:00,70.1,54.7,30.15,ESE,109,12.0,14.0,58,0.00,,---,0.00,VWS V14.00,2013-01-22 22:19:00,
2013-01-22 16:20:00,70.0,54.6,30.15,ESE,113,11.0,15.0,58,0.00,,---,0.00,VWS V14.00,2013-01-22 22:20:00,
2013-01-22 16:21:00,70.0,54.1,30.15,ESE,115,14.0,16.0,57,0.00,,---,0.00,VWS V14.00,2013-01-22 22:21:00,
2013-01-22 16:22:00,69.9,54.5,30.15,ESE,123,14.0,14.0,58,0.00,,---,0.00,VWS V14.00,2013-01-22 22:22:00,
2013-01-22 16:23:00,69.9,54.5,30.15,ESE,121,11.0,16.0,58,0.00,,---,0.00,VWS V14.00,2013-01-22 22:23:00,
2013-01-22 16:24:00,69.9,54.5,30.15,ESE,122,12.0,14.0,58,0.00,,---,0.00,VWS V14.00,2013-01-22 22:24:00,
2013-01-22 16:25:00,69.9,54.5,30.15,SE,124,11.0,14.0,58,0.00,,---,0.00,VWS V14.00,2013-01-22 22:25:00,
2013-01-22 16:26:00,69.9,54.5,30.15,SE,128,14.0,14.0,58,0.00,,---,0.00,VWS V14.00,2013-01-22 22:26:00,
2013-01-22 16:27:00,69.7,54.3,30.15,ESE,114,9.0,13.0,58,0.00,,---,0.00,VWS V14.00,2013-01-22 22:27:00,
2013-01-22 16:28:00,69.8,54.4,30.15,ESE,112,11.0,15.0,58,0.00,,---,0.00,VWS V14.00,2013-01-22 22:28:00,
2013-01-22 16:29:00,69.7,54.3,30.15,ESE,114,13.0,16.0,58,0.00,,---,0.00,VWS V14.00,2013-01-22 22:29:00,
2013-01-22 16:30:00,69.7,54.8,30.15,ESE,116,13.0,14.0,59,0.00,,---,0.00,VWS V14.00,2013-01-22 22:30:00,
2013-01-22 16:31:00,69.7,54.3,30.15,ESE,117,8.0,13.0,58,0.00,,---,0.00,VWS V14.00,2013-01-22 22:31:00,
2013-01-22 16:32:00,69.8,54.8,30.16,ESE,117,14.0,14.0,59,0.00,,---,0.00,VWS V14.00,2013-01-22 22:32:00,
2013-01-22 16:33:00,69.8,54.8,30.15,ESE,119,13.0,14.0,59,0.00,,---,0.00,VWS V14.00,2013-01-22 22:33:00,
2013-01-22 16:34:00,69.7,54.8,30.15,ESE,117,12.0,15.0,59,0.00,,---,0.00,VWS V14.00,2013-01-22 22:34:00,
2013-01-22 16:35:00,69.7,54.8,30.16,ESE,118,12.0,14.0,59,0.00,,---,0.00,VWS V14.00,2013-01-22 22:35:00,
2013-01-22 16:36:00,69.7,54.8,30.16,ESE,121,12.0,13.0,59,0.00,,---,0.00,VWS V14.00,2013-01-22 22:36:00,
2013-01-22 16:37:00,69.5,55.0,30.16,SE,126,13.0,13.0,60,0.00,,---,0.00,VWS V14.00,2013-01-22 22:37:00,
2013-01-22 16:38:00,69.6,54.7,30.16,SE,127,14.0,15.0,59,0.00,,---,0.00,VWS V14.00,2013-01-22 22:38:00,
2013-01-22 16:39:00,69.6,54.7,30.16,SE,126,12.0,14.0,59,0.00,,---,0.00,VWS V14.00,2013-01-22 22:39:00,
2013-01-22 16:40:00,69.5,55.0,30.16,ESE,119,14.0,15.0,60,0.00,,---,0.00,VWS V14.00,2013-01-22 22:40:00,
2013-01-22 16:41:00,69.5,55.0,30.16,ESE,105,14.0,16.0,60,0.00,,---,0.00,VWS V14.00,2013-01-22 22:41:00,
2013-01-22 16:42:00,69.5,55.0,30.16,ESE,110,15.0,15.0,60,0.00,,---,0.00,VWS V14.00,2013-01-22 22:42:00,
2013-01-22 16:43:00,69.5,55.0,30.16,ESE,109,15.0,15.0,60,0.00,,---,0.00,VWS V14.00,2013-01-22 22:43:00,
2013-01-22 16:44:00,69.5,55.0,30.16,ESE,109,12.0,15.0,60,0.00,,---,0.00,VWS V14.00,2013-01-22 22:44:00,
2013-01-22 16:45:00,69.5,55.0,30.16,ESE,114,12.0,15.0,60,0.00,,---,0.00,VWS V14.00,2013-01-22 22:45:00,
2013-01-22 16:46:00,69.4,54.9,30.16,ESE,115,12.0,15.0,60,0.00,,---,0.00,VWS V14.00,2013-01-22 22:46:00,
2013-01-22 16:47:00,69.3,54.8,30.16,ESE,122,9.0,14.0,60,0.00,,---,0.00,VWS V14.00,2013-01-22 22:47:00,
2013-01-22 16:48:00,69.4,54.9,30.16,ESE,113,14.0,14.0,60,0.00,,---,0.00,VWS V14.00,2013-01-22 22:48:00,
2013-01-22 16:49:00,69.3,54.8,30.16,ESE,122,14.0,16.0,60,0.00,,---,0.00,VWS V14.00,2013-01-22 22:49:00,
2013-01-22 16:50:00,69.2,54.7,30.16,ESE,123,12.0,16.0,60,0.00,,---,0.00,VWS V14.00,2013-01-22 22:50:00,
2013-01-22 16:51:00,69.2,54.7,30.16,SE,125,15.0,17.0,60,0.00,,---,0.00,VWS V14.00,2013-01-22 22:51:00,
2013-01-22 16:52:00,69.1,54.7,30.16,ESE,123,13.0,14.0,60,0.00,,---,0.00,VWS V14.00,2013-01-22 22:52:00,
2013-01-22 16:53:00,69.2,54.7,30.16,SE,124,11.0,16.0,60,0.00,,---,0.00,VWS V14.00,2013-01-22 22:53:00,
2013-01-22 16:54:00,69.1,54.7,30.16,ESE,122,8.0,15.0,60,0.00,,---,0.00,VWS V14.00,2013-01-22 22:54:00,
2013-01-22 16:55:00,69.1,54.7,30.16,SE,124,9.0,14.0,60,0.00,,---,0.00,VWS V14.00,2013-01-22 22:55:00,
2013-01-22 16:56:00,69.1,54.7,30.16,SE,124,14.0,14.0,60,0.00,,---,0.00,VWS V14.00,2013-01-22 22:56:00,
2013-01-22 16:57:00,69.0,55.0,30.16,SE,124,9.0,15.0,61,0.00,,---,0.00,VWS V14.00,2013-01-22 22:57:00,
2013-01-22 16:58:00,69.0,54.5,30.16,SE,124,12.0,14.0,60,0.00,,---,0.00,VWS V14.00,2013-01-22 22:58:00,
2013-01-22 16:59:00,69.0,55.0,30.16,SE,124,14.0,14.0,61,0.00,,---,0.00,VWS V14.00,2013-01-22 22:59:00,
2013-01-22 17:00:00,69.0,54.5,30.16,SE,124,12.0,15.0,60,0.00,,---,0.00,VWS V14.00,2013-01-22 23:00:00,
2013-01-22 17:01:00,69.0,54.5,30.16,ESE,123,13.0,14.0,60,0.00,,---,0.00,VWS V14.00,2013-01-22 23:01:00,
2013-01-22 17:02:00,68.9,54.5,30.16,ESE,115,9.0,14.0,60,0.00,,---,0.00,VWS V14.00,2013-01-22 23:02:00,
2013-01-22 17:03:00,68.9,54.5,30.16,ESE,119,13.0,14.0,60,0.00,,---,0.00,VWS V14.00,2013-01-22 23:03:00,
2013-01-22 17:04:00,68.9,54.5,30.16,ESE,117,13.0,13.0,60,0.00,,---,0.00,VWS V14.00,2013-01-22 23:04:00,
2013-01-22 17:05:00,68.9,54.9,30.16,ESE,115,9.0,14.0,61,0.00,,---,0.00,VWS V14.00,2013-01-22 23:05:00,
2013-01-22 17:06:00,68.9,54.9,30.16,ESE,114,11.0,14.0,61,0.00,,---,0.00,VWS V14.00,2013-01-22 23:06:00,
2013-01-22 17:07:00,68.9,54.9,30.16,ESE,112,12.0,13.0,61,0.00,,---,0.00,VWS V14.00,2013-01-22 23:07:00,
2013-01-22 17:08:00,68.9,54.9,30.16,ESE,114,8.0,13.0,61,0.00,,---,0.00,VWS V14.00,2013-01-22 23:08:00,
2013-01-22 17:09:00,68.9,54.9,30.16,ESE,112,13.0,15.0,61,0.00,,---,0.00,VWS V14.00,2013-01-22 23:09:00,
2013-01-22 17:10:00,68.9,54.9,30.16,ESE,113,8.0,13.0,61,0.00,,---,0.00,VWS V14.00,2013-01-22 23:10:00,
2013-01-22 17:11:00,68.9,54.9,30.16,ESE,115,12.0,13.0,61,0.00,,---,0.00,VWS V14.00,2013-01-22 23:11:00,
2013-01-22 17:12:00,69.0,55.0,30.16,ESE,116,8.0,13.0,61,0.00,,---,0.00,VWS V14.00,2013-01-22 23:12:00,
2013-01-22 17:13:00,69.0,55.0,30.16,ESE,116,13.0,14.0,61,0.00,,---,0.00,VWS V14.00,2013-01-22 23:13:00,
2013-01-22 17:14:00,69.0,55.0,30.16,ESE,116,12.0,14.0,61,0.00,,---,0.00,VWS V14.00,2013-01-22 23:14:00,
2013-01-22 17:15:00,68.9,54.9,30.16,ESE,120,13.0,13.0,61,0.00,,---,0.00,VWS V14.00,2013-01-22 23:15:00,
2013-01-22 17:16:00,68.9,54.5,30.16,ESE,122,13.0,14.0,60,0.00,,---,0.00,VWS V14.00,2013-01-22 23:16:00,
2013-01-22 17:17:00,68.8,54.8,30.16,ESE,115,12.0,15.0,61,0.00,,---,0.00,VWS V14.00,2013-01-22 23:17:00,
2013-01-22 17:18:00,68.9,54.9,30.16,ESE,122,13.0,15.0,61,0.00,,---,0.00,VWS V14.00,2013-01-22 23:18:00,
2013-01-22 17:19:00,68.8,54.8,30.16,ESE,116,12.0,16.0,61,0.00,,---,0.00,VWS V14.00,2013-01-22 23:19:00,
2013-01-22 17:20:00,68.8,54.8,30.16,ESE,115,8.0,15.0,61,0.00,,---,0.00,VWS V14.00,2013-01-22 23:20:00,
2013-01-22 17:21:00,68.7,54.7,30.16,ESE,115,8.0,12.0,61,0.00,,---,0.00,VWS V14.00,2013-01-22 23:21:00,
2013-01-22 17:22:00,68.6,54.6,30.16,ESE,119,11.0,15.0,61,0.00,,---,0.00,VWS V14.00,2013-01-22 23:22:00,
2013-01-22 17:23:00,68.7,54.7,30.16,ESE,115,14.0,15.0,61,0.00,,---,0.00,VWS V14.00,2013-01-22 23:23:00,
2013-01-22 17:24:00,68.6,54.6,30.16,ESE,121,12.0,14.0,61,0.00,,---,0.00,VWS V14.00,2013-01-22 23:24:00,
2013-01-22 17:25:00,68.5,55.0,30.16,ESE,117,14.0,15.0,62,0.00,,---,0.00,VWS V14.00,2013-01-22 23:25:00,
2013-01-22 17:26:00,68.5,55.0,30.16,ESE,117,14.0,15.0,62,0.00,,---,0.00,VWS V14.00,2013-01-22 23:26:00,
2013-01-22 17:27:00,68.3,54.8,30.16,ESE,114,9.0,13.0,62,0.00,,---,0.00,VWS V14.00,2013-01-22 23:27:00,
2013-01-22 17:28:00,68.4,54.9,30.16,ESE,118,12.0,14.0,62,0.00,,---,0.00,VWS V14.00,2013-01-22 23:28:00,
2013-01-22 17:29:00,68.3,54.8,30.16,ESE,114,12.0,15.0,62,0.00,,---,0.00,VWS V14.00,2013-01-22 23:29:00,
2013-01-22 17:30:00,68.3,54.8,30.16,ESE,115,12.0,13.0,62,0.00,,---,0.00,VWS V14.00,2013-01-22 23:30:00,
2013-01-22 17:31:00,68.3,54.8,30.16,ESE,115,12.0,14.0,62,0.00,,---,0.00,VWS V14.00,2013-01-22 23:31:00,
2013-01-22 17:32:00,68.1,55.0,30.16,ESE,119,9.0,12.0,63,0.00,,---,0.00,VWS V14.00,2013-01-22 23:32:00,
2013-01-22 17:33:00,68.2,55.1,30.16,ESE,119,11.0,14.0,63,0.00,,---,0.00,VWS V14.00,2013-01-22 23:33:00,
2013-01-22 17:34:00,68.1,55.0,30.16,ESE,119,9.0,13.0,63,0.00,,---,0.00,VWS V14.00,2013-01-22 23:34:00,
2013-01-22 17:35:00,68.1,55.0,30.16,ESE,119,9.0,12.0,63,0.00,,---,0.00,VWS V14.00,2013-01-22 23:35:00,
2013-01-22 17:36:00,68.1,55.0,30.16,ESE,119,9.0,11.0,63,0.00,,---,0.00,VWS V14.00,2013-01-22 23:36:00,
2013-01-22 17:37:00,68.0,55.0,30.16,ESE,119,8.0,11.0,63,0.00,,---,0.00,VWS V14.00,2013-01-22 23:37:00,
2013-01-22 17:38:00,68.0,55.0,30.16,ESE,119,12.0,13.0,63,0.00,,---,0.00,VWS V14.00,2013-01-22 23:38:00,
2013-01-22 17:39:00,68.0,55.0,30.16,ESE,119,7.0,12.0,63,0.00,,---,0.00,VWS V14.00,2013-01-22 23:39:00,
2013-01-22 17:40:00,67.9,54.8,30.16,ESE,119,9.0,11.0,63,0.00,,---,0.00,VWS V14.00,2013-01-22 23:40:00,
2013-01-22 17:41:00,67.9,54.8,30.16,ESE,120,12.0,12.0,63,0.00,,---,0.00,VWS V14.00,2013-01-22 23:41:00,
2013-01-22 17:42:00,67.8,54.8,30.16,ESE,119,11.0,12.0,63,0.00,,---,0.00,VWS V14.00,2013-01-22 23:42:00,
2013-01-22 17:43:00,67.9,54.8,30.16,ESE,120,9.0,12.0,63,0.00,,---,0.00,VWS V14.00,2013-01-22 23:43:00,
2013-01-22 17:44:00,67.8,54.8,30.16,ESE,119,8.0,11.0,63,0.00,,---,0.00,VWS V14.00,2013-01-22 23:44:00,
2013-01-22 17:45:00,67.7,55.1,30.16,ESE,119,9.0,12.0,64,0.00,,---,0.00,VWS V14.00,2013-01-22 23:45:00,
2013-01-22 17:46:00,67.7,55.1,30.16,ESE,119,8.0,9.0,64,0.00,,---,0.00,VWS V14.00,2013-01-22 23:46:00,
2013-01-22 17:47:00,67.5,54.9,30.16,ESE,119,8.0,8.0,64,0.00,,---,0.00,VWS V14.00,2013-01-22 23:47:00,
2013-01-22 17:48:00,67.6,55.0,30.16,ESE,119,9.0,9.0,64,0.00,,---,0.00,VWS V14.00,2013-01-22 23:48:00,
2013-01-22 17:49:00,67.6,55.0,30.16,ESE,119,6.0,9.0,64,0.00,,---,0.00,VWS V14.00,2013-01-22 23:49:00,
2013-01-22 17:50:00,67.5,54.9,30.16,ESE,119,8.0,9.0,64,0.00,,---,0.00,VWS V14.00,2013-01-22 23:50:00,
2013-01-22 17:51:00,67.4,54.8,30.16,ESE,118,11.0,11.0,64,0.00,,---,0.00,VWS V14.00,2013-01-22 23:51:00,
2013-01-22 17:52:00,67.3,55.2,30.16,ESE,116,9.0,11.0,65,0.00,,---,0.00,VWS V14.00,2013-01-22 23:52:00,
2013-01-22 17:53:00,67.3,54.7,30.16,ESE,116,11.0,12.0,64,0.00,,---,0.00,VWS V14.00,2013-01-22 23:53:00,
2013-01-22 17:54:00,67.3,55.2,30.16,ESE,116,8.0,12.0,65,0.00,,---,0.00,VWS V14.00,2013-01-22 23:54:00,
2013-01-22 17:55:00,67.2,55.0,30.16,ESE,116,9.0,12.0,65,0.00,,---,0.00,VWS V14.00,2013-01-22 23:55:00,
2013-01-22 17:56:00,67.2,55.0,30.16,ESE,116,11.0,12.0,65,0.00,,---,0.00,VWS V14.00,2013-01-22 23:56:00,
2013-01-22 17:57:00,67.1,55.0,30.16,ESE,116,8.0,9.0,65,0.00,,---,0.00,VWS V14.00,2013-01-22 23:57:00,
2013-01-22 17:58:00,67.1,55.0,30.16,ESE,116,6.0,11.0,65,0.00,,---,0.00,VWS V14.00,2013-01-22 23:58:00,
2013-01-22 17:59:00,67.1,55.0,30.16,ESE,116,9.0,11.0,65,0.00,,---,0.00,VWS V14.00,2013-01-22 23:59:00,
2013-01-22 18:00:00,67.0,54.9,30.16,ESE,116,7.0,9.0,65,0.00,,---,0.00,VWS V14.00,2013-01-23 00:00:00,
2013-01-22 18:01:00,66.9,55.2,30.16,ESE,116,7.0,9.0,66,0.00,,---,0.00,VWS V14.00,2013-01-23 00:01:00,
2013-01-22 18:02:00,66.7,55.0,30.16,ESE,116,6.0,7.0,66,0.00,,---,0.00,VWS V14.00,2013-01-23 00:02:00,
2013-01-22 18:03:00,66.8,55.1,30.16,ESE,116,6.0,7.0,66,0.00,,---,0.00,VWS V14.00,2013-01-23 00:03:00,
2013-01-22 18:04:00,66.7,55.0,30.16,ESE,116,6.0,7.0,66,0.00,,---,0.00,VWS V14.00,2013-01-23 00:04:00,
2013-01-22 18:05:00,66.6,54.9,30.16,ESE,116,7.0,7.0,66,0.00,,---,0.00,VWS V14.00,2013-01-23 00:05:00,
2013-01-22 18:06:00,66.6,55.3,30.16,ESE,116,7.0,8.0,67,0.00,,---,0.00,VWS V14.00,2013-01-23 00:06:00,
2013-01-22 18:07:00,66.4,55.9,30.16,ESE,113,8.0,8.0,69,0.00,,---,0.00,VWS V14.00,2013-01-23 00:07:00,
2013-01-22 18:08:00,66.5,56.0,30.16,ESE,115,9.0,9.0,69,0.00,,---,0.00,VWS V14.00,2013-01-23 00:08:00,
2013-01-22 18:09:00,66.4,55.9,30.16,ESE,113,8.0,11.0,69,0.00,,---,0.00,VWS V14.00,2013-01-23 00:09:00,
2013-01-22 18:10:00,66.3,55.8,30.16,ESE,113,8.0,9.0,69,0.00,,---,0.00,VWS V14.00,2013-01-23 00:10:00,
2013-01-22 18:11:00,66.2,55.7,30.16,ESE,113,8.0,9.0,69,0.00,,---,0.00,VWS V14.00,2013-01-23 00:11:00,
2013-01-22 18:12:00,66.0,56.0,30.16,ESE,111,11.0,11.0,70,0.00,,---,0.00,VWS V14.00,2013-01-23 00:12:00,
2013-01-22 18:13:00,66.1,55.7,30.16,ESE,111,9.0,11.0,69,0.00,,---,0.00,VWS V14.00,2013-01-23 00:13:00,
2013-01-22 18:14:00,66.0,56.0,30.16,ESE,111,6.0,11.0,70,0.00,,---,0.00,VWS V14.00,2013-01-23 00:14:00,
2013-01-22 18:15:00,65.9,55.8,30.16,ESE,107,12.0,12.0,70,0.00,,---,0.00,VWS V14.00,2013-01-23 00:15:00,
2013-01-22 18:16:00,65.9,56.2,30.16,ESE,102,11.0,13.0,71,0.00,,---,0.00,VWS V14.00,2013-01-23 00:16:00,
2013-01-22 18:17:00,65.7,56.4,30.16,ESE,102,8.0,9.0,72,0.00,,---,0.00,VWS V14.00,2013-01-23 00:17:00,
2013-01-22 18:18:00,65.8,56.5,30.16,ESE,102,8.0,11.0,72,0.00,,---,0.00,VWS V14.00,2013-01-23 00:18:00,
2013-01-22 18:19:00,65.8,56.5,30.16,ESE,102,9.0,11.0,72,0.00,,---,0.00,VWS V14.00,2013-01-23 00:19:00,
2013-01-22 18:20:00,65.7,56.4,30.16,ESE,102,9.0,9.0,72,0.00,,---,0.00,VWS V14.00,2013-01-23 00:20:00,
2013-01-22 18:21:00,65.6,56.3,30.16,East,101,7.0,11.0,72,0.00,,---,0.00,VWS V14.00,2013-01-23 00:21:00,
2013-01-22 18:22:00,65.5,56.6,30.16,East,100,8.0,12.0,73,0.00,,---,0.00,VWS V14.00,2013-01-23 00:22:00,
2013-01-22 18:23:00,65.6,56.7,30.16,East,101,9.0,11.0,73,0.00,,---,0.00,VWS V14.00,2013-01-23 00:23:00,
2013-01-22 18:24:00,65.5,56.6,30.16,East,101,12.0,12.0,73,0.00,,---,0.00,VWS V14.00,2013-01-23 00:24:00,
2013-01-22 18:25:00,65.5,56.6,30.16,East,101,8.0,12.0,73,0.00,,---,0.00,VWS V14.00,2013-01-23 00:25:00,
2013-01-22 18:26:00,65.4,56.5,30.16,East,101,8.0,9.0,73,0.00,,---,0.00,VWS V14.00,2013-01-23 00:26:00,
2013-01-22 18:27:00,65.3,56.8,30.16,East,101,8.0,8.0,74,0.00,,---,0.00,VWS V14.00,2013-01-23 00:27:00,
2013-01-22 18:28:00,65.4,56.9,30.16,East,101,8.0,11.0,74,0.00,,---,0.00,VWS V14.00,2013-01-23 00:28:00,
2013-01-22 18:29:00,65.4,56.9,30.16,East,101,7.0,9.0,74,0.00,,---,0.00,VWS V14.00,2013-01-23 00:29:00,
2013-01-22 18:30:00,65.3,56.8,30.16,East,101,8.0,9.0,74,0.00,,---,0.00,VWS V14.00,2013-01-23 00:30:00,
2013-01-22 18:31:00,65.2,56.7,30.16,East,101,8.0,9.0,74,0.00,,---,0.00,VWS V14.00,2013-01-23 00:31:00,
2013-01-22 18:32:00,65.0,56.5,30.16,East,101,8.0,9.0,74,0.00,,---,0.00,VWS V14.00,2013-01-23 00:32:00,
2013-01-22 18:33:00,65.1,56.6,30.16,East,101,8.0,8.0,74,0.00,,---,0.00,VWS V14.00,2013-01-23 00:33:00,
2013-01-22 18:34:00,65.0,56.5,30.16,East,101,7.0,9.0,74,0.00,,---,0.00,VWS V14.00,2013-01-23 00:34:00,
2013-01-22 18:35:00,65.0,56.5,30.16,East,101,8.0,9.0,74,0.00,,---,0.00,VWS V14.00,2013-01-23 00:35:00,
2013-01-22 18:36:00,64.9,56.4,30.16,East,101,7.0,8.0,74,0.00,,---,0.00,VWS V14.00,2013-01-23 00:36:00,
2013-01-22 18:37:00,64.7,56.2,30.16,East,101,7.0,7.0,74,0.00,,---,0.00,VWS V14.00,2013-01-23 00:37:00,
2013-01-22 18:38:00,64.8,56.3,30.16,East,101,7.0,9.0,74,0.00,,---,0.00,VWS V14.00,2013-01-23 00:38:00,
2013-01-22 18:39:00,64.7,56.2,30.16,East,101,6.0,7.0,74,0.00,,---,0.00,VWS V14.00,2013-01-23 00:39:00,
2013-01-22 18:40:00,64.6,56.5,30.16,East,101,5.0,7.0,75,0.00,,---,0.00,VWS V14.00,2013-01-23 00:40:00,
2013-01-22 18:41:00,64.5,56.4,30.16,East,101,6.0,7.0,75,0.00,,---,0.00,VWS V14.00,2013-01-23 00:41:00,
2013-01-22 18:42:00,64.2,56.1,30.16,East,100,5.0,7.0,75,0.00,,---,0.00,VWS V14.00,2013-01-23 00:42:00,
2013-01-22 18:44:00,64.3,56.2,30.16,East,101,6.0,6.0,75,0.00,,---,0.00,VWS V14.00,2013-01-23 00:44:00,
2013-01-22 18:45:00,64.2,56.1,30.16,East,101,6.0,7.0,75,0.00,,---,0.00,VWS V14.00,2013-01-23 00:45:00,
2013-01-22 18:46:00,64.1,56.0,30.16,East,101,5.0,6.0,75,0.00,,---,0.00,VWS V14.00,2013-01-23 00:46:00,
2013-01-22 18:47:00,63.9,55.8,30.16,East,101,6.0,6.0,75,0.00,,---,0.00,VWS V14.00,2013-01-23 00:47:00,
2013-01-22 18:48:00,64.0,55.9,30.16,East,101,6.0,6.0,75,0.00,,---,0.00,VWS V14.00,2013-01-23 00:48:00,
2013-01-22 18:49:00,64.0,55.9,30.16,East,100,5.0,6.0,75,0.00,,---,0.00,VWS V14.00,2013-01-23 00:49:00,
2013-01-22 18:50:00,63.9,55.8,30.16,East,100,6.0,6.0,75,0.00,,---,0.00,VWS V14.00,2013-01-23 00:50:00,
2013-01-22 18:51:00,63.8,56.1,30.16,East,101,5.0,6.0,76,0.00,,---,0.00,VWS V14.00,2013-01-23 00:51:00,
2013-01-22 18:52:00,63.7,56.0,30.16,East,101,6.0,7.0,76,0.00,,---,0.00,VWS V14.00,2013-01-23 00:52:00,
2013-01-22 18:53:00,63.8,56.1,30.16,East,101,6.0,7.0,76,0.00,,---,0.00,VWS V14.00,2013-01-23 00:53:00,
2013-01-22 18:54:00,63.7,56.0,30.16,East,101,6.0,6.0,76,0.00,,---,0.00,VWS V14.00,2013-01-23 00:54:00,
2013-01-22 18:55:00,63.7,56.0,30.16,East,101,7.0,7.0,76,0.00,,---,0.00,VWS V14.00,2013-01-23 00:55:00,
2013-01-22 18:56:00,63.7,56.4,30.16,East,101,6.0,8.0,77,0.00,,---,0.00,VWS V14.00,2013-01-23 00:56:00,
2013-01-22 18:57:00,63.6,56.3,30.16,East,101,4.0,6.0,77,0.00,,---,0.00,VWS V14.00,2013-01-23 00:57:00,
2013-01-22 18:58:00,63.6,56.3,30.16,East,101,4.0,7.0,77,0.00,,---,0.00,VWS V14.00,2013-01-23 00:58:00,
2013-01-22 18:59:00,63.6,56.3,30.16,East,100,6.0,6.0,77,0.00,,---,0.00,VWS V14.00,2013-01-23 00:59:00,
2013-01-22 19:00:00,63.6,56.3,30.16,East,101,5.0,6.0,77,0.00,,---,0.00,VWS V14.00,2013-01-23 01:00:00,
2013-01-22 19:01:00,63.5,56.2,30.17,East,101,5.0,6.0,77,0.00,,---,0.00,VWS V14.00,2013-01-23 01:01:00,
2013-01-22 19:02:00,63.3,56.3,30.16,East,101,5.0,6.0,78,0.00,,---,0.00,VWS V14.00,2013-01-23 01:02:00,
2013-01-22 19:03:00,63.4,56.4,30.17,East,101,5.0,7.0,78,0.00,,---,0.00,VWS V14.00,2013-01-23 01:03:00,
2013-01-22 19:04:00,63.3,56.0,30.17,East,101,6.0,6.0,77,0.00,,---,0.00,VWS V14.00,2013-01-23 01:04:00,
2013-01-22 19:05:00,63.3,56.3,30.16,East,101,6.0,6.0,78,0.00,,---,0.00,VWS V14.00,2013-01-23 01:05:00,
2013-01-22 19:06:00,63.2,56.2,30.16,East,100,5.0,6.0,78,0.00,,---,0.00,VWS V14.00,2013-01-23 01:06:00,
2013-01-22 19:07:00,62.7,55.8,30.17,East,101,6.0,7.0,78,0.00,,---,0.00,VWS V14.00,2013-01-23 01:07:00,
2013-01-22 19:08:00,63.0,56.0,30.17,East,101,5.0,7.0,78,0.00,,---,0.00,VWS V14.00,2013-01-23 01:08:00,
2013-01-22 19:09:00,62.9,55.9,30.17,East,101,5.0,6.0,78,0.00,,---,0.00,VWS V14.00,2013-01-23 01:09:00,
2013-01-22 19:10:00,62.7,55.8,30.17,East,101,6.0,7.0,78,0.00,,---,0.00,VWS V14.00,2013-01-23 01:10:00,
2013-01-22 19:11:00,62.6,55.7,30.17,East,101,6.0,7.0,78,0.00,,---,0.00,VWS V14.00,2013-01-23 01:11:00,
2013-01-22 19:12:00,62.4,55.8,30.17,East,100,7.0,8.0,79,0.00,,---,0.00,VWS V14.00,2013-01-23 01:12:00,
2013-01-22 19:13:00,62.5,55.9,30.17,East,101,5.0,7.0,79,0.00,,---,0.00,VWS V14.00,2013-01-23 01:13:00,
2013-01-22 19:14:00,62.4,55.8,30.17,East,101,8.0,8.0,79,0.00,,---,0.00,VWS V14.00,2013-01-23 01:14:00,
2013-01-22 19:15:00,62.4,55.8,30.17,East,101,6.0,8.0,79,0.00,,---,0.00,VWS V14.00,2013-01-23 01:15:00,
2013-01-22 19:16:00,62.4,55.8,30.17,East,101,7.0,8.0,79,0.00,,---,0.00,VWS V14.00,2013-01-23 01:16:00,
2013-01-22 19:17:00,62.3,56.4,30.17,East,101,7.0,9.0,81,0.00,,---,0.00,VWS V14.00,2013-01-23 01:17:00,
2013-01-22 19:18:00,62.4,56.2,30.17,East,101,6.0,8.0,80,0.00,,---,0.00,VWS V14.00,2013-01-23 01:18:00,
2013-01-22 19:19:00,62.3,56.1,30.17,East,101,7.0,8.0,80,0.00,,---,0.00,VWS V14.00,2013-01-23 01:19:00,
2013-01-22 19:20:00,62.3,56.4,30.17,East,101,8.0,9.0,81,0.00,,---,0.00,VWS V14.00,2013-01-23 01:20:00,
2013-01-22 19:21:00,62.4,56.5,30.17,East,101,7.0,9.0,81,0.00,,---,0.00,VWS V14.00,2013-01-23 01:21:00,
2013-01-22 19:22:00,62.1,55.9,30.17,East,101,6.0,7.0,80,0.00,,---,0.00,VWS V14.00,2013-01-23 01:22:00,
2013-01-22 19:23:00,62.4,56.5,30.17,East,101,5.0,7.0,81,0.00,,---,0.00,VWS V14.00,2013-01-23 01:23:00,
2013-01-22 19:24:00,62.3,56.1,30.17,East,101,6.0,6.0,80,0.00,,---,0.00,VWS V14.00,2013-01-23 01:24:00,
2013-01-22 19:25:00,62.1,55.9,30.17,East,101,5.0,7.0,80,0.00,,---,0.00,VWS V14.00,2013-01-23 01:25:00,
2013-01-22 19:26:00,62.0,55.8,30.17,East,101,6.0,6.0,80,0.00,,---,0.00,VWS V14.00,2013-01-23 01:26:00,
2013-01-22 19:27:00,61.7,55.5,30.17,East,101,6.0,8.0,80,0.00,,---,0.00,VWS V14.00,2013-01-23 01:27:00,
2013-01-22 19:28:00,61.8,55.6,30.17,East,101,5.0,6.0,80,0.00,,---,0.00,VWS V14.00,2013-01-23 01:28:00,
2013-01-22 19:29:00,61.7,55.5,30.17,East,101,5.0,7.0,80,0.00,,---,0.00,VWS V14.00,2013-01-23 01:29:00,
2013-01-22 19:30:00,61.7,55.8,30.17,East,101,6.0,8.0,81,0.00,,---,0.00,VWS V14.00,2013-01-23 01:30:00,
2013-01-22 19:31:00,61.7,55.8,30.17,East,101,6.0,7.0,81,0.00,,---,0.00,VWS V14.00,2013-01-23 01:31:00,
2013-01-22 19:32:00,61.5,55.6,30.17,East,101,5.0,7.0,81,0.00,,---,0.00,VWS V14.00,2013-01-23 01:32:00,
2013-01-22 19:33:00,61.6,55.7,30.17,East,101,5.0,7.0,81,0.00,,---,0.00,VWS V14.00,2013-01-23 01:33:00,
2013-01-22 19:34:00,61.6,55.7,30.17,East,101,7.0,7.0,81,0.00,,---,0.00,VWS V14.00,2013-01-23 01:34:00,
2013-01-22 19:35:00,61.5,55.6,30.17,East,101,5.0,7.0,81,0.00,,---,0.00,VWS V14.00,2013-01-23 01:35:00,
2013-01-22 19:36:00,61.5,55.6,30.17,East,101,6.0,7.0,81,0.00,,---,0.00,VWS V14.00,2013-01-23 01:36:00,
2013-01-22 19:37:00,61.3,55.4,30.17,East,101,6.0,7.0,81,0.00,,---,0.00,VWS V14.00,2013-01-23 01:37:00,
2013-01-22 19:38:00,61.4,55.5,30.17,East,101,5.0,7.0,81,0.00,,---,0.00,VWS V14.00,2013-01-23 01:38:00,
2013-01-22 19:39:00,61.4,55.5,30.17,East,101,6.0,6.0,81,0.00,,---,0.00,VWS V14.00,2013-01-23 01:39:00,
2013-01-22 19:40:00,61.3,55.4,30.17,East,101,6.0,7.0,81,0.00,,---,0.00,VWS V14.00,2013-01-23 01:40:00,
2013-01-22 19:41:00,61.3,55.4,30.17,East,101,6.0,7.0,81,0.00,,---,0.00,VWS V14.00,2013-01-23 01:41:00,
2013-01-22 19:42:00,61.1,55.2,30.18,East,101,5.0,6.0,81,0.00,,---,0.00,VWS V14.00,2013-01-23 01:42:00,
2013-01-22 19:43:00,61.2,55.3,30.17,East,101,7.0,7.0,81,0.00,,---,0.00,VWS V14.00,2013-01-23 01:43:00,
2013-01-22 19:44:00,61.2,55.3,30.17,East,101,5.0,7.0,81,0.00,,---,0.00,VWS V14.00,2013-01-23 01:44:00,
2013-01-22 19:45:00,61.1,55.2,30.18,East,101,5.0,6.0,81,0.00,,---,0.00,VWS V14.00,2013-01-23 01:45:00,
2013-01-22 19:46:00,61.0,55.1,30.18,East,101,5.0,7.0,81,0.00,,---,0.00,VWS V14.00,2013-01-23 01:46:00,
2013-01-22 19:47:00,60.6,54.8,30.18,East,101,0.0,0.0,81,0.00,,---,0.00,VWS V14.00,2013-01-23 01:47:00,
2013-01-22 19:48:00,60.8,54.9,30.18,East,101,0.0,5.0,81,0.00,,---,0.00,VWS V14.00,2013-01-23 01:48:00,
2013-01-22 19:49:00,60.7,54.8,30.18,East,101,0.0,0.0,81,0.00,,---,0.00,VWS V14.00,2013-01-23 01:49:00,
2013-01-22 19:50:00,60.6,54.8,30.18,East,101,0.0,0.0,81,0.00,,---,0.00,VWS V14.00,2013-01-23 01:50:00,
2013-01-22 19:51:00,60.5,54.7,30.18,East,101,0.0,0.0,81,0.00,,---,0.00,VWS V14.00,2013-01-23 01:51:00,
2013-01-22 19:52:00,60.5,55.0,30.18,East,101,0.0,0.0,82,0.00,,---,0.00,VWS V14.00,2013-01-23 01:52:00,
2013-01-22 19:53:00,60.5,55.0,30.18,East,101,0.0,0.0,82,0.00,,---,0.00,VWS V14.00,2013-01-23 01:53:00,
2013-01-22 19:54:00,60.5,55.0,30.18,East,101,0.0,0.0,82,0.00,,---,0.00,VWS V14.00,2013-01-23 01:54:00,
2013-01-22 19:55:00,60.5,55.0,30.18,East,101,0.0,0.0,82,0.00,,---,0.00,VWS V14.00,2013-01-23 01:55:00,
2013-01-22 19:56:00,60.5,55.0,30.18,East,101,0.0,0.0,82,0.00,,---,0.00,VWS V14.00,2013-01-23 01:56:00,
2013-01-22 19:57:00,60.3,54.8,30.18,East,101,0.0,0.0,82,0.00,,---,0.00,VWS V14.00,2013-01-23 01:57:00,
2013-01-22 19:58:00,60.4,54.9,30.18,East,101,0.0,0.0,82,0.00,,---,0.00,VWS V14.00,2013-01-23 01:58:00,
2013-01-22 19:59:00,60.4,54.9,30.18,East,101,0.0,0.0,82,0.00,,---,0.00,VWS V14.00,2013-01-23 01:59:00,
2013-01-22 20:00:00,60.3,54.8,30.18,East,101,0.0,0.0,82,0.00,,---,0.00,VWS V14.00,2013-01-23 02:00:00,
2013-01-22 20:01:00,60.3,54.8,30.18,East,101,0.0,0.0,82,0.00,,---,0.00,VWS V14.00,2013-01-23 02:01:00,
2013-01-22 20:02:00,60.4,55.2,30.18,East,101,0.0,0.0,83,0.00,,---,0.00,VWS V14.00,2013-01-23 02:02:00,
2013-01-22 20:03:00,60.4,55.2,30.18,East,101,0.0,0.0,83,0.00,,---,0.00,VWS V14.00,2013-01-23 02:03:00,
2013-01-22 20:04:00,60.4,54.9,30.18,East,101,0.0,0.0,82,0.00,,---,0.00,VWS V14.00,2013-01-23 02:04:00,
2013-01-22 20:05:00,60.4,55.2,30.18,East,101,0.0,0.0,83,0.00,,---,0.00,VWS V14.00,2013-01-23 02:05:00,
2013-01-22 20:06:00,60.3,55.1,30.18,East,101,0.0,0.0,83,0.00,,---,0.00,VWS V14.00,2013-01-23 02:06:00,
2013-01-22 20:07:00,60.2,55.0,30.18,East,101,0.0,0.0,83,0.00,,---,0.00,VWS V14.00,2013-01-23 02:07:00,
2013-01-22 20:08:00,60.3,55.1,30.18,East,101,0.0,0.0,83,0.00,,---,0.00,VWS V14.00,2013-01-23 02:08:00,
2013-01-22 20:09:00,60.2,55.0,30.18,East,101,0.0,0.0,83,0.00,,---,0.00,VWS V14.00,2013-01-23 02:09:00,
2013-01-22 20:10:00,60.2,55.0,30.18,East,101,0.0,0.0,83,0.00,,---,0.00,VWS V14.00,2013-01-23 02:10:00,
2013-01-22 20:11:00,60.2,55.0,30.18,East,101,0.0,0.0,83,0.00,,---,0.00,VWS V14.00,2013-01-23 02:11:00,
2013-01-22 20:12:00,60.1,54.9,30.18,East,101,0.0,0.0,83,0.00,,---,0.00,VWS V14.00,2013-01-23 02:12:00,
2013-01-22 20:13:00,60.2,55.0,30.18,East,100,0.0,0.0,83,0.00,,---,0.00,VWS V14.00,2013-01-23 02:13:00,
2013-01-22 20:14:00,60.1,54.9,30.18,East,101,0.0,0.0,83,0.00,,---,0.00,VWS V14.00,2013-01-23 02:14:00,
2013-01-22 20:15:00,60.1,54.9,30.18,East,101,0.0,0.0,83,0.00,,---,0.00,VWS V14.00,2013-01-23 02:15:00,
2013-01-22 20:16:00,60.0,54.8,30.18,East,101,0.0,0.0,83,0.00,,---,0.00,VWS V14.00,2013-01-23 02:16:00,
2013-01-22 20:17:00,59.8,54.6,30.18,East,101,0.0,0.0,83,0.00,,---,0.00,VWS V14.00,2013-01-23 02:17:00,
2013-01-22 20:18:00,59.9,54.7,30.18,East,101,0.0,0.0,83,0.00,,---,0.00,VWS V14.00,2013-01-23 02:18:00,
2013-01-22 20:19:00,59.8,54.6,30.18,East,101,0.0,0.0,83,0.00,,---,0.00,VWS V14.00,2013-01-23 02:19:00,
2013-01-22 20:20:00,59.8,54.6,30.18,East,101,0.0,0.0,83,0.00,,---,0.00,VWS V14.00,2013-01-23 02:20:00,
2013-01-22 20:21:00,59.8,54.6,30.18,East,100,0.0,0.0,83,0.00,,---,0.00,VWS V14.00,2013-01-23 02:21:00,
2013-01-22 20:22:00,59.7,54.5,30.18,East,101,0.0,0.0,83,0.00,,---,0.00,VWS V14.00,2013-01-23 02:22:00,
2013-01-22 20:23:00,59.8,54.6,30.18,East,100,0.0,0.0,83,0.00,,---,0.00,VWS V14.00,2013-01-23 02:23:00,
2013-01-22 20:24:00,59.7,54.5,30.18,East,101,0.0,0.0,83,0.00,,---,0.00,VWS V14.00,2013-01-23 02:24:00,
2013-01-22 20:25:00,59.7,54.5,30.18,East,101,0.0,0.0,83,0.00,,---,0.00,VWS V14.00,2013-01-23 02:25:00,
2013-01-22 20:26:00,59.7,54.5,30.18,East,101,0.0,0.0,83,0.00,,---,0.00,VWS V14.00,2013-01-23 02:26:00,
2013-01-22 20:27:00,59.5,54.3,30.18,East,101,0.0,0.0,83,0.00,,---,0.00,VWS V14.00,2013-01-23 02:27:00,
2013-01-22 20:28:00,59.6,54.4,30.18,East,101,0.0,0.0,83,0.00,,---,0.00,VWS V14.00,2013-01-23 02:28:00,
2013-01-22 20:29:00,59.5,54.3,30.18,East,101,0.0,0.0,83,0.00,,---,0.00,VWS V14.00,2013-01-23 02:29:00,
2013-01-22 20:30:00,59.5,54.3,30.18,East,101,0.0,0.0,83,0.00,,---,0.00,VWS V14.00,2013-01-23 02:30:00,
2013-01-22 20:31:00,59.5,54.3,30.18,East,101,0.0,0.0,83,0.00,,---,0.00,VWS V14.00,2013-01-23 02:31:00,
2013-01-22 20:32:00,59.3,54.2,30.18,East,101,0.0,0.0,83,0.00,,---,0.00,VWS V14.00,2013-01-23 02:32:00,
2013-01-22 20:33:00,59.4,54.2,30.18,East,101,0.0,0.0,83,0.00,,---,0.00,VWS V14.00,2013-01-23 02:33:00,
2013-01-22 20:34:00,59.3,54.2,30.18,East,101,0.0,0.0,83,0.00,,---,0.00,VWS V14.00,2013-01-23 02:34:00,
2013-01-22 20:35:00,59.3,54.2,30.18,East,101,0.0,0.0,83,0.00,,---,0.00,VWS V14.00,2013-01-23 02:35:00,
2013-01-22 20:36:00,59.2,54.0,30.18,East,101,0.0,0.0,83,0.00,,---,0.00,VWS V14.00,2013-01-23 02:36:00,
2013-01-22 20:37:00,59.0,54.2,30.19,East,101,0.0,0.0,84,0.00,,---,0.00,VWS V14.00,2013-01-23 02:37:00,
2013-01-22 20:38:00,59.0,53.8,30.18,East,101,0.0,0.0,83,0.00,,---,0.00,VWS V14.00,2013-01-23 02:38:00,
2013-01-22 20:39:00,59.0,54.2,30.18,East,101,0.0,0.0,84,0.00,,---,0.00,VWS V14.00,2013-01-23 02:39:00,
2013-01-22 20:40:00,59.0,54.2,30.19,East,101,0.0,0.0,84,0.00,,---,0.00,VWS V14.00,2013-01-23 02:40:00,
2013-01-22 20:41:00,59.0,54.8,30.19,East,101,0.0,0.0,86,0.00,,---,0.00,VWS V14.00,2013-01-23 02:41:00,
2013-01-22 20:42:00,58.9,54.1,30.19,East,101,0.0,0.0,84,0.00,,---,0.00,VWS V14.00,2013-01-23 02:42:00,
2013-01-22 20:43:00,58.9,54.1,30.19,East,101,0.0,0.0,84,0.00,,---,0.00,VWS V14.00,2013-01-23 02:43:00,
2013-01-22 20:44:00,58.9,54.1,30.19,East,101,0.0,0.0,84,0.00,,---,0.00,VWS V14.00,2013-01-23 02:44:00,
2013-01-22 20:45:00,58.9,54.1,30.19,East,101,0.0,0.0,84,0.00,,---,0.00,VWS V14.00,2013-01-23 02:45:00,
2013-01-22 20:46:00,58.9,54.4,30.19,East,100,0.0,0.0,85,0.00,,---,0.00,VWS V14.00,2013-01-23 02:46:00,
2013-01-22 20:47:00,58.9,54.1,30.19,East,101,0.0,0.0,84,0.00,,---,0.00,VWS V14.00,2013-01-23 02:47:00,
2013-01-22 20:48:00,58.9,54.1,30.19,East,101,0.0,0.0,84,0.00,,---,0.00,VWS V14.00,2013-01-23 02:48:00,
2013-01-22 20:49:00,58.9,54.1,30.19,East,101,0.0,0.0,84,0.00,,---,0.00,VWS V14.00,2013-01-23 02:49:00,
2013-01-22 20:50:00,58.9,54.1,30.19,East,101,0.0,0.0,84,0.00,,---,0.00,VWS V14.00,2013-01-23 02:50:00,
2013-01-22 20:51:00,58.8,54.0,30.19,East,101,0.0,0.0,84,0.00,,---,0.00,VWS V14.00,2013-01-23 02:51:00,
2013-01-22 20:52:00,58.5,54.0,30.19,East,101,0.0,0.0,85,0.00,,---,0.00,VWS V14.00,2013-01-23 02:52:00,
2013-01-22 20:53:00,58.6,53.8,30.19,East,101,0.0,0.0,84,0.00,,---,0.00,VWS V14.00,2013-01-23 02:53:00,
2013-01-22 20:54:00,58.5,53.7,30.19,East,101,0.0,0.0,84,0.00,,---,0.00,VWS V14.00,2013-01-23 02:54:00,
2013-01-22 20:55:00,58.5,54.0,30.19,East,101,0.0,0.0,85,0.00,,---,0.00,VWS V14.00,2013-01-23 02:55:00,
2013-01-22 20:56:00,58.4,53.6,30.19,East,101,0.0,0.0,84,0.00,,---,0.00,VWS V14.00,2013-01-23 02:56:00,
2013-01-22 20:57:00,58.2,53.7,30.19,East,100,0.0,0.0,85,0.00,,---,0.00,VWS V14.00,2013-01-23 02:57:00,
2013-01-22 20:58:00,58.3,53.5,30.19,East,101,0.0,0.0,84,0.00,,---,0.00,VWS V14.00,2013-01-23 02:58:00,
2013-01-22 20:59:00,58.2,53.7,30.19,East,101,0.0,0.0,85,0.00,,---,0.00,VWS V14.00,2013-01-23 02:59:00,
2013-01-22 21:00:00,58.2,53.7,30.19,East,101,0.0,0.0,85,0.00,,---,0.00,VWS V14.00,2013-01-23 03:00:00,
2013-01-22 21:01:00,58.2,53.7,30.19,East,101,0.0,0.0,85,0.00,,---,0.00,VWS V14.00,2013-01-23 03:01:00,
2013-01-22 21:02:00,58.0,53.5,30.19,East,101,0.0,0.0,85,0.00,,---,0.00,VWS V14.00,2013-01-23 03:02:00,
2013-01-22 21:04:00,58.1,53.6,30.19,East,101,0.0,0.0,85,0.00,,---,0.00,VWS V14.00,2013-01-23 03:04:00,
2013-01-22 21:05:00,58.0,53.5,30.19,East,101,0.0,0.0,85,0.00,,---,0.00,VWS V14.00,2013-01-23 03:05:00,
2013-01-22 21:06:00,58.0,53.5,30.19,East,101,0.0,0.0,85,0.00,,---,0.00,VWS V14.00,2013-01-23 03:06:00,
2013-01-22 21:07:00,57.8,53.3,30.19,East,101,0.0,0.0,85,0.00,,---,0.00,VWS V14.00,2013-01-23 03:07:00,
2013-01-22 21:08:00,58.0,53.5,30.19,East,100,0.0,0.0,85,0.00,,---,0.00,VWS V14.00,2013-01-23 03:08:00,
2013-01-22 21:09:00,57.9,53.4,30.19,East,101,0.0,0.0,85,0.00,,---,0.00,VWS V14.00,2013-01-23 03:09:00,
2013-01-22 21:10:00,57.8,53.3,30.19,East,101,0.0,0.0,85,0.00,,---,0.00,VWS V14.00,2013-01-23 03:10:00,
2013-01-22 21:11:00,57.8,53.3,30.19,East,101,0.0,0.0,85,0.00,,---,0.00,VWS V14.00,2013-01-23 03:11:00,
2013-01-22 21:12:00,57.6,53.1,30.19,East,101,0.0,0.0,85,0.00,,---,0.00,VWS V14.00,2013-01-23 03:12:00,
2013-01-22 21:13:00,57.7,53.2,30.19,East,100,0.0,0.0,85,0.00,,---,0.00,VWS V14.00,2013-01-23 03:13:00,
2013-01-22 21:14:00,57.7,53.2,30.19,East,101,0.0,0.0,85,0.00,,---,0.00,VWS V14.00,2013-01-23 03:14:00,
2013-01-22 21:15:00,57.6,53.1,30.19,East,101,0.0,0.0,85,0.00,,---,0.00,VWS V14.00,2013-01-23 03:15:00,
2013-01-22 21:16:00,57.6,53.5,30.19,East,101,0.0,0.0,86,0.00,,---,0.00,VWS V14.00,2013-01-23 03:16:00,
2013-01-22 21:17:00,57.6,53.5,30.19,East,101,0.0,0.0,86,0.00,,---,0.00,VWS V14.00,2013-01-23 03:17:00,
2013-01-22 21:18:00,57.6,53.5,30.19,East,101,0.0,0.0,86,0.00,,---,0.00,VWS V14.00,2013-01-23 03:18:00,
2013-01-22 21:19:00,57.6,53.5,30.19,East,101,0.0,0.0,86,0.00,,---,0.00,VWS V14.00,2013-01-23 03:19:00,
2013-01-22 21:20:00,57.6,53.5,30.19,East,101,0.0,0.0,86,0.00,,---,0.00,VWS V14.00,2013-01-23 03:20:00,
2013-01-22 21:21:00,57.6,53.5,30.19,East,101,0.0,0.0,86,0.00,,---,0.00,VWS V14.00,2013-01-23 03:21:00,
2013-01-22 21:22:00,57.7,53.5,30.19,East,101,0.0,1.0,86,0.00,,---,0.00,VWS V14.00,2013-01-23 03:22:00,
2013-01-22 21:23:00,57.7,53.5,30.19,East,101,4.0,5.0,86,0.00,,---,0.00,VWS V14.00,2013-01-23 03:23:00,
2013-01-22 21:24:00,57.7,53.5,30.19,East,101,1.0,4.0,86,0.00,,---,0.00,VWS V14.00,2013-01-23 03:24:00,
2013-01-22 21:25:00,57.7,53.5,30.19,East,101,0.0,1.0,86,0.00,,---,0.00,VWS V14.00,2013-01-23 03:25:00,
2013-01-22 21:26:00,57.6,53.5,30.19,East,101,0.0,0.0,86,0.00,,---,0.00,VWS V14.00,2013-01-23 03:26:00,
2013-01-22 21:27:00,57.5,53.3,30.19,East,101,0.0,0.0,86,0.00,,---,0.00,VWS V14.00,2013-01-23 03:27:00,
2013-01-22 21:28:00,57.6,53.5,30.19,East,101,0.0,0.0,86,0.00,,---,0.00,VWS V14.00,2013-01-23 03:28:00,
2013-01-22 21:29:00,57.5,53.3,30.19,East,101,0.0,0.0,86,0.00,,---,0.00,VWS V14.00,2013-01-23 03:29:00,
2013-01-22 21:30:00,57.5,53.3,30.19,East,101,0.0,0.0,86,0.00,,---,0.00,VWS V14.00,2013-01-23 03:30:00,
2013-01-22 21:31:00,57.4,53.2,30.19,East,101,0.0,0.0,86,0.00,,---,0.00,VWS V14.00,2013-01-23 03:31:00,
2013-01-22 21:32:00,57.2,53.1,30.20,East,101,0.0,0.0,86,0.00,,---,0.00,VWS V14.00,2013-01-23 03:32:00,
2013-01-22 21:33:00,57.3,53.2,30.20,East,101,0.0,0.0,86,0.00,,---,0.00,VWS V14.00,2013-01-23 03:33:00,
2013-01-22 21:34:00,57.3,53.2,30.20,East,101,0.0,0.0,86,0.00,,---,0.00,VWS V14.00,2013-01-23 03:34:00,
2013-01-22 21:35:00,57.2,53.1,30.20,East,101,0.0,0.0,86,0.00,,---,0.00,VWS V14.00,2013-01-23 03:35:00,
2013-01-22 21:36:00,57.2,53.1,30.20,East,100,0.0,0.0,86,0.00,,---,0.00,VWS V14.00,2013-01-23 03:36:00,
2013-01-22 21:37:00,57.1,53.0,30.20,East,101,0.0,0.0,86,0.00,,---,0.00,VWS V14.00,2013-01-23 03:37:00,
2013-01-22 21:38:00,57.2,53.1,30.20,East,101,0.0,0.0,86,0.00,,---,0.00,VWS V14.00,2013-01-23 03:38:00,
2013-01-22 21:39:00,57.1,53.0,30.20,East,101,0.0,0.0,86,0.00,,---,0.00,VWS V14.00,2013-01-23 03:39:00,
2013-01-22 21:40:00,57.1,53.0,30.20,East,101,0.0,0.0,86,0.00,,---,0.00,VWS V14.00,2013-01-23 03:40:00,
2013-01-22 21:41:00,57.1,53.3,30.20,East,101,0.0,0.0,87,0.00,,---,0.00,VWS V14.00,2013-01-23 03:41:00,
2013-01-22 21:42:00,57.0,53.2,30.20,East,101,0.0,0.0,87,0.00,,---,0.00,VWS V14.00,2013-01-23 03:42:00,
2013-01-22 21:43:00,57.0,53.2,30.20,East,101,0.0,0.0,87,0.00,,---,0.00,VWS V14.00,2013-01-23 03:43:00,
2013-01-22 21:44:00,57.0,53.2,30.20,East,101,0.0,0.0,87,0.00,,---,0.00,VWS V14.00,2013-01-23 03:44:00,
2013-01-22 21:45:00,57.0,53.2,30.20,East,101,0.0,0.0,87,0.00,,---,0.00,VWS V14.00,2013-01-23 03:45:00,
2013-01-22 21:46:00,57.0,53.2,30.20,East,101,0.0,0.0,87,0.00,,---,0.00,VWS V14.00,2013-01-23 03:46:00,
2013-01-22 21:47:00,57.0,53.2,30.20,East,101,0.0,0.0,87,0.00,,---,0.00,VWS V14.00,2013-01-23 03:47:00,
2013-01-22 21:48:00,57.0,53.2,30.20,East,101,0.0,0.0,87,0.00,,---,0.00,VWS V14.00,2013-01-23 03:48:00,
2013-01-22 21:49:00,57.0,53.2,30.20,East,101,0.0,0.0,87,0.00,,---,0.00,VWS V14.00,2013-01-23 03:49:00,
2013-01-22 21:50:00,57.0,53.2,30.20,East,101,0.0,0.0,87,0.00,,---,0.00,VWS V14.00,2013-01-23 03:50:00,
2013-01-22 21:52:00,57.1,53.6,30.20,East,101,0.0,0.0,88,0.00,,---,0.00,VWS V14.00,2013-01-23 03:52:00,
2013-01-22 21:53:00,57.2,53.7,30.20,East,101,0.0,0.0,88,0.00,,---,0.00,VWS V14.00,2013-01-23 03:53:00,
2013-01-22 21:54:00,57.2,53.7,30.20,East,101,0.0,0.0,88,0.00,,---,0.00,VWS V14.00,2013-01-23 03:54:00,
2013-01-22 21:55:00,57.1,53.6,30.20,East,101,0.0,0.0,88,0.00,,---,0.00,VWS V14.00,2013-01-23 03:55:00,
2013-01-22 21:56:00,57.1,53.3,30.20,East,101,0.0,0.0,87,0.00,,---,0.00,VWS V14.00,2013-01-23 03:56:00,
2013-01-22 21:57:00,56.7,52.9,30.20,East,101,0.0,0.0,87,0.00,,---,0.00,VWS V14.00,2013-01-23 03:57:00,
2013-01-22 21:58:00,56.9,53.1,30.20,East,101,0.0,0.0,87,0.00,,---,0.00,VWS V14.00,2013-01-23 03:58:00,
2013-01-22 21:59:00,56.7,52.9,30.20,East,101,0.0,0.0,87,0.00,,---,0.00,VWS V14.00,2013-01-23 03:59:00,
2013-01-22 22:00:00,56.7,52.9,30.20,East,101,0.0,0.0,87,0.00,,---,0.00,VWS V14.00,2013-01-23 04:00:00,
2013-01-22 22:01:00,56.6,52.8,30.20,East,101,0.0,0.0,87,0.00,,---,0.00,VWS V14.00,2013-01-23 04:01:00,
2013-01-22 22:02:00,56.5,53.0,30.20,East,101,0.0,0.0,88,0.00,,---,0.00,VWS V14.00,2013-01-23 04:02:00,
2013-01-22 22:03:00,56.5,53.0,30.20,East,101,0.0,0.0,88,0.00,,---,0.00,VWS V14.00,2013-01-23 04:03:00,
2013-01-22 22:04:00,56.5,53.0,30.20,East,101,0.0,0.0,88,0.00,,---,0.00,VWS V14.00,2013-01-23 04:04:00,
2013-01-22 22:05:00,56.5,53.0,30.20,East,101,0.0,0.0,88,0.00,,---,0.00,VWS V14.00,2013-01-23 04:05:00,
2013-01-22 22:06:00,56.6,53.1,30.20,East,101,0.0,0.0,88,0.00,,---,0.00,VWS V14.00,2013-01-23 04:06:00,
2013-01-22 22:07:00,56.7,53.5,30.20,East,101,0.0,0.0,89,0.00,,---,0.00,VWS V14.00,2013-01-23 04:07:00,
2013-01-22 22:08:00,56.6,53.1,30.20,East,101,0.0,0.0,88,0.00,,---,0.00,VWS V14.00,2013-01-23 04:08:00,
2013-01-22 22:09:00,56.6,53.1,30.20,East,100,0.0,0.0,88,0.00,,---,0.00,VWS V14.00,2013-01-23 04:09:00,
2013-01-22 22:10:00,56.7,53.5,30.20,East,101,0.0,0.0,89,0.00,,---,0.00,VWS V14.00,2013-01-23 04:10:00,
2013-01-22 22:11:00,56.7,53.5,30.20,East,101,0.0,0.0,89,0.00,,---,0.00,VWS V14.00,2013-01-23 04:11:00,
2013-01-22 22:12:00,56.9,53.7,30.20,East,101,0.0,0.0,89,0.00,,---,0.00,VWS V14.00,2013-01-23 04:12:00,
2013-01-22 22:13:00,56.8,53.6,30.20,East,101,0.0,0.0,89,0.00,,---,0.00,VWS V14.00,2013-01-23 04:13:00,
2013-01-22 22:14:00,56.9,53.7,30.20,East,101,0.0,0.0,89,0.00,,---,0.00,VWS V14.00,2013-01-23 04:14:00,
2013-01-22 22:15:00,56.9,53.7,30.20,East,101,0.0,0.0,89,0.00,,---,0.00,VWS V14.00,2013-01-23 04:15:00,
2013-01-22 22:16:00,57.0,53.8,30.20,East,101,0.0,0.0,89,0.00,,---,0.00,VWS V14.00,2013-01-23 04:16:00,
2013-01-22 22:17:00,57.2,54.0,30.20,East,100,0.0,0.0,89,0.00,,---,0.00,VWS V14.00,2013-01-23 04:17:00,
2013-01-22 22:18:00,57.2,54.3,30.20,East,101,0.0,0.0,90,0.00,,---,0.00,VWS V14.00,2013-01-23 04:18:00,
2013-01-22 22:19:00,57.2,54.0,30.20,East,101,0.0,0.0,89,0.00,,---,0.00,VWS V14.00,2013-01-23 04:19:00,
2013-01-22 22:20:00,57.2,54.0,30.20,East,100,0.0,0.0,89,0.00,,---,0.00,VWS V14.00,2013-01-23 04:20:00,
2013-01-22 22:21:00,57.2,54.0,30.20,East,101,0.0,0.0,89,0.00,,---,0.00,VWS V14.00,2013-01-23 04:21:00,
2013-01-22 22:22:00,56.9,53.4,30.20,East,101,0.0,0.0,88,0.00,,---,0.00,VWS V14.00,2013-01-23 04:22:00,
2013-01-22 22:23:00,57.1,53.9,30.20,East,101,0.0,0.0,89,0.00,,---,0.00,VWS V14.00,2013-01-23 04:23:00,
2013-01-22 22:24:00,57.0,53.8,30.20,East,101,0.0,0.0,89,0.00,,---,0.00,VWS V14.00,2013-01-23 04:24:00,
2013-01-22 22:25:00,56.9,53.4,30.20,East,101,0.0,0.0,88,0.00,,---,0.00,VWS V14.00,2013-01-23 04:25:00,
2013-01-22 22:26:00,56.8,53.3,30.20,East,101,0.0,0.0,88,0.00,,---,0.00,VWS V14.00,2013-01-23 04:26:00,
2013-01-22 22:27:00,56.5,53.3,30.20,East,101,0.0,0.0,89,0.00,,---,0.00,VWS V14.00,2013-01-23 04:27:00,
2013-01-22 22:28:00,56.6,53.4,30.20,East,101,0.0,0.0,89,0.00,,---,0.00,VWS V14.00,2013-01-23 04:28:00,
2013-01-22 22:29:00,56.6,53.4,30.20,East,101,0.0,0.0,89,0.00,,---,0.00,VWS V14.00,2013-01-23 04:29:00,
2013-01-22 22:30:00,56.5,53.3,30.20,East,101,0.0,0.0,89,0.00,,---,0.00,VWS V14.00,2013-01-23 04:30:00,
2013-01-22 22:31:00,56.5,53.3,30.20,East,101,0.0,0.0,89,0.00,,---,0.00,VWS V14.00,2013-01-23 04:31:00,
2013-01-22 22:32:00,56.2,53.0,30.20,East,101,0.0,0.0,89,0.00,,---,0.00,VWS V14.00,2013-01-23 04:32:00,
2013-01-22 22:33:00,56.3,53.1,30.20,East,101,0.0,0.0,89,0.00,,---,0.00,VWS V14.00,2013-01-23 04:33:00,
2013-01-22 22:34:00,56.3,53.1,30.20,East,101,0.0,0.0,89,0.00,,---,0.00,VWS V14.00,2013-01-23 04:34:00,
2013-01-22 22:35:00,56.2,53.0,30.20,East,101,0.0,0.0,89,0.00,,---,0.00,VWS V14.00,2013-01-23 04:35:00,
2013-01-22 22:36:00,56.2,53.0,30.20,East,101,0.0,0.0,89,0.00,,---,0.00,VWS V14.00,2013-01-23 04:36:00,
2013-01-22 22:37:00,56.0,52.8,30.20,East,101,0.0,0.0,89,0.00,,---,0.00,VWS V14.00,2013-01-23 04:37:00,
2013-01-22 22:38:00,56.1,52.9,30.20,East,101,0.0,0.0,89,0.00,,---,0.00,VWS V14.00,2013-01-23 04:38:00,
2013-01-22 22:39:00,56.1,52.9,30.20,East,101,0.0,0.0,89,0.00,,---,0.00,VWS V14.00,2013-01-23 04:39:00,
2013-01-22 22:40:00,56.0,52.8,30.20,East,101,0.0,0.0,89,0.00,,---,0.00,VWS V14.00,2013-01-23 04:40:00,
2013-01-22 22:41:00,56.0,52.8,30.20,East,101,0.0,0.0,89,0.00,,---,0.00,VWS V14.00,2013-01-23 04:41:00,
2013-01-22 22:42:00,56.2,53.3,30.20,East,101,0.0,0.0,90,0.00,,---,0.00,VWS V14.00,2013-01-23 04:42:00,
2013-01-22 22:43:00,56.0,52.8,30.20,East,101,0.0,0.0,89,0.00,,---,0.00,VWS V14.00,2013-01-23 04:43:00,
2013-01-22 22:44:00,56.0,53.1,30.20,East,101,0.0,0.0,90,0.00,,---,0.00,VWS V14.00,2013-01-23 04:44:00,
2013-01-22 22:45:00,56.2,53.3,30.20,East,101,0.0,0.0,90,0.00,,---,0.00,VWS V14.00,2013-01-23 04:45:00,
2013-01-22 22:46:00,56.2,53.3,30.20,East,101,0.0,0.0,90,0.00,,---,0.00,VWS V14.00,2013-01-23 04:46:00,
2013-01-22 22:47:00,55.3,52.1,30.20,East,100,0.0,0.0,89,0.00,,---,0.00,VWS V14.00,2013-01-23 04:47:00,
2013-01-22 22:48:00,55.8,52.6,30.20,East,100,0.0,0.0,89,0.00,,---,0.00,VWS V14.00,2013-01-23 04:48:00,
2013-01-22 22:49:00,55.5,52.3,30.20,East,101,0.0,0.0,89,0.00,,---,0.00,VWS V14.00,2013-01-23 04:49:00,
2013-01-22 22:50:00,55.3,52.1,30.20,East,100,0.0,0.0,89,0.00,,---,0.00,VWS V14.00,2013-01-23 04:50:00,
2013-01-22 22:51:00,55.1,51.9,30.20,East,100,0.0,0.0,89,0.00,,---,0.00,VWS V14.00,2013-01-23 04:51:00,
2013-01-22 22:52:00,54.6,51.4,30.20,East,100,0.0,0.0,89,0.00,,---,0.00,VWS V14.00,2013-01-23 04:52:00,
2013-01-22 22:53:00,54.7,51.5,30.20,East,101,0.0,0.0,89,0.00,,---,0.00,VWS V14.00,2013-01-23 04:53:00,
2013-01-22 22:54:00,54.6,51.4,30.20,East,101,0.0,0.0,89,0.00,,---,0.00,VWS V14.00,2013-01-23 04:54:00,
2013-01-22 22:55:00,54.6,51.4,30.20,East,100,0.0,0.0,89,0.00,,---,0.00,VWS V14.00,2013-01-23 04:55:00,
2013-01-22 22:56:00,54.6,51.4,30.20,East,101,0.0,0.0,89,0.00,,---,0.00,VWS V14.00,2013-01-23 04:56:00,
2013-01-22 22:57:00,54.5,51.6,30.20,East,101,0.0,0.0,90,0.00,,---,0.00,VWS V14.00,2013-01-23 04:57:00,
2013-01-22 22:58:00,54.6,51.7,30.20,East,101,0.0,0.0,90,0.00,,---,0.00,VWS V14.00,2013-01-23 04:58:00,
2013-01-22 22:59:00,54.6,51.7,30.20,East,101,0.0,0.0,90,0.00,,---,0.00,VWS V14.00,2013-01-23 04:59:00,
2013-01-22 23:00:00,54.4,51.5,30.20,East,100,0.0,0.0,90,0.00,,---,0.00,VWS V14.00,2013-01-23 05:00:00,
2013-01-22 23:01:00,54.2,51.3,30.20,East,100,0.0,0.0,90,0.00,,---,0.00,VWS V14.00,2013-01-23 05:01:00,
2013-01-22 23:02:00,54.4,51.5,30.20,East,101,0.0,0.0,90,0.00,,---,0.00,VWS V14.00,2013-01-23 05:02:00,
2013-01-22 23:03:00,54.1,51.2,30.20,East,100,0.0,0.0,90,0.00,,---,0.00,VWS V14.00,2013-01-23 05:03:00,
2013-01-22 23:04:00,54.3,51.4,30.20,East,100,0.0,0.0,90,0.00,,---,0.00,VWS V14.00,2013-01-23 05:04:00,
2013-01-22 23:05:00,54.2,51.3,30.20,East,101,0.0,0.0,90,0.00,,---,0.00,VWS V14.00,2013-01-23 05:05:00,
2013-01-22 23:06:00,54.1,51.2,30.20,East,100,0.0,0.0,90,0.00,,---,0.00,VWS V14.00,2013-01-23 05:06:00,
2013-01-22 23:08:00,54.0,51.1,30.20,East,101,0.0,0.0,90,0.00,,---,0.00,VWS V14.00,2013-01-23 05:08:00,
2013-01-22 23:09:00,53.9,51.0,30.20,East,101,0.0,0.0,90,0.00,,---,0.00,VWS V14.00,2013-01-23 05:09:00,
2013-01-22 23:10:00,53.9,51.0,30.20,East,101,0.0,0.0,90,0.00,,---,0.00,VWS V14.00,2013-01-23 05:10:00,
2013-01-22 23:11:00,53.9,51.0,30.20,East,101,0.0,0.0,90,0.00,,---,0.00,VWS V14.00,2013-01-23 05:11:00,
2013-01-22 23:12:00,54.0,51.1,30.20,East,101,0.0,0.0,90,0.00,,---,0.00,VWS V14.00,2013-01-23 05:12:00,
2013-01-22 23:13:00,54.4,51.8,30.20,East,101,0.0,0.0,91,0.00,,---,0.00,VWS V14.00,2013-01-23 05:13:00,
2013-01-22 23:14:00,54.2,51.6,30.20,East,101,0.0,0.0,91,0.00,,---,0.00,VWS V14.00,2013-01-23 05:14:00,
2013-01-22 23:15:00,54.4,51.8,30.20,East,101,0.0,0.0,91,0.00,,---,0.00,VWS V14.00,2013-01-23 05:15:00,
2013-01-22 23:16:00,54.5,51.9,30.20,East,100,0.0,0.0,91,0.00,,---,0.00,VWS V14.00,2013-01-23 05:16:00,
2013-01-22 23:17:00,54.6,52.0,30.20,East,101,0.0,0.0,91,0.00,,---,0.00,VWS V14.00,2013-01-23 05:17:00,
2013-01-22 23:18:00,54.8,52.2,30.20,East,100,0.0,0.0,91,0.00,,---,0.00,VWS V14.00,2013-01-23 05:18:00,
2013-01-22 23:19:00,54.7,52.1,30.20,East,100,0.0,0.0,91,0.00,,---,0.00,VWS V14.00,2013-01-23 05:19:00,
2013-01-22 23:20:00,54.8,52.2,30.20,East,100,0.0,0.0,91,0.00,,---,0.00,VWS V14.00,2013-01-23 05:20:00,
2013-01-22 23:21:00,54.9,52.3,30.20,East,101,0.0,0.0,91,0.00,,---,0.00,VWS V14.00,2013-01-23 05:21:00,
2013-01-22 23:22:00,54.9,52.3,30.20,East,101,0.0,0.0,91,0.00,,---,0.00,VWS V14.00,2013-01-23 05:22:00,
2013-01-22 23:23:00,54.8,52.2,30.20,East,101,0.0,0.0,91,0.00,,---,0.00,VWS V14.00,2013-01-23 05:23:00,
2013-01-22 23:24:00,54.9,52.3,30.20,East,101,0.0,0.0,91,0.00,,---,0.00,VWS V14.00,2013-01-23 05:24:00,
2013-01-22 23:25:00,54.9,52.3,30.20,East,101,0.0,0.0,91,0.00,,---,0.00,VWS V14.00,2013-01-23 05:25:00,
2013-01-22 23:26:00,54.8,52.2,30.20,East,101,0.0,0.0,91,0.00,,---,0.00,VWS V14.00,2013-01-23 05:26:00,
2013-01-22 23:27:00,54.8,52.2,30.20,East,100,0.0,0.0,91,0.00,,---,0.00,VWS V14.00,2013-01-23 05:27:00,
2013-01-22 23:28:00,54.7,52.1,30.20,East,100,0.0,0.0,91,0.00,,---,0.00,VWS V14.00,2013-01-23 05:28:00,
2013-01-22 23:29:00,54.7,52.1,30.20,East,101,0.0,0.0,91,0.00,,---,0.00,VWS V14.00,2013-01-23 05:29:00,
2013-01-22 23:30:00,54.7,52.1,30.20,East,100,0.0,0.0,91,0.00,,---,0.00,VWS V14.00,2013-01-23 05:30:00,
2013-01-22 23:31:00,54.6,52.0,30.20,East,100,0.0,0.0,91,0.00,,---,0.00,VWS V14.00,2013-01-23 05:31:00,
2013-01-22 23:32:00,54.6,52.0,30.20,East,101,0.0,0.0,91,0.00,,---,0.00,VWS V14.00,2013-01-23 05:32:00,
2013-01-22 23:33:00,54.3,51.7,30.20,East,100,0.0,0.0,91,0.00,,---,0.00,VWS V14.00,2013-01-23 05:33:00,
2013-01-22 23:34:00,54.4,51.8,30.20,East,101,0.0,0.0,91,0.00,,---,0.00,VWS V14.00,2013-01-23 05:34:00,
2013-01-22 23:35:00,54.4,51.8,30.20,East,101,0.0,0.0,91,0.00,,---,0.00,VWS V14.00,2013-01-23 05:35:00,
2013-01-22 23:36:00,54.3,51.7,30.20,East,100,0.0,0.0,91,0.00,,---,0.00,VWS V14.00,2013-01-23 05:36:00,
2013-01-22 23:37:00,54.2,51.6,30.20,East,100,0.0,0.0,91,0.00,,---,0.00,VWS V14.00,2013-01-23 05:37:00,
2013-01-22 23:38:00,53.9,51.3,30.20,East,101,0.0,0.0,91,0.00,,---,0.00,VWS V14.00,2013-01-23 05:38:00,
2013-01-22 23:39:00,54.0,51.4,30.20,East,100,0.0,0.0,91,0.00,,---,0.00,VWS V14.00,2013-01-23 05:39:00,
2013-01-22 23:40:00,53.9,51.3,30.20,East,100,0.0,0.0,91,0.00,,---,0.00,VWS V14.00,2013-01-23 05:40:00,
2013-01-22 23:41:00,53.9,51.3,30.20,East,100,0.0,0.0,91,0.00,,---,0.00,VWS V14.00,2013-01-23 05:41:00,
2013-01-22 23:42:00,53.8,51.2,30.20,East,100,0.0,0.0,91,0.00,,---,0.00,VWS V14.00,2013-01-23 05:42:00,
2013-01-22 23:43:00,53.8,51.2,30.20,East,101,0.0,0.0,91,0.00,,---,0.00,VWS V14.00,2013-01-23 05:43:00,
2013-01-22 23:44:00,53.8,51.2,30.20,East,101,0.0,0.0,91,0.00,,---,0.00,VWS V14.00,2013-01-23 05:44:00,
2013-01-22 23:45:00,53.8,51.2,30.20,East,100,0.0,0.0,91,0.00,,---,0.00,VWS V14.00,2013-01-23 05:45:00,
2013-01-22 23:46:00,53.8,51.2,30.20,East,100,0.0,0.0,91,0.00,,---,0.00,VWS V14.00,2013-01-23 05:46:00,
2013-01-22 23:47:00,53.9,51.3,30.20,East,100,0.0,0.0,91,0.00,,---,0.00,VWS V14.00,2013-01-23 05:47:00,
2013-01-22 23:48:00,54.0,51.4,30.20,East,101,0.0,0.0,91,0.00,,---,0.00,VWS V14.00,2013-01-23 05:48:00,
2013-01-22 23:49:00,54.0,51.7,30.20,East,100,0.0,0.0,92,0.00,,---,0.00,VWS V14.00,2013-01-23 05:49:00,
2013-01-22 23:50:00,54.0,51.4,30.20,East,100,0.0,0.0,91,0.00,,---,0.00,VWS V14.00,2013-01-23 05:50:00,
2013-01-22 23:51:00,54.1,51.5,30.20,East,100,0.0,0.0,91,0.00,,---,0.00,VWS V14.00,2013-01-23 05:51:00,
2013-01-22 23:52:00,54.1,51.8,30.20,East,100,0.0,0.0,92,0.00,,---,0.00,VWS V14.00,2013-01-23 05:52:00,
2013-01-22 23:53:00,54.2,51.9,30.20,East,100,0.0,0.0,92,0.00,,---,0.00,VWS V14.00,2013-01-23 05:53:00,
2013-01-22 23:54:00,54.2,51.9,30.20,East,101,0.0,0.0,92,0.00,,---,0.00,VWS V14.00,2013-01-23 05:54:00,
2013-01-22 23:55:00,54.2,51.9,30.20,East,101,0.0,0.0,92,0.00,,---,0.00,VWS V14.00,2013-01-23 05:55:00,
2013-01-22 23:56:00,54.2,51.9,30.20,East,100,0.0,0.0,92,0.00,,---,0.00,VWS V14.00,2013-01-23 05:56:00,
2013-01-22 23:57:00,54.2,51.9,30.20,East,100,0.0,0.0,92,0.00,,---,0.00,VWS V14.00,2013-01-23 05:57:00,
2013-01-22 23:58:00,54.1,51.5,30.20,East,101,0.0,0.0,91,0.00,,---,0.00,VWS V14.00,2013-01-23 05:58:00,
2013-01-22 23:59:00,54.2,51.9,30.20,East,101,0.0,0.0,92,0.00,,---,0.00,VWS V14.00,2013-01-23 05:59:00,